[[{"header":{"parameterUnit":"m.s-1","parameterCategory":1,"la1":30.6,"la2":29.2853,"lo1":-89.7004,"lo2":-87.6739,"dy":0.0162,"dx":0.0183,"nx":112,"ny":82,"refTime":"2024-03-29T18:00:00:Z","depth":0,"parameterNumber":2,"parameterNumberName":"U-component_of_WINDS"},"data":[0.0,0.0,0.0,0.0,0.0,0.0,0.0,0.0,0.0,0.0,0.0,0.0,0.0,0.0,0.0,0.0,0.0,0.0,0.0,0.0,0.0,0.0,0.0,0.0,0.0,0.0,0.0,0.0,0.0,0.0,0.0,0.0,0.0,0.0,0.0,0.0,0.0,0.0,0.0,0.0,0.0,0.0,0.0,0.0,0.0,0.0,0.0,0.0,0.0,0.0,0.0,0.0,0.0,0.0,0.0,0.0,0.0,0.0,0.0,0.0,0.0,0.0,0.0,0.0,0.0,0.0,0.0,0.0,0.0,0.0,0.0,0.0,0.0,0.0,0.0,0.0,0.0,0.0,0.0,0.0,0.0,0.0,0.0,0.0,0.0,0.0,0.0,0.0,0.0,0.0,-6.4089,-6.986,-7.7553,-8.2285,-8.2285,-8.0977,-7.7476,-7.1283,0.0,0.0,0.0,0.0,0.0,0.0,0.0,0.0,0.0,0.0,0.0,0.0,0.0,0.0,0.0,0.0,0.0,0.0,0.0,0.0,0.0,0.0,0.0,0.0,0.0,0.0,0.0,0.0,0.0,0.0,0.0,0.0,0.0,0.0,0.0,0.0,0.0,0.0,0.0,0.0,0.0,0.0,0.0,0.0,0.0,0.0,0.0,0.0,0.0,0.0,0.0,0.0,0.0,0.0,0.0,0.0,0.0,0.0,0.0,0.0,0.0,0.0,0.0,0.0,0.0,0.0,0.0,0.0,0.0,0.0,0.0,0.0,0.0,0.0,0.0,0.0,0.0,0.0,0.0,0.0,0.0,0.0,0.0,0.0,0.0,0.0,0.0,0.0,0.0,0.0,0.0,0.0,0.0,0.0,0.0,0.0,0.0,0.0,0.0,0.0,0.0,0.0,0.0,0.0,-6.432,-7.3014,-7.8977,-8.2285,-8.2285,-7.8246,-7.4322,-7.1091,0.0,0.0,0.0,0.0,0.0,0.0,0.0,0.0,0.0,0.0,0.0,0.0,0.0,0.0,0.0,0.0,0.0,0.0,0.0,0.0,0.0,0.0,0.0,0.0,0.0,0.0,0.0,0.0,0.0,0.0,0.0,0.0,0.0,0.0,0.0,0.0,0.0,0.0,0.0,0.0,0.0,0.0,0.0,0.0,0.0,0.0,0.0,0.0,0.0,0.0,0.0,0.0,0.0,0.0,0.0,0.0,0.0,0.0,0.0,0.0,0.0,0.0,0.0,0.0,0.0,0.0,0.0,0.0,0.0,0.0,0.0,0.0,0.0,0.0,0.0,0.0,0.0,0.0,0.0,0.0,0.0,0.0,0.0,0.0,0.0,0.0,0.0,0.0,0.0,0.0,0.0,0.0,0.0,0.0,0.0,0.0,0.0,0.0,0.0,0.0,0.0,0.0,0.0,-6.332,-6.7436,-7.4014,-7.8438,-8.0939,-8.0939,-7.713,-7.3245,-6.9744,-6.6667,0.0,0.0,0.0,0.0,0.0,0.0,0.0,0.0,0.0,0.0,0.0,0.0,0.0,0.0,0.0,0.0,0.0,0.0,0.0,0.0,0.0,0.0,0.0,0.0,0.0,0.0,0.0,0.0,0.0,0.0,0.0,0.0,0.0,0.0,0.0,0.0,0.0,0.0,0.0,0.0,0.0,0.0,0.0,0.0,0.0,0.0,0.0,0.0,0.0,0.0,0.0,0.0,0.0,0.0,0.0,0.0,0.0,0.0,0.0,0.0,0.0,0.0,0.0,0.0,0.0,0.0,0.0,0.0,0.0,0.0,0.0,0.0,0.0,0.0,0.0,0.0,0.0,0.0,0.0,0.0,0.0,0.0,0.0,0.0,0.0,0.0,0.0,0.0,0.0,0.0,0.0,0.0,0.0,0.0,0.0,0.0,0.0,0.0,0.0,0.0,0.0,0.0,-6.6269,-7.0014,-7.4245,-7.74,-7.9208,-7.9208,-7.5707,-7.1975,-6.8321,-6.3935,0.0,0.0,0.0,0.0,0.0,0.0,0.0,0.0,0.0,0.0,0.0,0.0,0.0,0.0,0.0,0.0,0.0,0.0,0.0,0.0,0.0,0.0,0.0,0.0,0.0,0.0,0.0,0.0,0.0,0.0,0.0,0.0,0.0,0.0,0.0,0.0,0.0,0.0,0.0,0.0,0.0,0.0,0.0,0.0,0.0,0.0,0.0,0.0,0.0,0.0,0.0,0.0,0.0,0.0,0.0,0.0,0.0,0.0,0.0,0.0,0.0,0.0,0.0,0.0,0.0,0.0,0.0,0.0,0.0,0.0,0.0,0.0,0.0,0.0,0.0,0.0,0.0,0.0,0.0,0.0,0.0,0.0,0.0,0.0,0.0,0.0,0.0,0.0,0.0,0.0,0.0,0.0,0.0,0.0,0.0,0.0,0.0,0.0,0.0,0.0,0.0,0.0,-6.6269,-7.0014,-7.4245,-7.6361,-7.7476,-7.7476,-7.2899,-6.9244,-6.7321,-6.2474,0.0,0.0,0.0,0.0,0.0,0.0,0.0,0.0,0.0,0.0,0.0,0.0,0.0,0.0,0.0,0.0,0.0,0.0,0.0,0.0,0.0,0.0,0.0,0.0,0.0,0.0,0.0,0.0,0.0,0.0,0.0,0.0,0.0,0.0,0.0,0.0,0.0,0.0,0.0,0.0,0.0,0.0,0.0,0.0,0.0,0.0,0.0,0.0,0.0,0.0,0.0,0.0,0.0,0.0,0.0,0.0,0.0,0.0,0.0,0.0,0.0,0.0,0.0,0.0,0.0,0.0,0.0,0.0,0.0,0.0,0.0,0.0,0.0,0.0,0.0,0.0,0.0,0.0,0.0,0.0,0.0,0.0,0.0,0.0,0.0,0.0,0.0,0.0,0.0,0.0,0.0,0.0,0.0,0.0,0.0,0.0,0.0,0.0,0.0,0.0,0.0,0.0,-6.4298,-6.7521,-7.1687,-7.3972,-7.4965,-7.4413,-7.1487,-6.8282,-6.4936,0.0,0.0,0.0,0.0,0.0,0.0,0.0,0.0,0.0,0.0,0.0,0.0,0.0,0.0,0.0,0.0,0.0,0.0,0.0,0.0,0.0,0.0,0.0,0.0,0.0,0.0,0.0,0.0,0.0,0.0,0.0,0.0,0.0,0.0,0.0,0.0,0.0,0.0,0.0,0.0,0.0,0.0,0.0,0.0,0.0,0.0,0.0,0.0,0.0,0.0,0.0,0.0,0.0,0.0,0.0,0.0,0.0,0.0,0.0,0.0,0.0,0.0,0.0,0.0,0.0,0.0,0.0,0.0,0.0,0.0,0.0,0.0,0.0,0.0,0.0,0.0,0.0,0.0,0.0,0.0,0.0,0.0,0.0,0.0,0.0,0.0,0.0,0.0,0.0,0.0,0.0,0.0,0.0,0.0,0.0,0.0,0.0,0.0,0.0,0.0,0.0,0.0,-6.0493,-6.2634,-6.5309,-6.9035,-7.116,-7.196,-7.1104,-6.8441,-6.5594,-6.2692,0.0,0.0,0.0,0.0,0.0,0.0,0.0,0.0,0.0,0.0,0.0,0.0,0.0,0.0,0.0,0.0,0.0,0.0,0.0,0.0,0.0,0.0,0.0,0.0,0.0,0.0,0.0,0.0,0.0,0.0,0.0,0.0,0.0,0.0,0.0,0.0,0.0,0.0,0.0,0.0,0.0,0.0,0.0,0.0,0.0,0.0,0.0,0.0,0.0,0.0,0.0,0.0,0.0,0.0,0.0,0.0,0.0,0.0,0.0,0.0,0.0,0.0,0.0,0.0,0.0,0.0,0.0,0.0,0.0,0.0,0.0,0.0,0.0,0.0,0.0,0.0,0.0,0.0,0.0,0.0,0.0,0.0,0.0,0.0,0.0,0.0,0.0,0.0,0.0,0.0,0.0,0.0,0.0,0.0,0.0,0.0,0.0,0.0,0.0,0.0,0.0,0.0,-5.9631,-6.1582,-6.3731,-6.6541,-6.8043,-6.851,-6.7616,-6.3331,-6.0735,0.0,0.0,0.0,0.0,0.0,0.0,0.0,0.0,0.0,0.0,0.0,0.0,0.0,0.0,0.0,0.0,0.0,0.0,0.0,0.0,0.0,0.0,0.0,0.0,0.0,0.0,0.0,0.0,0.0,0.0,0.0,0.0,0.0,0.0,0.0,0.0,0.0,0.0,0.0,0.0,0.0,0.0,0.0,0.0,0.0,0.0,0.0,0.0,0.0,0.0,0.0,0.0,0.0,0.0,0.0,0.0,0.0,0.0,0.0,0.0,0.0,0.0,0.0,0.0,0.0,0.0,0.0,0.0,0.0,0.0,0.0,0.0,0.0,0.0,0.0,0.0,0.0,0.0,0.0,0.0,0.0,0.0,0.0,0.0,0.0,0.0,0.0,0.0,0.0,0.0,0.0,0.0,0.0,0.0,0.0,0.0,0.0,0.0,0.0,0.0,0.0,0.0,0.0,-5.7901,-5.9898,-6.1825,-6.3799,-6.5229,-6.5752,-6.4847,-6.2259,-6.0203,-5.9026,0.0,0.0,0.0,0.0,0.0,0.0,0.0,0.0,0.0,0.0,0.0,0.0,0.0,0.0,0.0,0.0,0.0,0.0,0.0,0.0,0.0,0.0,0.0,0.0,0.0,0.0,0.0,0.0,0.0,0.0,0.0,0.0,0.0,0.0,0.0,0.0,0.0,0.0,0.0,0.0,0.0,0.0,0.0,0.0,0.0,0.0,0.0,0.0,0.0,0.0,0.0,0.0,0.0,0.0,0.0,0.0,0.0,0.0,0.0,0.0,0.0,0.0,0.0,0.0,0.0,0.0,0.0,0.0,0.0,0.0,0.0,0.0,0.0,0.0,0.0,0.0,0.0,0.0,0.0,0.0,0.0,0.0,0.0,0.0,0.0,0.0,0.0,0.0,0.0,0.0,0.0,0.0,0.0,0.0,0.0,0.0,0.0,0.0,0.0,0.0,0.0,0.0,-5.6645,-5.8291,-5.9817,-6.1214,-6.259,-6.3056,-6.2194,-6.0309,-5.8578,-5.7276,0.0,0.0,0.0,0.0,0.0,0.0,0.0,0.0,0.0,0.0,0.0,0.0,0.0,0.0,0.0,0.0,0.0,0.0,0.0,0.0,0.0,0.0,0.0,0.0,0.0,0.0,0.0,0.0,0.0,0.0,0.0,0.0,0.0,0.0,0.0,0.0,0.0,0.0,0.0,0.0,0.0,0.0,0.0,0.0,0.0,0.0,0.0,0.0,0.0,0.0,0.0,0.0,0.0,0.0,0.0,0.0,0.0,0.0,0.0,0.0,0.0,0.0,0.0,0.0,0.0,0.0,0.0,0.0,0.0,0.0,0.0,0.0,0.0,0.0,0.0,0.0,0.0,0.0,0.0,0.0,0.0,0.0,0.0,0.0,0.0,0.0,0.0,0.0,0.0,0.0,0.0,0.0,0.0,0.0,0.0,0.0,0.0,0.0,0.0,0.0,0.0,0.0,-5.584,-5.694,-5.7967,-5.9071,-6.0263,-6.0699,-5.9913,-5.7906,-5.6372,-5.5618,0.0,0.0,0.0,0.0,0.0,0.0,0.0,0.0,0.0,0.0,0.0,0.0,0.0,0.0,0.0,0.0,0.0,0.0,0.0,0.0,0.0,0.0,0.0,0.0,0.0,0.0,0.0,0.0,0.0,0.0,0.0,0.0,0.0,0.0,0.0,0.0,0.0,0.0,0.0,0.0,0.0,0.0,0.0,0.0,0.0,0.0,0.0,0.0,0.0,0.0,0.0,0.0,0.0,0.0,0.0,0.0,0.0,0.0,0.0,0.0,-5.8326,-5.8194,0.0,0.0,0.0,0.0,0.0,0.0,0.0,0.0,0.0,0.0,0.0,0.0,0.0,0.0,0.0,0.0,0.0,0.0,0.0,0.0,0.0,0.0,0.0,0.0,0.0,0.0,0.0,0.0,0.0,0.0,0.0,0.0,0.0,0.0,0.0,0.0,0.0,0.0,0.0,0.0,-5.5444,-5.647,-5.7545,-5.9024,-5.9472,-5.9541,-5.9394,-5.7183,-5.5536,-5.472,-5.2716,0.0,0.0,0.0,0.0,0.0,0.0,0.0,0.0,0.0,0.0,0.0,0.0,0.0,0.0,0.0,0.0,0.0,0.0,0.0,0.0,0.0,0.0,0.0,0.0,0.0,0.0,0.0,0.0,0.0,0.0,0.0,0.0,0.0,0.0,0.0,0.0,0.0,0.0,0.0,0.0,0.0,0.0,0.0,0.0,0.0,0.0,0.0,0.0,0.0,0.0,0.0,0.0,0.0,0.0,0.0,0.0,0.0,0.0,0.0,-6.0346,-5.8951,0.0,0.0,0.0,0.0,0.0,0.0,0.0,0.0,0.0,0.0,0.0,0.0,0.0,0.0,0.0,0.0,0.0,0.0,0.0,0.0,0.0,0.0,0.0,0.0,0.0,0.0,0.0,0.0,0.0,0.0,0.0,0.0,0.0,0.0,0.0,0.0,0.0,0.0,0.0,0.0,-5.4736,-5.539,-5.6271,-5.7863,-5.84,-5.8621,-5.8621,-5.6748,-5.5097,-5.3922,-5.2072,0.0,0.0,0.0,0.0,0.0,0.0,0.0,0.0,0.0,0.0,0.0,0.0,0.0,0.0,0.0,0.0,0.0,0.0,0.0,0.0,0.0,0.0,0.0,0.0,0.0,0.0,0.0,0.0,0.0,0.0,0.0,0.0,0.0,0.0,0.0,0.0,0.0,0.0,0.0,0.0,0.0,0.0,0.0,0.0,0.0,0.0,0.0,0.0,0.0,0.0,0.0,0.0,0.0,-6.8788,-6.9229,-6.8935,-6.8788,-6.8779,-6.8495,-6.4163,-6.1447,-6.0065,-6.0603,0.0,0.0,0.0,0.0,0.0,0.0,0.0,0.0,0.0,0.0,0.0,0.0,0.0,0.0,0.0,0.0,0.0,0.0,0.0,0.0,0.0,0.0,-5.7813,-5.796,-5.7409,-5.6748,-5.6638,0.0,0.0,0.0,0.0,0.0,0.0,0.0,0.0,0.0,0.0,0.0,-5.4142,-5.4509,-5.5244,-5.6859,-5.7593,-5.7997,-5.7997,-5.6528,-5.495,-5.3518,-5.1793,-5.0178,0.0,0.0,0.0,0.0,0.0,0.0,0.0,0.0,0.0,0.0,0.0,0.0,0.0,0.0,0.0,0.0,0.0,0.0,0.0,0.0,0.0,0.0,0.0,0.0,0.0,0.0,0.0,0.0,0.0,0.0,0.0,0.0,-5.9441,-6.0162,0.0,0.0,0.0,0.0,0.0,0.0,0.0,0.0,0.0,0.0,0.0,0.0,0.0,-6.6512,-6.8238,-7.1138,-7.2312,-7.1725,-7.4661,-7.5322,-7.3927,-7.323,-7.2899,-7.2789,-7.077,0.0,-6.3392,-6.2768,0.0,0.0,0.0,0.0,0.0,0.0,0.0,0.0,0.0,0.0,0.0,0.0,0.0,0.0,0.0,0.0,0.0,0.0,0.0,0.0,0.0,0.0,-5.7152,-5.7813,-5.7409,-5.6602,-5.5904,-5.5133,-5.4326,-5.3518,-5.3188,-5.2821,0.0,0.0,0.0,0.0,0.0,0.0,-5.4289,-5.4987,-5.6051,-5.7666,-5.7923,-5.7997,-5.7997,-5.6528,-5.5207,-5.4289,-5.2087,-5.0692,-5.0472,-4.9187,0.0,0.0,0.0,0.0,0.0,0.0,0.0,0.0,0.0,0.0,0.0,0.0,0.0,0.0,0.0,0.0,0.0,0.0,0.0,0.0,0.0,0.0,0.0,0.0,0.0,0.0,0.0,0.0,0.0,-6.097,-6.2046,-6.0603,-6.1337,-6.1227,0.0,0.0,0.0,0.0,0.0,0.0,0.0,0.0,0.0,-6.754,-7.0403,-7.2679,-7.4331,-7.6644,-7.7855,-7.7965,-7.8919,-7.9029,-7.8295,-7.7488,-7.6864,-7.6423,-7.5726,-7.3156,-6.9265,-6.6145,-6.3172,-6.0419,0.0,0.0,0.0,0.0,-5.829,-5.8621,-5.8143,-5.829,-5.8621,-5.8143,0.0,0.0,0.0,0.0,0.0,0.0,0.0,-5.517,-5.6345,-5.6748,-5.6895,-5.7262,-5.7409,-5.7005,-5.528,-5.4987,-5.4693,-5.3445,-5.2821,-5.2564,-5.2674,-5.2234,0.0,0.0,0.0,-5.216,-5.2931,-5.3739,-5.4693,-5.5868,-5.6381,-5.6638,-5.6638,-5.5574,-5.4583,-5.3775,-5.1903,-5.0618,-5.0141,-4.9407,-4.915,0.0,0.0,0.0,0.0,0.0,0.0,0.0,0.0,0.0,0.0,0.0,0.0,0.0,0.0,0.0,0.0,0.0,0.0,0.0,0.0,0.0,0.0,0.0,0.0,0.0,0.0,0.0,0.0,-6.2707,-6.409,-6.0786,-6.3319,-6.387,0.0,0.0,0.0,0.0,0.0,0.0,-6.5558,-6.8678,-7.1174,-7.276,-7.5983,-7.8369,-7.98,-8.1232,-8.2333,-8.3104,-8.2517,-8.2223,-8.2186,-8.1158,-8.0277,-7.947,-7.8883,-7.7084,-7.4258,-6.9633,-6.5815,-6.2658,-6.086,-5.9648,-5.8877,-5.8694,-5.8988,-5.9404,-5.8841,-5.8877,-5.9074,-5.851,-5.7629,-5.6602,-5.5611,0.0,0.0,0.0,0.0,-5.4693,-5.5904,-5.6492,-5.6859,-5.7079,-5.7262,-5.6895,-5.5097,-5.484,-5.462,-5.3424,-5.2711,-5.2417,-5.2821,-5.1903,0.0,-5.161,-5.1353,-5.1389,-5.2197,-5.3004,-5.3812,-5.462,-5.5244,-5.5596,-5.5596,-5.484,-5.4142,-5.3555,-5.1793,-5.0545,-4.9941,-4.95,-4.9077,-4.8636,0.0,0.0,0.0,0.0,0.0,0.0,0.0,0.0,0.0,0.0,0.0,0.0,0.0,0.0,0.0,0.0,0.0,0.0,0.0,0.0,0.0,0.0,0.0,0.0,0.0,0.0,0.0,0.0,0.0,-6.0786,-6.5301,0.0,0.0,0.0,0.0,-6.5044,-6.721,-6.8898,-6.9743,-7.2863,-7.5329,-7.6943,-8.0167,-8.2296,-8.3177,-8.4022,-8.4829,-8.56,-8.5563,-8.5563,-8.549,-8.3948,-8.2774,-8.1893,-7.958,-7.8038,-7.6796,-7.2724,-6.9155,-6.5999,-6.3576,-6.2144,-6.1337,-6.0566,-6.0309,-6.0346,-6.0309,-5.9832,-5.9184,-5.9148,-5.8084,-5.6528,-5.495,-5.4399,0.0,0.0,-5.495,-5.495,-5.7262,-5.7336,-5.7005,-5.7776,-5.6785,-5.5706,-5.5596,-5.4363,-5.3298,-5.3203,-5.3167,-5.2931,-5.2197,0.0,-5.1683,-5.0986,-5.1463,-5.2234,-5.3041,-5.3849,-5.4656,-5.5427,-5.5596,-5.5596,-5.5596,-5.484,-5.4363,-5.4326,-5.2123,-5.0765,-5.0729,-4.9224,-4.871,-4.9537,-4.8746,0.0,0.0,0.0,0.0,0.0,0.0,0.0,0.0,0.0,0.0,0.0,0.0,0.0,0.0,0.0,0.0,0.0,0.0,0.0,0.0,0.0,0.0,0.0,0.0,0.0,0.0,0.0,0.0,-6.7504,-7.1476,0.0,-6.9706,-6.9963,-7.0257,-6.9963,-7.2165,-7.4368,-7.624,-7.8919,-8.1122,-8.2737,-8.4903,-8.6187,-8.6481,-8.6775,-8.6811,-8.6554,-8.5527,-8.4499,-8.3434,-8.237,-8.1122,-7.9837,-7.8956,-7.7818,-7.6387,-7.4441,-7.1431,-6.7797,-6.5375,-6.3576,-6.2291,-6.1484,-6.1484,-6.1741,-6.0175,-5.9795,-5.9722,-5.818,-5.7276,-5.6602,-5.55,-5.517,-5.5207,-5.5522,-5.539,-5.55,-5.6859,-5.6638,-5.6088,-5.6381,-5.6014,-5.5317,-5.4289,-5.3995,-5.3812,-5.3298,-5.3203,-5.3115,-5.2821,-5.2344,-5.1903,-5.161,-5.183,-5.2087,-5.238,-5.3151,-5.3739,-5.4032,-5.4069,-5.4069,-5.4069,-5.3335,-5.2858,-5.2858,-5.0545,-4.9187,-4.9187,-4.7609,-4.6911,-4.7205,-4.6911,-4.7278,0.0,0.0,0.0,0.0,0.0,0.0,0.0,0.0,0.0,0.0,0.0,0.0,0.0,0.0,0.0,0.0,0.0,0.0,0.0,0.0,0.0,0.0,0.0,0.0,0.0,-6.7614,-7.1615,-7.1329,-7.6313,-7.8516,-7.5249,-7.5432,-7.5652,-7.5395,-7.7341,-7.9396,-8.1305,-8.3471,-8.5123,-8.6151,-8.7509,-8.7949,-8.7399,-8.7655,-8.7252,-8.6187,-8.538,-8.4022,-8.215,-8.1379,-8.0131,-7.8552,-7.8002,-7.7121,-7.6019,-7.4955,-7.2606,-6.9522,-6.7357,-6.5338,-6.3576,-6.2732,-6.2585,-6.2487,-6.0358,-5.9942,-6.0052,-5.7923,-5.7189,-5.7042,-5.6235,-5.5794,-5.5596,-5.5596,-5.539,-5.539,-5.6198,-5.5978,-5.5596,-5.5596,-5.539,-5.4913,-5.3849,-5.3812,-5.3849,-5.3298,-5.3203,-5.3115,-5.2858,-5.2344,-5.1977,-5.1977,-5.1977,-5.2087,-5.238,-5.2858,-5.3203,-5.3203,-5.3203,-5.3115,-5.2821,-5.2784,-5.2454,-5.1646,-5.0068,-4.8893,-4.8343,-4.7278,-4.6728,-4.6728,-4.6434,-4.6691,-4.7498,0.0,0.0,0.0,0.0,0.0,0.0,0.0,0.0,0.0,0.0,0.0,0.0,0.0,0.0,0.0,0.0,0.0,0.0,0.0,0.0,0.0,0.0,0.0,-6.3037,-6.9963,-7.4221,-7.199,-7.9433,-8.2884,-7.8117,-8.0534,-8.2039,-8.1269,-8.2627,-8.3875,-8.4682,-8.6187,-8.7031,-8.7031,-8.7766,-8.7399,-8.5857,-8.6591,-8.6151,-8.4572,-8.5306,-8.4425,-8.2039,-8.1269,-8.0057,-7.8442,-7.679,-7.6056,-7.5873,-7.4294,-7.2679,-7.1064,-6.9522,-6.743,-6.5264,-6.442,-6.3503,-6.2487,-6.0933,-6.0382,-6.0089,-5.851,-5.7997,-5.785,-5.7079,-5.6308,-5.5647,-5.5647,-5.506,-5.4656,-5.539,-5.5596,-5.5537,-5.5537,-5.495,-5.4363,-5.4363,-5.3739,-5.3203,-5.3203,-5.3203,-5.2968,-5.216,-5.205,-5.205,-5.205,-5.205,0.0,-5.3093,-5.3203,-5.3203,-5.3203,-5.3203,-5.2931,-5.2087,-5.3408,-5.3261,-5.0912,-5.0655,-4.9884,-4.8269,-4.8159,-4.8159,-4.8159,-4.7443,-4.6672,-4.5847,0.0,0.0,0.0,0.0,0.0,0.0,0.0,0.0,0.0,0.0,0.0,0.0,0.0,0.0,0.0,0.0,0.0,0.0,0.0,0.0,0.0,-6.453,-6.6953,-6.8715,-7.3964,-7.8626,-8.1489,-8.5527,-8.7547,-8.619,-8.6371,-8.6224,-8.5416,-8.5783,-8.6371,-8.7178,-8.7105,-8.7288,-8.7839,-8.7509,-8.7142,-8.6664,-8.6297,-8.5306,-8.3728,-8.3361,-8.1929,-7.958,-7.936,-7.8369,-7.6754,-7.6313,-7.5102,-7.345,-7.301,-7.1174,-6.8678,-6.8862,-6.7797,-6.5999,-6.4604,-6.2805,-6.1006,-6.0566,-5.9648,-5.8584,-5.8143,-5.7997,-5.796,-5.774,-5.7519,-5.7226,-5.6638,-5.6308,-5.6051,-5.5684,-5.517,-5.473,-5.473,-5.4106,-5.3555,-5.3555,-5.3371,-5.3203,-5.3203,-5.3203,-5.3151,-5.2931,-5.2858,-5.2858,-5.2858,-5.2858,-5.2968,-5.3167,-5.3203,-5.3203,-5.3203,-5.3739,-5.3739,-5.2931,-5.2197,-5.1242,-4.9921,-4.7682,-4.6177,-4.57,-4.5112,-4.4819,-4.4819,-4.5736,-4.5847,0.0,0.0,0.0,0.0,0.0,0.0,0.0,0.0,0.0,0.0,0.0,0.0,0.0,0.0,0.0,0.0,0.0,0.0,0.0,0.0,0.0,0.0,-6.7357,-7.0917,-7.4368,-7.7892,-8.1525,-8.5343,-8.7949,-8.9382,-8.9382,-8.8977,-8.839,-8.7582,-8.7509,-8.7582,-8.7692,-8.7252,-8.7215,-8.7692,-8.6921,-8.6334,-8.6004,-8.5196,-8.3985,-8.2406,-8.1929,-8.0608,-7.8589,-7.8222,-7.7341,-7.6056,-7.5395,-7.4111,-7.2459,-7.2165,-7.0293,-6.7724,0.0,0.0,0.0,0.0,-6.1924,-6.0346,-6.0015,-5.9281,-5.8437,-5.8107,-5.7997,-5.7997,-5.7997,-5.7776,-5.7336,-5.6528,-5.6051,-5.5611,-5.4803,-5.4252,-5.3922,-5.3922,-5.3555,-5.3203,-5.3203,-5.3203,-5.3203,-5.3203,-5.3203,0.0,-5.3203,-5.3203,-5.3203,-5.3203,-5.3203,-5.3203,-5.3203,-5.3203,-5.3203,-5.3203,-5.3628,-5.3592,-5.2784,-5.216,0.0,0.0,0.0,-4.592,-4.5223,-4.4745,0.0,0.0,0.0,-4.5333,-4.4195,-4.5461,0.0,0.0,-4.6929,-4.7516,0.0,0.0,0.0,0.0,0.0,0.0,0.0,0.0,0.0,0.0,0.0,0.0,0.0,0.0,0.0,0.0,-7.0403,-7.4625,-7.9507,-8.1489,-8.3361,-8.5783,-8.8059,-8.9382,-8.9382,-8.9308,-8.9014,-8.839,-8.8169,-8.7802,-8.7178,-8.7068,0.0,0.0,0.0,-8.5416,-8.4609,-8.3728,-8.2517,-8.1012,-8.0828,-7.9874,-7.8295,-7.7524,-7.668,-7.5726,-7.4221,-7.3046,-7.2165,-7.1284,-6.9486,-6.731,-6.731,-6.5852,-6.3613,-6.2144,-6.1043,-6.0162,-5.9441,0.0,0.0,-5.8217,-5.7997,-5.796,-5.7886,-5.7373,-5.6602,-5.5721,-5.495,-5.4216,-5.3408,-5.3203,-5.3203,-5.3203,-5.3203,-5.3203,-5.3203,-5.3203,-5.3203,-5.3203,-5.3203,-5.3203,-5.3203,-5.3203,-5.3203,-5.3203,-5.3203,-5.3203,-5.3203,-5.3203,-5.3203,-5.3203,-5.3277,0.0,-5.2197,-5.2637,-5.1646,-4.8636,-4.8122,-4.7241,-4.581,-4.5663,-4.5626,-4.5626,-4.5626,-4.4929,-4.3515,-4.4232,-4.5002,-4.5773,-4.6672,-4.7516,0.0,0.0,0.0,0.0,0.0,0.0,0.0,0.0,0.0,0.0,0.0,0.0,0.0,0.0,0.0,-7.0587,-7.3634,-7.7121,-8.2039,-8.3544,-8.5013,-8.7435,-8.872,-8.9382,-8.9382,-8.883,-8.8647,-8.916,-8.7986,-8.7472,-8.7949,-8.7362,-8.6701,-8.604,-8.5857,-8.5416,-8.4609,-8.3177,-8.1966,-8.0975,-7.969,0.0,-7.657,-7.6423,-7.5542,-7.4111,-7.3156,-7.1908,-7.044,-6.9009,-6.6953,-6.4787,-6.4787,-6.3686,-6.2034,-6.1704,-6.0676,-5.9404,-5.9258,-5.8804,-5.8217,-5.8033,-5.7997,-5.7886,-5.7226,-5.6932,0.0,-5.5023,-5.4509,-5.4216,-5.3408,-5.3203,-5.3203,-5.3203,-5.3203,-5.3203,-5.3203,-5.3203,-5.3203,-5.3203,-5.3203,-5.3203,-5.3203,-5.3203,-5.3203,-5.3203,-5.3203,-5.3203,-5.3203,-5.3203,-5.3203,-5.3203,-5.3775,-5.3849,-5.3041,-5.194,-5.0729,-4.9427,-4.6874,-4.5259,-4.4966,-4.4305,-4.3955,-4.3955,-4.3955,-4.3791,-4.3515,-4.3644,-4.4158,-4.4966,-4.6415,-4.7516,0.0,0.0,0.0,0.0,0.0,0.0,0.0,0.0,0.0,0.0,0.0,-6.2144,-6.3759,0.0,-6.9376,-7.2569,-7.5506,-7.8479,-8.1746,-8.3251,-8.4756,-8.6775,-8.7729,-8.8059,-8.7655,-8.8353,-8.8647,-8.8243,-8.8206,-8.7876,-8.7031,-8.6628,-8.604,-8.5233,-8.4425,-8.3801,-8.3398,-8.1415,-8.0204,-7.9764,-7.8552,-7.7304,-7.6093,-7.5689,-7.4845,-7.3634,-7.2422,-7.0991,-6.9302,-6.688,-6.5191,-6.4053,-6.3613,-6.2438,-6.0933,-6.0566,-5.9648,-5.8621,-5.8621,-5.8327,-5.7997,-5.7997,-5.7997,-5.7923,-5.7519,-5.7116,-5.6565,-5.5354,-5.4693,-5.4216,-5.3408,-5.3203,-5.3203,-5.3203,-5.3203,-5.3203,-5.3203,-5.3203,-5.3203,-5.3203,-5.3203,-5.3203,-5.3203,-5.3203,-5.3203,-5.3203,-5.3203,-5.3203,-5.3203,-5.3203,-5.3203,-5.3203,-5.3555,-5.3665,-5.3203,-5.1353,-4.9848,-4.9003,-4.6654,-4.5296,-4.5296,-4.4525,-4.4085,-4.4085,-4.3718,-4.3515,-4.3515,-4.3515,-4.4121,-4.5333,-4.614,-4.6728,0.0,0.0,0.0,0.0,0.0,0.0,0.0,-5.9465,-6.0419,-6.141,-6.3429,-6.5521,-6.7136,-6.9816,-7.2349,-7.4111,-7.69,-7.9323,-8.0791,-8.226,-8.3654,-8.4939,-8.6077,-8.6518,-8.5857,-8.7692,-8.8463,-8.7325,-8.8316,-8.8169,-8.6371,-8.6114,-8.5527,-8.4389,-8.3104,-8.2223,-8.1746,-7.9653,-7.8589,-7.8589,-7.7561,-7.6644,-7.5836,-7.5028,-7.4147,-7.312,-7.1541,-6.9853,-6.8017,-6.5411,-6.4053,-6.3539,-6.2658,-6.1447,-6.0126,-5.9588,-5.8841,-5.7997,-5.7997,-5.7997,-5.7997,-5.7997,-5.7886,-5.774,-5.7556,-5.6969,-5.6161,-5.5354,-5.4656,-5.4032,-5.335,-5.3203,-5.3203,-5.3203,-5.3203,-5.3203,-5.3203,-5.3203,-5.3203,-5.3203,-5.3203,-5.3203,-5.3203,-5.3203,-5.3203,-5.3203,-5.3203,-5.3203,-5.3203,-5.3203,-5.3203,-5.3203,-5.3203,-5.3151,-5.3004,-5.1022,-4.9444,-4.86,-4.7021,-4.614,-4.614,-4.5369,-4.4856,-4.4691,-4.4048,-4.3644,-4.3515,-4.3515,-4.4158,-4.5443,-4.5443,-4.5773,-6.0055,-5.8694,-5.8217,-5.8033,-5.8547,-5.9465,0.0,-6.2401,-6.398,-6.5485,-6.7173,-6.8862,-7.0477,-7.2239,-7.4184,-7.6503,-7.8442,-7.9984,-8.0865,-8.1782,-8.2406,-8.259,-8.4572,-8.5894,-8.5783,-8.6701,-8.7509,-8.8023,-8.7582,-8.7472,-8.7912,-8.7252,-8.5857,-8.3618,-8.3361,-8.226,-8.0094,-7.9103,-7.8589,-7.8589,-7.7011,-7.5799,-7.5028,-7.4184,-7.301,-7.1505,-6.9889,-6.7871,-6.5668,-6.5301,-6.387,-6.1777,-6.1006,-6.0126,-5.9404,-6.0052,-5.9318,-5.7997,-5.7997,-5.7997,-5.7997,-5.7997,-5.7519,-5.6822,-5.6088,-5.5317,-5.4509,-5.3702,-5.3387,-5.3314,-5.3203,-5.3203,-5.3203,-5.3203,-5.3203,-5.3203,-5.3203,-5.3203,-5.3203,-5.3203,-5.3203,-5.3203,-5.3203,-5.3203,-5.3203,-5.3203,-5.3203,-5.3203,-5.3203,-5.3203,-5.3203,-5.3203,-5.3203,-5.2931,-5.2197,-5.1242,-5.0288,-4.9407,-4.7865,-4.6966,-4.6966,-4.6214,-4.5443,-4.4709,-4.4635,-4.4195,-4.3515,-4.3515,-4.3588,-4.3772,-4.3772,-4.5296,-6.0734,-5.9318,-5.8914,-5.9869,-6.108,-6.2475,-6.409,-6.5705,-6.721,-6.8348,-7.0257,-7.2055,-7.3193,-7.4735,-7.613,-7.7127,-7.8332,-7.9213,-7.9543,-8.0277,-8.0608,-8.0167,-8.1819,-8.3361,-8.4315,-8.5563,-8.6261,-8.6114,-8.6664,-8.6554,-8.5453,-8.5086,-8.4022,-8.2076,-8.1562,-8.0608,-7.9103,-7.8259,-7.7855,-7.7855,-7.668,-7.5689,-7.4882,-7.3597,-7.1872,-6.9816,-6.8201,-6.6659,-6.5228,-6.4273,-6.2952,-6.1557,-6.1227,-6.0309,-5.9184,-5.9061,-5.8584,-5.7997,-5.7997,-5.7997,-5.7997,-5.7997,-5.7776,-5.7336,-5.6528,-5.5721,-5.4913,-5.4106,-5.3555,-5.3203,-5.3203,-5.3203,-5.3203,-5.3203,-5.3203,-5.3203,-5.3203,-5.3203,-5.3203,-5.3203,-5.3203,-5.3203,-5.3203,-5.3203,-5.3203,-5.3203,-5.3203,-5.3203,-5.3203,-5.3203,-5.3203,-5.3203,-5.3203,-5.3078,-5.2747,-5.1977,-5.1353,-5.0986,-4.9444,-4.8563,-4.8563,-4.7315,-4.6415,-4.6085,-4.5663,-4.5002,-4.4195,-4.4195,-4.4195,-4.4195,-4.4195,-4.5186,-6.0605,-5.9979,-6.0272,-6.1887,-6.3686,-6.5558,-6.7393,-6.9082,-7.0513,-7.1541,-7.3303,-7.4882,-7.5469,-7.6503,-7.7273,-7.7273,-7.8038,-7.8516,-7.8295,-7.8736,-7.8809,-7.8002,-7.8552,-7.9727,-8.153,-8.3581,-8.4572,-8.3985,-8.5233,-8.5159,-8.3177,-8.3287,-8.2553,-8.0718,-8.0094,-7.9286,-7.8259,-7.7604,-7.7163,-7.6943,-7.6166,-7.5359,-7.4515,-7.2679,-7.077,-6.8825,-6.721,-6.6035,-6.5191,-6.3759,-6.2548,-6.1557,-6.1374,-6.0419,-5.9074,-5.829,-5.7997,-5.7997,-5.7997,-5.7997,-5.796,-5.774,-5.7519,-5.7189,-5.6381,-5.5574,-5.4803,-5.4216,-5.3665,-5.3203,-5.3203,-5.3203,-5.3203,-5.3203,-5.3203,-5.3203,-5.3203,-5.3203,-5.3203,-5.3203,-5.3203,-5.3203,-5.3203,-5.3408,-5.3555,-5.3555,-5.3555,-5.3445,-5.3203,-5.3203,-5.3203,-5.3203,-5.3203,-5.3203,-5.3203,-5.2454,-5.1977,-5.1977,-5.0492,-4.961,-4.961,-4.8196,-4.7333,-4.7113,-4.6324,-4.5626,-4.5039,-4.4599,-4.4488,-4.4691,-4.4488,-4.4672,-5.9281,-6.0382,-6.1924,-6.3613,-6.5815,-6.8201,-7.0624,-7.2386,-7.4001,-7.5579,-7.6607,-7.72,-7.72,-7.7273,-7.7273,-7.7273,-7.8038,-7.8295,-7.7457,-7.7347,-7.7084,-7.6276,-7.4845,-7.4845,-7.7237,-8.0424,-8.2296,-8.226,-8.303,-8.3141,-8.226,-8.2994,-8.2296,-7.991,-7.98,-7.8993,-7.7347,-7.731,-7.6937,-7.613,-7.5322,-7.4515,-7.367,-7.1248,-6.9706,-6.8825,-6.721,-6.6035,-6.5264,-6.4383,-6.3099,-6.152,-6.075,-5.9942,-5.9074,-5.829,-5.7997,-5.7997,-5.7997,-5.7997,-5.7886,-5.7079,-5.6308,-5.55,-5.473,-5.3922,-5.3298,-5.3261,-5.3203,-5.3203,-5.3203,-5.3203,-5.3203,-5.3203,-5.3203,-5.3203,-5.3203,-5.3203,-5.3203,-5.3203,-5.3203,-5.3203,-5.3203,-5.3849,-5.4363,-5.4363,-5.4363,-5.4069,-5.3298,-5.3203,-5.3203,-5.3203,-5.3203,-5.3203,-5.3203,-5.2454,-5.1977,-5.1977,-5.0492,-4.961,-4.961,-4.8746,-4.7883,-4.7113,-4.6324,-4.5883,-4.5847,-4.4305,-4.3938,-4.4654,-4.3901,-4.3551,-6.1752,-6.3431,-6.5485,-6.8201,-7.0293,-7.2165,-7.4074,-7.5322,-7.6093,-7.6093,-7.5028,-7.3964,-7.3421,-7.3311,-7.3494,-7.4037,-7.5726,-7.7047,-7.7273,-7.7273,-7.6607,-7.4735,-7.4955,-7.4992,-7.4184,-7.7047,-7.9433,-8.0498,-8.1342,-8.1452,-8.0645,-8.0865,-8.0388,-7.9029,-7.8993,-7.8479,-7.731,-7.7273,-7.69,-7.6093,-7.4221,-7.2606,-7.1248,-6.9926,-6.8862,-6.8017,-6.6402,-6.5558,-6.5154,-6.3246,-6.1777,-6.0713,-5.9942,-5.9134,-5.8364,-5.8107,-5.7997,-5.7997,-5.7997,-5.7997,-5.7886,-5.7079,-5.6638,-5.6161,-5.4803,-5.4583,-5.4583,-5.3518,-5.3592,-5.3885,-5.3314,-5.3592,-5.3849,-5.3335,-5.3628,-5.3849,-5.3314,-5.3203,-5.3203,-5.3203,-5.3628,-5.3995,-5.3995,-5.4656,-5.5207,-5.5207,-5.5207,-5.4693,-5.335,-5.3665,-5.3812,-5.324,-5.3203,-5.3203,-5.3203,-5.2968,-5.2821,-5.2821,-5.1793,-5.0949,-5.0398,-4.9591,-4.8746,-4.7883,-4.7645,-4.7241,-4.6672,-4.5626,-4.4966,-4.4654,-4.3864,-4.3515,-6.3929,-6.6208,-6.8767,-7.1488,-7.3377,-7.4882,-7.624,-7.6717,-7.657,-7.5469,-7.356,-7.1762,-7.066,-7.022,-7.0183,-7.0697,-7.2092,-7.367,-7.5359,-7.5329,-7.4888,-7.4221,-7.4771,-7.4735,-7.3487,-7.4992,-7.6717,-7.8332,-7.9507,-7.9764,-7.8956,-7.9176,-7.8993,-7.8185,-7.8148,-7.7892,-7.731,-7.7273,-7.6754,-7.5652,-7.323,-7.1394,-7.0073,-6.9265,-6.8311,-6.7173,-6.5888,-6.5154,-6.4714,-6.2511,-6.13,-6.0713,-5.9648,-5.8854,-5.84,-5.8107,-5.7997,-5.7997,-5.7997,-5.7997,-5.7886,-5.7079,-5.6822,-5.6492,-5.4876,-5.4766,-5.4913,-5.3592,-5.3592,-5.3922,-5.3702,-5.3812,-5.3922,-5.3702,-5.3812,-5.3922,-5.3702,-5.3387,-5.335,-5.3959,-5.4252,-5.4473,-5.4766,-5.55,-5.6014,-5.6014,-5.6271,-5.5757,-5.3885,-5.4069,-5.4106,-5.3277,-5.3203,-5.3203,-5.3203,-5.3203,-5.3203,-5.3203,-5.2454,-5.1646,-5.0839,-4.9994,-4.915,-4.8343,-4.7993,-4.7736,-4.7516,-4.614,-4.5369,-4.5112,-4.4011,-4.3515,-6.5842,-6.8758,-7.1677,-7.3431,-7.5028,-7.635,-7.7053,-7.6607,-7.5506,-7.3854,-7.2129,-7.044,-6.8825,-6.7944,-6.7504,-6.765,-6.7834,-6.9045,-7.2275,-7.2092,-7.243,-7.4661,-7.4258,-7.4074,-7.4771,-7.4221,-7.4441,-7.5983,-7.7561,-7.8148,-7.7347,-7.8075,-7.8148,-7.731,-7.7273,-7.7273,-7.7273,-7.72,-7.6356,-7.4771,-7.2386,-7.0807,-6.9926,-6.9155,-6.7907,-6.6402,-6.5558,-6.4751,-6.3906,-6.2181,-6.1484,-6.13,-5.9758,-5.9148,-5.9038,-5.829,-5.7997,-5.7997,-5.7997,-5.7997,-5.7886,-5.7079,-5.6822,-5.6492,-5.4876,-5.4436,-5.4289,-5.3445,-5.324,-5.3482,-5.4216,-5.3885,-5.3592,-5.4289,-5.3922,-5.3592,-5.4326,-5.3849,-5.3775,-5.528,-5.5023,-5.4766,-5.5574,-5.6345,-5.6859,-5.6859,-5.7519,-5.7152,-5.4766,-5.4509,-5.4216,-5.3371,-5.324,-5.3261,-5.3203,-5.3203,-5.3203,-5.3203,-5.2491,-5.1683,-5.0875,-5.0031,-4.9187,-4.8379,-4.7553,-4.7553,-4.8306,-4.5938,-4.5223,-4.592,-4.4305,-4.3534,-7.0449,-7.2851,-7.4911,-7.6089,-7.6717,-7.69,-7.6497,-7.5322,-7.367,-7.1468,-6.8311,-6.5411,-6.3759,-6.3796,-6.4861,-6.7283,-6.9706,-7.2386,-7.5652,-7.5879,-7.5549,-7.4992,-7.5249,-7.5102,-7.4111,-7.4882,-7.5652,-7.6056,-7.6497,-7.69,-7.7273,-7.7494,-7.753,-7.731,-7.7273,-7.7273,-7.7273,-7.6099,-7.4698,-7.3083,-7.1284,-6.9669,-6.8274,-6.7467,-6.6549,-6.5521,-6.409,-6.3319,-6.2952,-6.075,-5.9832,-5.9698,-5.8694,-5.8327,-5.829,-5.807,-5.7997,-5.7997,-5.7997,-5.7997,-5.7886,-5.7079,-5.6822,-5.6492,-5.4876,-5.4803,-5.4987,-5.3592,-5.4069,-5.4913,-5.4509,-5.5133,-5.5794,-5.539,-5.5611,-5.5794,-5.539,-5.5133,-5.5097,-5.5522,-5.5904,-5.6455,-5.7262,-5.7556,-5.7703,-5.7703,-5.7886,-5.7336,-5.5537,-5.5831,-5.5647,-5.4252,-5.4106,-5.3849,-5.324,-5.3203,-5.3203,-5.3203,-5.3004,-5.2527,-5.172,-5.0912,-5.0105,-4.928,-4.8416,-4.8122,-4.8306,-4.7076,-4.6599,-4.6746,-4.5149,-4.4378,-7.3531,-7.5371,-7.684,-7.7208,-7.7017,-7.6387,-7.4882,-7.3266,-7.1211,-6.8091,-6.5081,-6.2511,-6.086,-6.0933,-6.2071,-6.4604,-6.7136,-7.0183,-7.4081,-7.4962,-7.5395,-7.5879,-7.635,-7.6276,-7.5359,-7.5799,-7.624,-7.6607,-7.6644,-7.6827,-7.7273,-7.7273,-7.7273,-7.7273,-7.7273,-7.7127,-7.679,-7.5175,-7.3744,-7.2496,-7.0881,-6.9265,-6.765,-6.688,-6.5852,-6.4714,-6.3392,-6.2622,-6.2108,-6.0028,-5.9184,-5.9111,-5.8327,-5.7997,-5.7997,-5.7997,-5.7997,-5.7997,-5.7997,-5.7997,-5.7923,-5.7483,-5.7336,-5.7079,-5.5831,-5.5757,-5.5868,-5.462,-5.4913,-5.5574,-5.5464,-5.5868,-5.6235,-5.6161,-5.6198,-5.6235,-5.6161,-5.5831,-5.5684,-5.6051,-5.6785,-5.7483,-5.7923,-5.7997,-5.7997,-5.7997,-5.7997,-5.7666,-5.6748,-5.6748,-5.6198,-5.4583,-5.4399,-5.4069,-5.3298,-5.3203,-5.3203,-5.3203,-5.3203,-5.2858,-5.2013,-5.1242,-5.0398,-4.961,-4.8746,-4.8306,-4.8306,-4.748,-4.7113,-4.7076,-4.581,-4.5223,-7.5746,-7.701,-7.81,-7.7554,-7.6594,-7.5175,-7.2863,-7.0844,-6.8385,-6.4567,-6.2438,-6.0823,-5.9294,-5.9111,-5.9845,-6.1924,-6.3539,-6.6292,-7.1248,-7.2532,-7.4074,-7.6943,-7.7273,-7.7273,-7.7273,-7.668,-7.657,-7.7237,-7.72,-7.7163,-7.7273,-7.7273,-7.7237,-7.7127,-7.7017,-7.6607,-7.5799,-7.4294,-7.3083,-7.2165,-7.055,-6.8935,-6.7357,-6.6549,-6.5301,-6.3723,-6.2879,-6.2034,-6.1153,-5.9685,-5.9038,-5.8964,-5.8253,-5.7997,-5.7997,-5.7997,-5.7997,-5.7997,-5.7997,-5.7997,-5.7997,-5.7997,-5.7997,-5.785,-5.7042,-5.6822,-5.6638,-5.5831,-5.5706,-5.5904,-5.6638,-5.6345,-5.6088,-5.6785,-5.6418,-5.6088,-5.6822,-5.6418,-5.6124,-5.6822,-5.7519,-5.7997,-5.7997,-5.7997,-5.7997,-5.7997,-5.7997,-5.7997,-5.7997,-5.7409,-5.6345,-5.473,-5.4546,-5.4179,-5.3277,-5.3203,-5.3203,-5.3203,-5.3203,-5.2894,-5.2197,-5.1279,-5.0472,-4.9757,-4.8783,-4.8306,-4.8306,-4.759,-4.7259,-4.7223,-4.6434,-4.6067,-7.8199,-7.9161,-7.9736,-7.8448,-7.6113,-7.367,-7.1908,-6.8715,-6.5338,-6.2585,-6.075,-5.9355,-5.8364,-5.8767,-6.0639,-6.4934,-6.6439,-6.8972,-7.4478,-7.5395,-7.5946,-7.7127,-7.7273,-7.7273,-7.7273,-7.7163,-7.7127,-7.7273,-7.668,-7.6607,-7.7237,-7.7273,-7.7011,-7.635,-7.5652,-7.4955,-7.4111,-7.3193,-7.1982,-7.0513,-6.8862,-6.7283,-6.5705,-6.4861,-6.3613,-6.1998,-6.119,-6.0382,-5.9515,-5.8621,-5.8217,-5.818,-5.8033,-5.7997,-5.7997,-5.7997,-5.7997,-5.7997,-5.7997,-5.7997,-5.7997,-5.7997,-5.7997,-5.785,-5.7042,-5.6822,-5.6638,-5.5831,-5.6088,-5.6638,-5.6748,-5.7189,-5.7629,-5.7776,-5.7703,-5.7629,-5.7776,-5.7666,-5.7629,-5.7776,-5.7886,-5.7997,-5.7997,-5.7997,-5.7997,-5.7997,-5.7997,-5.7997,-5.7997,-5.7886,-5.7189,-5.5537,-5.539,-5.4803,-5.3314,-5.3203,-5.3203,-5.3203,-5.3203,-5.3151,-5.3004,-5.1573,-5.0729,-5.0582,-4.9077,-4.8306,-4.8306,-4.8159,-4.8086,-4.8086,-4.7259,-4.6892,-8.0258,-8.0593,-8.0731,-7.9728,-7.6487,-7.2886,-7.0469,-6.6835,-6.3209,-6.0309,-5.9098,-5.8474,-5.807,-5.8657,-6.0248,-6.3429,-6.464,-6.699,-7.2239,-7.334,-7.4368,-7.6423,-7.7047,-7.7273,-7.7273,-7.7273,-7.7127,-7.6717,-7.6313,-7.6276,-7.6644,-7.6276,-7.5873,-7.5506,-7.4698,-7.3891,-7.3083,-7.2275,-7.1064,-6.9449,-6.8274,-6.6843,-6.5264,-6.4457,-6.3392,-6.2181,-6.0933,-6.0199,-5.9722,-5.851,-5.7997,-5.7997,-5.7997,-5.7997,-5.7997,-5.7997,-5.7997,-5.7997,-5.7997,-5.7997,-5.7997,-5.7997,-5.7997,-5.7923,-5.7556,-5.7409,-5.7336,-5.6969,-5.7116,-5.7409,-5.7409,-5.7703,-5.7997,-5.7997,-5.7997,-5.7997,-5.7997,-5.7997,-5.7997,-5.7997,-5.7997,-5.7997,-5.7997,-5.7997,-5.7997,-5.7997,-5.7997,-5.7997,-5.7997,-5.7997,-5.7556,-5.6345,-5.5831,-5.5097,-5.3922,-5.3445,-5.3203,-5.3203,-5.3203,-5.3203,-5.3203,-5.205,-5.1426,-5.1426,-5.0215,-4.9407,-4.8967,-4.8967,-4.8746,-4.8306,-4.7883,-4.77,-8.1476,-8.1366,-8.1266,-8.0596,-7.6578,-7.2046,-6.9248,-6.5245,-6.1371,-5.857,-5.7997,-5.7997,-5.7997,-5.851,-5.9538,-6.13,-6.2144,-6.4273,-6.9155,-7.055,-7.2239,-7.5469,-7.657,-7.709,-7.7273,-7.7273,-7.6974,-7.6166,-7.5763,-7.5652,-7.5836,-7.4918,-7.4404,-7.4404,-7.345,-7.2642,-7.1982,-7.1211,-7.0146,-6.8898,-6.7724,-6.6512,-6.5264,-6.4273,-6.3246,-6.2218,-6.097,-6.0199,-5.9795,-5.851,-5.7997,-5.7997,-5.7997,-5.7997,-5.7997,-5.7997,-5.7997,-5.7997,-5.7997,-5.7997,-5.7997,-5.7997,-5.7997,-5.7997,-5.7997,-5.7997,-5.7997,-5.7997,-5.7997,-5.7997,-5.7997,-5.7997,-5.7997,-5.7997,-5.7997,-5.7997,-5.7997,-5.7997,-5.7997,-5.7997,-5.7997,-5.7997,-5.7997,-5.7997,-5.7997,-5.7997,-5.7997,-5.7997,-5.7997,-5.7997,-5.7776,-5.7116,-5.6161,-5.5244,-5.4473,-5.3665,-5.3203,-5.3203,-5.3203,-5.3203,-5.3203,-5.2417,-5.1977,-5.1977,-5.1206,-5.0472,-4.9867,-4.9684,-4.9243,-4.8563,-4.8379,-4.8306,-8.1122,-8.128,-8.1193,-8.0371,-7.5408,-7.0385,-6.8929,-6.4227,-5.9764,-5.8295,-5.7997,-5.7997,-5.7997,-5.807,-5.8877,-6.1227,-6.1667,-6.3429,-6.8311,-6.9706,-7.1394,-7.4625,-7.5726,-7.6497,-7.7237,-7.7273,-7.6974,-7.6166,-7.4735,-7.4258,-7.4992,-7.356,-7.2716,-7.2716,-7.1211,-7.0403,-7.033,-6.9522,-6.9045,-6.8862,-6.6623,-6.5448,-6.5264,-6.3649,-6.2071,-6.0603,-6.0456,-5.9575,-5.8217,-5.807,-5.7997,-5.7997,-5.7997,-5.7997,-5.7997,-5.7997,-5.7997,-5.7997,-5.7997,-5.7997,-5.7997,-5.7997,-5.7997,-5.7997,-5.7997,-5.7997,-5.7997,-5.7997,-5.7997,-5.7997,-5.7997,-5.7997,-5.7997,-5.7997,-5.7997,-5.7997,-5.7997,-5.7997,-5.7997,-5.7997,-5.7997,-5.7997,-5.7997,-5.7997,-5.7997,-5.7997,-5.7997,-5.7997,-5.7997,-5.7997,-5.796,-5.7886,-5.6528,-5.5244,-5.4473,-5.3665,-5.3203,-5.3203,-5.3203,-5.3203,-5.3203,-5.2417,-5.1977,-5.1977,-5.1206,-5.0765,-5.0692,-4.9978,-4.9574,-4.9463,-4.8673,-4.8306,-8.0669,-8.1502,-8.1751,-8.0907,-7.5627,-7.0242,-6.8738,-6.3792,-5.919,-5.8189,-5.7997,-5.7997,-5.7997,-5.7997,-5.829,-5.9281,-5.9024,-6.0089,-6.3943,-6.4787,-6.6733,-7.1468,-7.2716,-7.4111,-7.6387,-7.6166,-7.5322,-7.4037,-7.2899,-7.2422,-7.2716,-7.2569,-7.2275,-7.1798,-7.1174,-7.0367,-6.9376,-6.8568,-6.8164,-6.8128,-6.5742,-6.4824,-6.5264,-6.3551,-6.2181,-6.108,-6.0603,-5.9758,-5.8694,-5.8217,-5.7997,-5.7997,-5.7997,-5.7997,-5.7997,-5.7997,-5.7997,-5.7997,-5.7997,-5.7997,-5.7997,-5.7997,-5.7997,-5.7997,-5.7997,-5.7997,-5.7997,-5.7997,-5.7997,-5.7997,-5.7997,-5.7997,-5.7997,-5.7997,-5.7997,-5.7997,-5.7997,-5.7997,-5.7997,-5.7997,-5.7997,-5.7997,-5.7997,-5.7997,-5.7997,-5.7997,-5.7997,-5.7997,-5.7997,-5.7997,-5.7997,-5.7997,-5.7005,-5.6198,-5.5868,-5.4656,-5.3922,-5.3922,-5.3482,-5.3203,-5.3203,-5.2894,-5.2711,-5.2711,-5.2417,-5.2013,-5.1499,-5.0692,-5.0068,-4.9574,-4.871,-4.8306,-7.8977,-8.0554,-8.1439,-8.0862,-7.5608,-7.0176,-6.8641,-6.3493,-5.8864,-5.8153,-5.7997,-5.7997,-5.7997,-5.7997,-5.7997,-5.7997,-5.7519,-5.8107,-6.086,-6.1447,-6.3356,-6.8128,-6.9412,-7.1138,-7.4368,-7.4588,-7.4074,-7.2936,-7.1908,-7.1293,-7.1293,-7.1615,-7.1541,-7.0954,-7.0477,-6.9706,-6.8568,-6.776,-6.7357,-6.732,-6.5118,-6.4383,-6.4897,-6.3209,-6.1998,-6.119,-6.0382,-5.9612,-5.8804,-5.8217,-5.7997,-5.7997,-5.7997,-5.7997,-5.7997,-5.7997,-5.7997,-5.7997,-5.7997,-5.7997,-5.7997,-5.7997,-5.7997,-5.7997,-5.7997,-5.7997,-5.7997,-5.7997,-5.7997,-5.7997,-5.7997,-5.7997,-5.7997,-5.7997,-5.7997,-5.7997,-5.7997,-5.7997,-5.7997,-5.7997,-5.7997,-5.7997,-5.7997,-5.7997,-5.7997,-5.7997,-5.7997,-5.7997,-5.7997,-5.7997,-5.7997,-5.7997,-5.7483,-5.7079,-5.6822,-5.5317,-5.4399,-5.4399,-5.3665,-5.3203,-5.3203,-5.3203,-5.3203,-5.3203,-5.3203,-5.2931,-5.2344,-5.1536,-5.0729,-4.9941,-4.9077,-4.8563,-7.5592,-7.79,-7.9823,-7.9823,-7.4948,-6.9849,-6.8603,-6.331,-5.8549,-5.8097,-5.7997,-5.7997,-5.7997,-5.7997,-5.7997,-5.7997,-5.7997,-5.8547,-6.0199,-6.108,-6.2511,-6.5044,-6.6072,-6.7797,-7.1064,-7.2789,-7.3707,-7.367,-7.2202,-7.1293,-7.1293,-7.055,-7.011,-7.011,-6.8568,-6.7724,-6.7687,-6.6916,-6.6512,-6.6476,-6.4861,-6.409,-6.4053,-6.2365,-6.1153,-6.0382,-5.9551,-5.8767,-5.7997,-5.7997,-5.7997,-5.7997,-5.7997,-5.7997,-5.7997,-5.7997,-5.7997,-5.7997,-5.7997,-5.7997,-5.7997,-5.7997,-5.7997,-5.7997,-5.7997,-5.7997,-5.7997,-5.7997,-5.7997,-5.7997,-5.7997,-5.7997,-5.7997,-5.7997,-5.7997,-5.7997,-5.7997,-5.7997,-5.7997,-5.7997,-5.7997,-5.7997,-5.7997,-5.7997,-5.7997,-5.7997,-5.7997,-5.7997,-5.7997,-5.7997,-5.7997,-5.7997,-5.7997,-5.7666,-5.6859,-5.5317,-5.4399,-5.4399,-5.3665,-5.3203,-5.3203,-5.3203,-5.3203,-5.3203,-5.3203,-5.3203,-5.3188,-5.238,-5.1573,-5.0765,-4.9978,-4.9114,-7.1091,-7.2668,-7.3591,-7.3014,-6.9588,-6.6043,-6.5047,-6.1379,-5.8186,-5.8042,-5.7997,-5.7997,-5.7997,-5.7997,-5.7997,-5.7997,-5.7997,-5.818,-5.8694,-5.9942,-6.1887,-6.4934,-6.8935,-7.1615,-7.2092,-7.3083,-7.301,-7.1358,-7.077,-7.0257,-6.9706,-6.8898,-6.8715,-6.9265,-6.8788,-6.7981,-6.688,-6.6072,-6.5705,-6.5668,-6.4016,-6.3209,-6.3172,-6.2071,-6.086,-5.9551,-5.9294,-5.8767,-5.7997,-5.7997,-5.7997,-5.7997,-5.7997,-5.7997,-5.7997,-5.7997,-5.7997,-5.7997,-5.7997,-5.7997,-5.7997,-5.7997,-5.7997,-5.7997,-5.7997,-5.7997,-5.7997,-5.7997,-5.7997,-5.7997,-5.7997,-5.7997,-5.7997,-5.7997,-5.7997,-5.7997,-5.7997,-5.7997,-5.7997,-5.7997,-5.7997,-5.7997,-5.7997,-5.7997,-5.7997,-5.7997,-5.7997,-5.7997,-5.7997,-5.7997,-5.7997,-5.7997,-5.7997,-5.7886,-5.7629,-5.6161,-5.5207,-5.5207,-5.3959,-5.3203,-5.3203,-5.3203,-5.3203,-5.3203,-5.3203,-5.3203,-5.3203,-5.238,-5.1279,-4.9978,-4.9114,-4.8563,-6.7475,-6.9187,-7.0062,-6.9563,-6.6802,-6.3991,-6.3144,-6.0396,-5.7997,-5.7997,-5.7997,-5.7997,-5.7997,-5.7997,-5.7997,-5.7997,-5.7997,-5.7997,-5.7997,-5.9391,-6.1374,-6.4053,-6.8568,-7.1248,-7.0734,-7.1688,-7.1835,-7.066,-7.0,-6.9302,-6.8495,-6.7944,-6.765,-6.754,-6.7834,-6.7357,-6.6072,-6.5264,-6.4677,-6.4321,-6.3294,-6.245,-6.1887,-6.1374,-6.0419,-5.9184,-5.8854,-5.8474,0.0,-5.7997,-5.7997,-5.7997,-5.7997,-5.7997,-5.7997,-5.7997,-5.7997,-5.7997,-5.7997,-5.7997,-5.7997,-5.7997,-5.7997,-5.7997,-5.7997,-5.7997,-5.7997,-5.7997,-5.7997,-5.7997,-5.7997,-5.7997,-5.7997,-5.7997,-5.7997,-5.7997,-5.7997,-5.7997,-5.7997,-5.7997,-5.7997,-5.7997,-5.7997,-5.7997,-5.7997,-5.7997,-5.7997,-5.7997,-5.7997,-5.7997,-5.7997,-5.7997,-5.7997,-5.7997,-5.7997,-5.6528,-5.5721,-5.6014,-5.4252,-5.3314,-5.3665,-5.3371,-5.3203,-5.3203,-5.3203,-5.3203,-5.3203,-5.238,-5.1463,-5.0492,-4.9334,-4.8783,0.0,-6.6921,-6.8384,-6.8384,-6.5861,-6.3206,-6.24,-6.0026,0.0,-5.7997,-5.7997,-5.7997,-5.7997,-5.7997,-5.7997,-5.7997,-5.7997,-5.7997,-5.7997,-5.9538,-6.1263,-6.2805,-6.5852,-6.7834,-6.7714,-6.9155,-7.0403,-7.1101,-6.9706,-6.8458,-6.765,-6.754,-6.6806,-6.5264,-6.5925,-6.5962,-6.5228,-6.442,-6.3576,-6.2732,-6.2732,-6.1887,-6.0309,-6.0382,-5.9942,-5.9074,-5.8327,-5.7997,-5.7997,-5.7997,-5.7997,-5.7997,-5.7997,-5.7997,-5.7997,-5.7997,-5.7997,-5.7997,-5.7997,-5.7997,-5.7997,-5.7997,-5.7997,-5.7997,-5.7997,-5.7997,-5.7997,-5.7997,-5.7997,-5.7997,-5.7997,-5.7997,-5.7997,-5.7997,-5.7997,-5.7997,-5.7997,-5.7997,-5.7997,-5.7997,-5.7997,-5.7997,-5.7997,-5.7997,-5.7997,-5.7997,-5.7997,-5.7997,-5.7997,-5.7997,-5.7997,-5.7997,-5.7997,-5.7997,-5.7997,-5.6565,-5.5978,-5.6675,-5.4583,-5.3628,-5.4363,-5.3628,-5.3203,-5.3277,-5.3203,-5.3203,-5.3203,-5.238,-5.1977,-5.194,-5.0345,-4.961,-6.1781,0.0,-6.2192,-6.2192,-6.1047,-5.9834,0.0,-5.8776,-5.7997,-5.7997,-5.7997,-5.7997,-5.7997,-5.7997,-5.7997,-5.7997,-5.7997,-5.7997,-5.7997,-6.1006,-6.3613,-6.4604,-6.7577,-6.9045,-6.7824,-6.9155,-6.9926,-6.9522,-6.8531,-6.7614,-6.6806,-6.6219,-6.5411,-6.442,-6.4567,-6.4567,-6.4383,-6.3539,-6.2695,-6.1887,-6.1887,-6.1043,-5.9478,-6.0126,-5.9648,-5.8253,-5.807,-5.7997,-5.7997,-5.7997,-5.7997,-5.7997,-5.7997,-5.7997,-5.7997,-5.7997,-5.7997,-5.7997,-5.7997,-5.7997,-5.7997,-5.7997,-5.7997,-5.7997,-5.7997,-5.7997,-5.7997,-5.7997,-5.7997,-5.7997,-5.7997,-5.7997,-5.7997,-5.7997,-5.7997,-5.7997,-5.7997,-5.7997,-5.7997,-5.7997,-5.7997,-5.7997,-5.7997,-5.7997,-5.7997,-5.7997,-5.7997,-5.7997,-5.7997,-5.7997,-5.7997,-5.7997,-5.7997,-5.7997,-5.7997,-5.7079,-5.6345,-5.5904,-5.4766,-5.4216,-5.4399,-5.3628,-5.3482,-5.4106,-5.3518,-5.3203,-5.3203,-5.238,-5.1977,-5.194,-5.0345,-4.961,-6.0781,-6.0311,-5.9792,-5.9792,-5.9065,-5.8375,-5.8375,-5.8172,-5.7997,-5.7997,-5.7997,-5.7886,-5.7519,-5.7446,-5.7446,-5.7446,-5.7446,-5.785,-5.8951,-6.1006,-6.3135,-6.5081,-6.7173,-6.8385,-6.8238,-6.8348,-6.8421,-6.8348,-6.7247,-6.6256,-6.5448,-6.5338,-6.4751,-6.3539,-6.387,-6.3906,-6.3503,-6.2658,-6.1851,-6.1043,-6.1043,-6.0199,-5.8694,-5.9501,-5.9171,-5.7997,-5.7997,-5.7997,-5.7997,-5.7997,-5.7997,-5.7997,-5.7997,-5.7997,-5.7997,-5.7997,-5.7997,-5.7997,-5.7997,-5.7997,-5.7997,-5.7997,-5.7997,-5.7997,-5.7997,-5.7997,-5.7997,-5.7997,-5.7997,-5.7997,-5.7997,-5.7997,-5.7997,-5.7997,-5.7997,-5.7997,-5.7997,-5.7997,-5.7997,-5.7997,-5.7997,-5.7997,-5.7997,-5.7997,-5.7997,-5.7997,-5.7997,-5.7997,-5.7997,-5.7997,-5.7997,-5.7997,-5.7997,-5.7997,-5.7997,-5.7593,-5.7152,-5.6712,-5.5611,-5.5133,-5.55,-5.473,-5.4326,-5.4399,-5.3628,-5.3203,-5.3203,-5.2747,-5.2564,-5.2527,-5.1279,-5.0508,-6.0722,-6.0074,-5.9389,-5.9389,-5.8676,-5.7997,-5.7997,-5.7997,-5.7997,-5.7997,-5.7997,-5.774,-5.6969,-5.6822,-5.6822,-5.6822,-5.7005,-5.8033,-6.0419,-6.0786,-6.1851,-6.4787,-6.5925,-6.6953,-6.8054,-6.7173,-6.6733,-6.7283,-6.5962,-6.4824,-6.4127,-6.464,-6.4273,-6.2817,-6.3392,-6.3356,-6.2622,-6.1814,-6.1006,-6.0236,-6.0236,-5.9428,-5.8033,-5.8817,-5.8767,-5.7997,-5.7997,-5.7997,-5.7997,-5.7997,-5.7997,-5.7997,-5.7997,-5.7997,-5.7997,-5.7997,-5.7997,-5.7997,-5.7997,-5.7997,-5.7997,-5.7997,-5.7997,-5.7997,-5.7997,-5.7997,-5.7997,-5.7997,-5.7997,-5.7997,-5.7997,-5.7997,-5.7997,-5.7997,-5.7997,-5.7997,-5.7997,-5.7997,-5.7997,-5.7997,-5.7997,-5.7997,-5.7997,-5.7997,-5.7997,-5.7997,-5.7997,-5.7997,-5.7997,-5.7997,-5.7997,-5.7997,-5.7997,-5.7997,-5.7997,-5.7997,-5.7997,-5.7997,-5.6602,-5.6014,-5.6602,-5.5941,-5.5207,-5.4436,-5.3628,-5.3203,-5.3203,-5.3203,-5.3203,-5.3167,-5.238,-5.161,-6.0324,-5.9823,-5.9389,-5.9389,-5.8676,-5.7997,-5.7997,-5.7997,-5.7997,-5.7997,-5.7997,-5.774,-5.6969,-5.6822,-5.6822,-5.6822,-5.7937,-5.9661,-6.2083,-6.2438,-6.2879,-6.4127,-6.5595,-6.6072,-6.4934,-6.5852,-6.6256,-6.5705,-6.4824,-6.4237,-6.409,-6.3539,-6.3074,-6.278,-6.2254,-6.1924,-6.1777,-6.1006,-6.0199,-5.9368,-5.9368,-5.8914,-5.8033,-5.8817,-5.8767,-5.7997,-5.7997,-5.7997,-5.7997,-5.7997,-5.7997,-5.7997,-5.7997,-5.7997,-5.7997,-5.7997,-5.7997,-5.7997,-5.7997,-5.7997,-5.7997,-5.7997,-5.7997,-5.7997,-5.7997,-5.7997,-5.7997,-5.7997,-5.7997,-5.7997,-5.7997,-5.7997,-5.7997,-5.7997,-5.7997,-5.7997,-5.7997,-5.7997,-5.7997,-5.7997,-5.7997,-5.7997,-5.7997,-5.7997,-5.7997,-5.7997,-5.7997,-5.7997,-5.7997,-5.7997,-5.7997,-5.7997,-5.7997,-5.7997,-5.7997,-5.7997,-5.7997,-5.7997,-5.7116,-5.6381,-5.5794,-5.5647,-5.5207,-5.4436,-5.3628,-5.3203,-5.3203,-5.3203,-5.3203,-5.3167,-5.238,-5.194,-5.964,-5.9372,-5.9009,-5.9009,-5.8524,-5.7997,-5.7997,-5.7997,-5.7997,-5.7997,-5.7997,-5.774,-5.6969,-5.6822,-5.6932,-5.7373,-5.8804,-6.0382,-6.1924,-6.1777,-6.2328,-6.4494,-6.4604,-6.4751,-6.5338,-6.5264,-6.5044,-6.4677,-6.387,-6.3209,-6.2768,-6.2768,-6.2622,-6.2181,-6.1777,-6.1374,-6.097,-6.0162,-5.9551,-5.9184,-5.8767,-5.8364,-5.7997,-5.84,-5.8364,-5.7997,-5.7997,-5.7997,-5.7997,-5.7997,-5.7997,-5.7997,-5.7997,-5.7997,-5.7997,-5.7997,-5.7997,-5.7997,-5.7997,-5.7997,-5.7997,-5.7997,-5.7997,-5.7997,-5.7997,-5.7997,-5.7997,-5.7997,-5.7997,-5.7997,-5.7997,-5.7997,-5.7997,-5.7997,-5.7997,-5.7997,-5.7997,-5.7997,-5.7997,-5.7997,-5.7997,-5.7997,-5.7997,-5.7997,-5.7997,-5.7997,-5.7997,-5.7997,-5.7997,-5.7997,-5.7997,-5.7997,-5.7997,-5.7997,-5.7997,-5.7997,-5.7997,-5.7997,-5.7666,-5.7262,-5.6895,-5.6051,-5.5449,-5.506,-5.3849,-5.3203,-5.3203,-5.3203,-5.3203,-5.3167,-5.2821,-5.2417,-5.904,-5.899,-5.8713,-5.8713,-5.8332,-5.8033,-5.8253,-5.829,-5.829,-5.829,-5.829,-5.7923,-5.6748,-5.6675,-5.7079,-5.7886,-5.9685,-6.13,-6.2328,-6.1777,-6.2328,-6.5264,-6.4127,-6.387,-6.5742,-6.4824,-6.4016,-6.3796,-6.2989,-6.2254,-6.163,-6.1998,-6.1961,-6.1337,-6.1153,-6.075,-6.0126,-5.9318,-5.8914,-5.8891,-5.829,-5.7997,-5.7997,-5.7997,-5.7997,-5.7997,-5.7997,-5.7997,-5.7997,-5.7997,-5.7997,-5.7997,-5.7997,-5.7997,-5.7997,-5.7997,-5.7997,-5.7997,-5.7997,-5.7997,-5.7997,-5.7997,-5.7997,-5.7997,-5.7997,-5.7997,-5.7997,-5.7997,-5.7997,-5.7997,-5.7997,-5.7997,-5.7997,-5.7997,-5.7997,-5.7997,-5.7997,-5.7997,-5.7997,-5.7997,-5.7997,-5.7997,-5.7997,-5.7997,-5.7997,-5.7997,-5.7997,-5.7997,-5.7997,-5.7997,-5.7997,-5.7997,-5.7997,-5.7997,-5.7997,-5.7997,-5.7997,-5.7997,-5.7997,-5.7923,-5.774,-5.6345,-5.55,-5.5317,-5.3922,-5.3203,-5.3203,-5.3203,-5.3203,-5.3203,-5.3203,-5.2858,-5.865,-5.8753,-5.8713,-5.8713,-5.8332,-5.8217,-5.8927,-5.9111,-5.9111,-5.9111,-5.9111,-5.8437,-5.6088,-5.6308,-5.7079,-5.7886,-6.0603,-6.3184,-6.4824,-6.4347,-6.4457,-6.6219,-6.4971,-6.409,-6.4237,-6.4163,-6.3759,-6.2952,-6.2144,-6.1667,-6.1594,-6.097,-6.0566,-6.0493,-5.9735,-5.9331,-5.9294,-5.851,-5.8107,-5.8107,-5.8033,-5.7997,-5.7997,-5.7997,-5.7997,-5.7997,-5.7997,-5.7997,-5.7997,-5.7997,-5.7997,-5.7997,-5.7997,-5.7997,-5.7997,-5.7997,-5.7997,-5.7997,-5.7997,-5.7997,-5.7997,-5.7997,-5.7997,-5.7997,-5.7997,-5.7997,-5.7997,-5.7997,-5.7997,-5.7997,-5.7997,-5.7997,-5.7997,-5.7997,-5.7997,-5.7997,-5.7997,-5.7997,-5.7997,-5.7997,-5.7997,-5.7997,-5.7997,-5.7997,-5.7997,-5.7997,-5.7997,-5.7997,-5.7997,-5.7997,-5.7997,-5.7997,-5.7997,-5.7997,-5.7997,-5.7997,-5.7997,-5.7997,-5.7997,-5.7666,-5.6932,-5.6051,-5.5244,-5.4509,-5.3665,-5.3203,-5.3203,-5.3203,-5.3203,-5.3203,-5.3203,-5.3167,-5.7217,-5.7522,-5.7522,-5.7522,-5.7751,-5.8217,-5.9001,-5.9588,-5.9795,-5.9294,-6.0015,-5.9942,-5.7519,-5.774,-5.8377,-5.8694,-6.1043,-6.3209,-6.4383,-6.4273,-6.4494,-6.5632,-6.431,-6.3503,-6.4053,-6.3613,-6.2952,-6.2108,-6.1777,-6.1153,-6.0162,-6.0309,-6.0162,-5.9661,-5.9368,-5.9184,-5.9184,-5.84,-5.7997,-5.7997,-5.7997,-5.7997,-5.7997,-5.7997,-5.7997,-5.7997,-5.7997,-5.7997,-5.7997,-5.7997,-5.7997,-5.7997,-5.7997,-5.7997,-5.7997,-5.7997,-5.7997,-5.7997,-5.7997,-5.7997,-5.7997,-5.7997,-5.7997,-5.7997,-5.7997,-5.7997,-5.7997,-5.7997,-5.7997,-5.7997,-5.7997,-5.7997,-5.7997,-5.7997,-5.7997,-5.7997,-5.7997,-5.7997,-5.7997,-5.7997,-5.7997,-5.7997,-5.7997,-5.7997,-5.7997,-5.7997,-5.7997,-5.7997,-5.7997,-5.7997,-5.7997,-5.7997,-5.7997,-5.7997,-5.7997,-5.7997,-5.7997,-5.7997,-5.7997,-5.785,-5.7556,-5.6271,-5.5486,-5.5133,-5.3849,-5.3203,-5.3203,-5.3203,-5.3203,-5.3203,-5.3203,-5.3203,-5.6124,-5.6602,-5.6822,-5.6822,-5.7226,-5.796,-5.9281,-6.0015,-6.0382,-6.0358,-6.0419,-6.0052,-5.8657,-5.8437,-5.8597,-5.9111,-6.1202,-6.3099,-6.398,-6.387,-6.4016,-6.4824,-6.3209,-6.2401,-6.3209,-6.2548,-6.1814,-6.1263,-6.1006,-6.0382,-5.9258,-5.9501,-5.9391,-5.8841,-5.8841,-5.8841,-5.8841,-5.829,-5.7997,-5.7997,-5.7997,-5.7997,-5.7997,-5.7997,-5.7997,-5.7997,-5.7997,-5.7997,-5.7997,-5.7997,-5.7997,-5.7997,-5.7997,-5.7997,-5.7997,-5.7997,-5.7997,-5.7997,-5.7997,-5.7997,-5.7997,-5.7997,-5.7997,-5.7997,-5.7997,-5.7997,-5.7997,-5.7997,-5.7997,-5.7997,-5.7997,-5.7997,-5.7997,-5.7997,-5.7997,-5.7997,-5.7997,-5.7997,-5.7997,-5.7997,-5.7997,-5.7997,-5.7997,-5.7997,-5.7997,-5.7997,-5.7997,-5.7997,-5.7997,-5.7997,-5.7997,-5.7997,-5.7997,-5.7997,-5.7997,-5.7997,-5.7997,-5.7997,-5.7997,-5.7886,-5.7629,-5.6565,-5.5721,-5.5207,-5.4142,-5.3445,-5.3203,-5.3203,-5.3203,-5.3203,-5.3203,-5.3203,-5.5574,-5.6161,-5.6785,-5.6785,-5.6822,-5.7446,-5.9832,-6.0382,-6.086,-6.2475,-6.0236,-5.829,-5.9074,-5.79,-5.7373,-5.8927,-6.1202,-6.3099,-6.3943,-6.3319,-6.3099,-6.3943,-6.1887,-6.0713,-6.152,-6.086,-6.0419,-6.0382,-5.9625,-5.9184,-5.9184,-5.8437,-5.7997,-5.7997,-5.7997,-5.7997,-5.7997,-5.7997,-5.7997,-5.7997,-5.7997,-5.7997,-5.7997,-5.7997,-5.7997,-5.7997,-5.7997,-5.7997,-5.7997,-5.7997,-5.7997,-5.7997,-5.7997,-5.7997,-5.7997,-5.7997,-5.7997,-5.7997,-5.7997,-5.7997,-5.7997,-5.7997,-5.7997,-5.7997,-5.7997,-5.7997,-5.7997,-5.7997,-5.7997,-5.7997,-5.7997,-5.7997,-5.7997,-5.7997,-5.7997,-5.7997,-5.7997,-5.7997,-5.7997,-5.7997,-5.7997,-5.7997,-5.7997,-5.7997,-5.7997,-5.7997,-5.7997,-5.7997,-5.7997,-5.7997,-5.7997,-5.7997,-5.7997,-5.7997,-5.7997,-5.7997,-5.7997,-5.7997,-5.7997,-5.7629,-5.6859,-5.6822,-5.6051,-5.4436,-5.4399,-5.3995,-5.3203,-5.3203,-5.3203,-5.3203,-5.3203,-5.3203,-5.4583,-5.4913,-5.5244,-5.5794,-5.6822,-5.7997,-5.9258,-5.9551,-5.9992,-6.163,-6.119,-6.0419,-6.0126,-5.9648,-5.9501,-5.9979,-6.0639,-6.141,-6.2218,-6.163,-6.1227,-6.1484,-6.086,-6.0493,-6.075,-6.0529,-6.0162,-5.9588,-5.9331,-5.8927,-5.84,-5.8143,-5.7997,-5.7997,-5.7997,-5.7997,-5.7997,-5.7997,-5.7997,-5.7997,-5.7997,-5.7997,-5.7997,-5.7997,-5.7997,-5.7997,-5.7997,-5.7997,-5.7997,-5.7997,-5.7997,-5.7923,-5.7373,-5.7483,-5.7923,-5.7373,-5.7519,-5.7997,-5.7997,-5.7997,-5.7997,-5.7997,-5.7997,-5.7997,-5.7997,-5.7997,-5.7997,-5.7997,-5.7997,-5.7997,-5.7997,-5.7997,-5.7997,-5.7997,-5.7997,-5.7997,-5.7997,-5.7997,-5.7997,-5.7997,-5.7997,-5.7997,-5.7997,-5.7997,-5.7997,-5.7997,-5.7997,-5.7997,-5.7997,-5.7997,-5.7997,-5.7997,-5.7997,-5.7997,-5.7997,-5.7997,-5.7997,-5.7997,-5.7997,-5.7886,-5.7666,-5.7116,-5.6308,-5.5244,-5.4693,-5.3995,-5.3203,-5.3203,-5.3203,-5.3203,-5.3203,-5.3203,-5.4363,-5.462,-5.506,-5.5868,-5.6565,-5.7336,-5.8474,-5.9979,-6.141,-6.2401,-6.2071,-6.1557,-6.1374,-6.0309,-5.9758,-6.0713,-6.0346,-6.0309,-6.1447,-6.0639,-6.0052,-6.0382,-5.9832,-5.9575,-5.9905,-5.9648,-5.9245,-5.8767,-5.8731,-5.851,-5.8033,-5.7997,-5.785,-5.7519,-5.7813,-5.785,-5.7519,-5.785,-5.7997,-5.7997,-5.7997,-5.7813,-5.7519,-5.785,-5.7997,-5.7997,-5.7997,-5.7813,-5.7519,-5.7519,-5.7336,-5.7005,-5.6492,-5.6822,-5.7446,-5.6969,-5.7299,-5.7997,-5.7997,-5.7997,-5.7997,-5.7997,-5.7997,-5.7997,-5.7997,-5.7997,-5.7997,-5.7997,-5.7997,-5.7997,-5.7997,-5.7997,-5.7997,-5.7997,-5.7997,-5.7997,-5.7997,-5.7997,-5.7997,-5.7997,-5.7997,-5.7997,-5.7997,-5.7997,-5.7997,-5.7997,-5.7997,-5.7997,-5.7997,-5.7997,-5.7997,-5.7997,-5.7997,-5.7997,-5.7997,-5.7997,-5.7997,-5.7997,-5.7997,-5.7997,-5.7997,-5.7519,-5.6895,-5.6088,-5.5611,-5.4803,-5.3702,-5.3702,-5.3518,-5.3203,-5.3203,-5.3203,-5.4583,-5.4987,-5.5794,-5.6602,-5.6345,-5.6308,-5.785,-6.108,-6.3759,-6.3759,-6.2732,-6.1998,-6.2585,-6.0309,-5.9024,-6.1153,-6.0199,-5.9698,-6.119,-6.0052,-5.9355,-6.0089,-5.8877,-5.829,-5.9001,-5.8437,-5.7997,-5.7997,-5.7997,-5.796,-5.7886,-5.7886,-5.7519,-5.6712,-5.7409,-5.7446,-5.6712,-5.7409,-5.7776,-5.7776,-5.7776,-5.7409,-5.6712,-5.7519,-5.785,-5.7776,-5.7776,-5.7373,-5.6712,-5.6712,-5.6271,-5.5574,-5.5522,-5.5978,-5.6675,-5.6602,-5.7079,-5.7776,-5.785,-5.7886,-5.7886,-5.796,-5.7997,-5.7997,-5.7997,-5.7997,-5.7997,-5.7997,-5.7997,-5.7997,-5.7997,-5.7997,-5.7997,-5.7997,-5.7997,-5.7997,-5.7997,-5.7997,-5.7997,-5.7997,-5.7997,-5.7997,-5.7997,-5.7997,-5.7997,-5.7997,-5.7997,-5.7997,-5.7997,-5.7997,-5.7997,-5.7997,-5.7997,-5.7997,-5.7997,-5.7997,-5.7997,-5.7997,-5.7997,-5.7997,-5.7997,-5.7997,-5.7629,-5.6822,-5.6822,-5.6051,-5.4509,-5.4436,-5.4032,-5.3314,-5.3203,-5.3203,-5.4436,-5.4987,-5.5794,-5.6602,-5.7629,-5.8694,-5.9648,-6.0566,-6.119,-6.119,-6.2438,-6.3209,-6.2071,-6.13,-6.0786,-6.0676,-5.9832,-5.9294,-5.9661,-5.8877,-5.8327,-5.851,-5.8217,-5.807,-5.8253,-5.8107,-5.7997,-5.7997,-5.7997,-5.7703,-5.7079,-5.7079,-5.6675,-5.5868,-5.6014,-5.6014,-5.5868,-5.6014,-5.6147,-5.6147,-5.6147,-5.6014,-5.5868,-5.6675,-5.6712,-5.6147,-5.6147,-5.6014,-5.5868,-5.5868,-5.5757,-5.5559,-5.4913,-5.5133,-5.5757,-5.5133,-5.5427,-5.6198,-5.6859,-5.7079,-5.7152,-5.7776,-5.7997,-5.7997,-5.7997,-5.7997,-5.7997,-5.7997,-5.7997,-5.7997,-5.7997,-5.7997,-5.7997,-5.7997,-5.7997,-5.7997,-5.7997,-5.7997,-5.7997,-5.7997,-5.7997,-5.7997,-5.7997,-5.7997,-5.7997,-5.7997,-5.7997,-5.7997,-5.7997,-5.7997,-5.7997,-5.7997,-5.7997,-5.7997,-5.7997,-5.7997,-5.7997,-5.7997,-5.7997,-5.7997,-5.7997,-5.7997,-5.7629,-5.6822,-5.6822,-5.6308,-5.5317,-5.4693,-5.4326,-5.4142,-5.3482,-5.3203,-5.4399,-5.4987,-5.5794,-5.6602,-5.801,-5.9294,-5.9735,-6.0126,-6.0419,-6.0419,-6.1447,-6.2181,-6.1667,-6.097,-6.0456,-6.0419,-5.9391,-5.8767,-5.9148,-5.851,-5.7997,-5.7997,-5.7997,-5.7997,-5.7997,-5.7666,-5.7446,-5.7446,-5.7079,-5.6675,-5.6235,-5.6235,-5.5868,-5.506,-5.539,-5.5427,-5.5023,-5.539,-5.5596,-5.5596,-5.5596,-5.539,-5.506,-5.5868,-5.5978,-5.5596,-5.5596,-5.5354,-5.5023,-5.5023,-5.4803,-5.4399,-5.3995,-5.4326,-5.495,-5.4546,-5.4913,-5.5669,-5.6088,-5.6235,-5.6345,-5.7152,-5.7446,-5.7483,-5.7886,-5.7997,-5.7997,-5.7997,-5.7997,-5.7997,-5.7997,-5.7997,-5.7997,-5.7997,-5.7997,-5.7997,-5.7997,-5.7997,-5.7997,-5.7997,-5.7997,-5.7997,-5.7997,-5.7997,-5.7997,-5.7997,-5.7997,-5.7997,-5.7997,-5.7997,-5.7997,-5.7997,-5.7997,-5.7997,-5.7997,-5.7997,-5.7997,-5.7997,-5.7997,-5.7997,-5.7997,-5.7997,-5.7813,-5.7373,-5.7373,-5.6969,-5.6161,-5.5757,-5.517,-5.4399,-5.3959,-5.3592,-5.4399,-5.4987,-5.5794,-5.6602,-5.779,-5.8817,-5.8964,-5.9501,-6.0015,-6.0162,-6.0309,-6.0566,-6.108,-6.0126,-5.9368,-5.9905,-5.8877,-5.8217,-5.8914,-5.8437,-5.796,-5.7813,-5.7923,-5.7886,-5.7593,-5.7116,-5.6748,-5.6602,-5.5978,-5.5559,-5.539,-5.539,-5.5023,-5.4216,-5.484,-5.4876,-5.4216,-5.484,-5.517,-5.517,-5.517,-5.484,-5.4216,-5.4876,-5.517,-5.517,-5.517,-5.4803,-5.4179,-5.4179,-5.3812,-5.3203,-5.3203,-5.3628,-5.4179,-5.4179,-5.462,-5.5207,-5.5317,-5.539,-5.5537,-5.6345,-5.6602,-5.6748,-5.7556,-5.7776,-5.7813,-5.796,-5.7997,-5.7997,-5.7997,-5.7997,-5.7997,-5.7997,-5.7997,-5.7997,-5.7997,-5.7997,-5.7997,-5.7997,-5.7997,-5.7997,-5.7997,-5.7997,-5.7997,-5.7997,-5.7997,-5.7997,-5.7997,-5.7997,-5.7997,-5.7997,-5.7997,-5.7997,-5.7997,-5.7997,-5.7997,-5.7997,-5.7997,-5.7997,-5.7997,-5.7997,-5.7997,-5.7997,-5.7997,-5.7666,-5.7005,-5.6748,-5.5904,-5.4583,-5.4326,-5.3849,-5.4399,-5.4987,-5.5794,-5.6602,-5.6969,-5.7299,-5.7997,-5.8253,-5.851,-5.9245,-5.9905,-6.0236,-5.9648,-5.9331,-5.9001,-5.8437,-5.8143,-5.8033,-5.8143,-5.807,-5.774,-5.7042,-5.7593,-5.7446,-5.6051,-5.6455,-5.6528,-5.5794,-5.5647,-5.528,-5.4583,-5.4546,-5.4179,-5.3408,-5.3482,-5.3482,-5.3371,-5.3482,-5.3518,-5.3518,-5.3518,-5.3482,-5.3371,-5.3482,-5.3518,-5.3518,-5.3518,-5.3482,-5.3371,-5.3371,-5.3298,-5.3203,-5.3203,-5.3298,-5.3371,-5.3371,-5.3424,-5.3628,-5.4326,-5.4546,-5.4693,-5.55,-5.5757,-5.5904,-5.6712,-5.6969,-5.7116,-5.7813,-5.7997,-5.7997,-5.7997,-5.7997,-5.7997,-5.7997,-5.7997,-5.7997,-5.7997,-5.7997,-5.7997,-5.7997,-5.7997,-5.7997,-5.7997,-5.7997,-5.7997,-5.7997,-5.7997,-5.7997,-5.7997,-5.7997,-5.7997,-5.7997,-5.7997,-5.7997,-5.7997,-5.7997,-5.7997,-5.7997,-5.7997,-5.7997,-5.7997,-5.7997,-5.7997,-5.7997,-5.7997,-5.796,-5.785,-5.6418,-5.5647,-5.539,-5.3995,-5.3298,-5.4289,-5.4656,-5.5133,-5.5941,-5.6455,-5.6895,-5.7262,-5.7666,-5.8107,-5.8437,-5.8804,-5.9098,-5.9184,-5.8817,-5.84,-5.807,-5.7997,-5.785,-5.7409,-5.7336,-5.7042,-5.6235,-5.6418,-5.6381,-5.5647,-5.55,-5.5317,-5.495,-5.4509,-5.4106,-5.3739,-5.3739,-5.3592,-5.3203,-5.3203,-5.3203,-5.3203,-5.3203,-5.3203,-5.3203,-5.3203,-5.3203,-5.3203,-5.3203,-5.3203,-5.3203,-5.3203,-5.3203,-5.3203,-5.3203,-5.3203,-5.3203,-5.3203,-5.3203,-5.3203,-5.3203,-5.3203,-5.324,-5.3592,-5.3739,-5.3849,-5.4656,-5.4913,-5.506,-5.5868,-5.6455,-5.6859,-5.7226,-5.7666,-5.7997,-5.7997,-5.7997,-5.7997,-5.7997,-5.7997,-5.7997,-5.7997,-5.7997,-5.7997,-5.7997,-5.7997,-5.7997,-5.7997,-5.7997,-5.7997,-5.7997,-5.7997,-5.7997,-5.7997,-5.7997,-5.7997,-5.7997,-5.7997,-5.7997,-5.7997,-5.7997,-5.7997,-5.7997,-5.7997,-5.7997,-5.7997,-5.7997,-5.7997,-5.7997,-5.7997,-5.7997,-5.7997,-5.7299,-5.6455,-5.5596,-5.4876,-5.4069,-5.3922,-5.4106,-5.4289,-5.5097,-5.5757,-5.6308,-5.6712,-5.7116,-5.7446,-5.7666,-5.7703,-5.7886,-5.8487,-5.829,-5.7923,-5.774,-5.7886,-5.7666,-5.6638,-5.6675,-5.6418,-5.539,-5.5464,-5.5427,-5.5023,-5.462,-5.4326,-5.4106,-5.3555,-5.3203,-5.3203,-5.3203,-5.3203,-5.3203,-5.3203,-5.3203,-5.3203,-5.3203,-5.3203,-5.3203,-5.3203,-5.3203,-5.3203,-5.3203,-5.3203,-5.3203,-5.3203,-5.3203,-5.3203,-5.3203,-5.3203,-5.3203,-5.3203,-5.3203,-5.3203,-5.3203,-5.3203,-5.3203,-5.3203,-5.3203,-5.3298,-5.3922,-5.4106,-5.4252,-5.506,-5.5868,-5.6528,-5.6748,-5.7373,-5.7997,-5.7997,-5.7997,-5.7997,-5.7997,-5.7997,-5.7997,-5.7997,-5.7997,-5.7997,-5.7997,-5.7997,-5.7997,-5.7997,-5.7997,-5.7997,-5.7997,-5.7997,-5.7997,-5.7997,-5.7997,-5.7997,-5.7997,-5.7997,-5.7997,-5.7997,-5.7997,-5.7997,-5.7997,-5.7997,-5.7997,-5.7997,-5.7997,-5.7997,-5.7997,-5.7997,-5.7997,-5.7997,-5.7776,-5.6969,-5.5596,-5.539,-5.4546,-5.324,-5.324,-5.3482,-5.4252,-5.4473,-5.4913,-5.6455,-5.6235,-5.5941,-5.6712,-5.6859,-5.6895,-5.6932,-5.7519,-5.774,-5.7005,-5.7483,-5.7446,-5.5868,-5.6308,-5.6235,-5.4656,-5.5133,-5.4987,-5.3482,-5.3995,-5.4069,-5.3314,-5.3203,-5.3203,-5.3203,-5.3203,-5.3203,-5.3203,-5.3203,-5.3203,-5.3203,-5.3203,-5.3203,-5.3203,-5.3203,-5.3203,-5.3203,-5.3203,-5.3203,-5.3203,-5.3203,-5.3203,-5.3203,-5.3203,-5.3203,-5.3203,-5.3203,-5.3203,-5.3203,-5.3203,-5.3203,-5.3203,-5.3203,-5.3203,-5.3203,-5.324,-5.324,-5.3408,-5.4216,-5.5023,-5.5794,-5.6602,-5.7373,-5.7997,-5.7997,-5.7997,-5.7997,-5.7997,-5.7997,-5.7997,-5.7997,-5.7997,-5.7997,-5.7997,-5.7997,-5.7997,-5.7997,-5.7997,-5.7997,-5.7997,-5.7997,-5.7997,-5.7997,-5.7997,-5.7997,-5.7997,-5.7997,-5.7997,-5.7997,-5.7997,-5.7997,-5.7997,-5.7997,-5.7997,-5.7997,-5.7997,-5.7997,-5.7997,-5.7997,-5.7997,-5.7997,-5.7226,-5.6418,-5.5596,-5.4803,-5.3995,-5.3203,-5.3203,-5.3408,-5.4216,-5.3995,-5.3922,-5.5023,-5.5023,-5.4913,-5.5207,-5.5684,-5.6014,-5.6014,-5.6675,-5.7152,-5.6859,-5.6602,-5.6088,-5.4987,-5.5097,-5.484,-5.3775,-5.3885,-5.3849,-5.324,-5.3482,-5.3518,-5.3203,-5.3203,-5.3203,-5.3203,-5.3203,-5.3203,-5.3203,-5.3203,-5.3203,-5.3203,-5.3203,-5.3203,-5.3203,-5.3203,-5.3203,-5.3203,-5.3203,-5.3203,-5.3203,-5.3203,-5.3203,-5.3203,-5.3203,-5.3203,-5.3203,-5.3203,-5.3203,-5.3203,-5.3203,-5.3203,-5.3203,-5.3203,-5.3203,-5.3203,-5.3203,-5.3203,-5.324,-5.3555,-5.4546,-5.5647,-5.5941,-5.6969,-5.7997,-5.7997,-5.7997,-5.7997,-5.7997,-5.7997,-5.7997,-5.7997,-5.7997,-5.7997,-5.7997,-5.7997,-5.7997,-5.7997,-5.7997,-5.7997,-5.7997,-5.7997,-5.7997,-5.7997,-5.7997,-5.7997,-5.7997,-5.7997,-5.7997,-5.7997,-5.7997,-5.7997,-5.7997,-5.7997,-5.7997,-5.7997,-5.7997,-5.7997,-5.7997,-5.7997,-5.7997,-5.7997,-5.7703,-5.7152,-5.6345,-5.5537,-5.473,-5.3203,-5.3203,-5.3335,-5.3849,-5.3592,-5.3314,-5.3885,-5.3775,-5.3665,-5.3959,-5.4436,-5.4876,-5.5133,-5.5647,-5.6014,-5.6014,-5.5757,-5.5207,-5.4142,-5.4216,-5.4106,-5.3298,-5.3203,-5.3203,-5.3203,-5.3203,-5.3203,-5.3203,-5.3203,-5.3203,-5.3203,-5.3203,-5.3078,-5.2821,-5.3078,-5.2968,-5.2417,-5.2674,-5.2821,-5.2821,-5.2821,-5.2931,-5.3203,-5.3203,-5.3203,-5.3203,-5.3203,-5.3203,-5.3203,-5.3203,-5.3203,-5.3203,-5.3203,-5.3203,-5.3203,-5.3203,-5.3203,-5.3203,-5.3203,-5.3203,-5.3203,-5.3203,-5.3203,-5.324,-5.3518,-5.4546,-5.5669,-5.5941,-5.6969,-5.7997,-5.7997,-5.7997,-5.7997,-5.7997,-5.7997,-5.7997,-5.7997,-5.7997,-5.7997,-5.7997,-5.7997,-5.7997,-5.7997,-5.7997,-5.7997,-5.7997,-5.7997,-5.7997,-5.7997,-5.7997,-5.7997,-5.7997,-5.7997,-5.7997,-5.7997,-5.7997,-5.7997,-5.7997,-5.7997,-5.7997,-5.7997,-5.7997,-5.7997,-5.7997,-5.7997,-5.7997,-5.7997,-5.7997,-5.7446,-5.6381,-5.6124,-5.5427,0.0,0.0,0.0,-5.3203,-5.3203,-5.3167,-5.3167,-5.2564,-5.2197,-5.2968,-5.313,-5.3408,-5.4142,-5.4289,-5.4289,-5.4326,-5.4987,-5.4987,-5.3445,-5.3885,-5.4069,-5.3277,-5.3203,-5.3203,-5.3203,-5.3203,-5.3203,-5.3203,-5.3203,-5.3203,-5.3203,-5.3203,-5.2821,-5.2013,-5.2747,-5.2417,-5.0839,-5.1573,-5.1977,-5.1977,-5.1977,-5.2417,-5.3203,-5.3203,-5.3203,-5.3203,-5.3203,-5.3203,-5.3203,-5.3203,-5.3203,-5.3203,-5.3203,-5.3203,-5.3203,-5.3203,-5.3203,-5.3203,-5.3203,-5.3203,-5.3203,-5.3203,-5.3203,-5.3371,-5.4179,-5.495,-5.5757,-5.6565,-5.7373,-5.7997,-5.7997,-5.7997,-5.7997,-5.7997,-5.7997,-5.7997,-5.7997,-5.7997,-5.7997,-5.7997,-5.7997,-5.7997,-5.7997,-5.7997,-5.7997,-5.7997,-5.7997,-5.7997,-5.7997,-5.7997,-5.7997,-5.7997,-5.7997,-5.7997,-5.7997,-5.7997,-5.7997,-5.7997,-5.7997,-5.7997,-5.7997,-5.7997,-5.7997,-5.7997,-5.7997,-5.7997,-5.7997,-5.7997,-5.7189,-5.5706,-5.6455,-5.5941,-5.3203,0.0,0.0,0.0,0.0,0.0,-5.3078,-5.2564,-5.1903,-5.1536,-5.194,-5.2234,-5.1867,-5.1793,-5.1977,-5.2564,-5.3335,-5.3702,-5.324,-5.3408,-5.3445,-5.3203,-5.3203,-5.3203,-5.3203,-5.3203,-5.3203,-5.3203,-5.3203,-5.3203,-5.3203,-5.3203,-5.2821,-5.2013,-5.2197,-5.183,-5.0802,-5.1022,-5.1426,-5.1977,-5.1977,-5.2417,-5.3203,-5.3203,-5.3203,-5.3203,-5.3203,-5.3203,-5.3203,-5.3203,-5.3203,-5.3203,-5.3203,-5.3203,-5.3203,-5.3203,-5.3203,-5.3203,-5.3203,-5.3203,-5.3203,-5.3203,-5.3203,-5.3371,-5.4179,-5.495,-5.5757,-5.6565,-5.7373,-5.7997,-5.7997,-5.7997,-5.7997,-5.7997,-5.7997,-5.7997,-5.7997,-5.7997,-5.7997,-5.7997,-5.7997,-5.7997,-5.7997,-5.7997,-5.7997,-5.7997,-5.7997,-5.7997,-5.7997,-5.7997,-5.7997,-5.7997,-5.7997,-5.7997,-5.7997,-5.7997,-5.7997,-5.7997,-5.7997,-5.7997,-5.7997,-5.7997,-5.7997,-5.7997,-5.7997,-5.7997,-5.7997,-5.7997,-5.7776,-5.7336,-5.6969,-5.5941,-5.3702,-5.3702,-5.3812,-5.4289,0.0,0.0,-5.2344,-5.183,-5.1279,-5.0472,-5.0655,-5.0949,-5.0839,-5.0802,-5.0949,-5.1426,-5.1903,-5.2344,-5.2637,-5.2711,-5.2711,-5.2711,-5.2711,-5.2821,-5.3167,-5.3203,-5.3203,-5.3203,-5.3203,-5.3203,-5.3203,-5.3203,-5.2674,-5.1536,-5.183,-5.1279,-4.9774,-5.0105,-5.0692,-5.1499,-5.1132,-5.1756,-5.3167,-5.2858,-5.2894,-5.3203,-5.3203,-5.3203,-5.3203,-5.3203,-5.3203,-5.3203,-5.3203,-5.3203,-5.3203,-5.3203,-5.3203,-5.3203,-5.3203,-5.3203,-5.3203,-5.3203,-5.3203,-5.3408,-5.4546,-5.5207,-5.5831,-5.6969,-5.7629,-5.7997,-5.7997,-5.7997,-5.7997,-5.7997,-5.7997,-5.7997,-5.7997,-5.7997,-5.7997,-5.7997,-5.7997,-5.7997,-5.7997,-5.7997,-5.7997,-5.7997,-5.7997,-5.7997,-5.7997,-5.7997,-5.7997,-5.7997,-5.7997,-5.7997,-5.7997,-5.7997,-5.7997,-5.7997,-5.7997,-5.7997,-5.7997,-5.7997,-5.7997,-5.7997,-5.7997,-5.7997,-5.7997,-5.7997,-5.7813,-5.7483,-5.6675,-5.5611,-5.4509,-5.4509,-5.4509,-5.4509,-5.4509,0.0,-5.172,-5.1206,-5.0949,-5.0051,-4.9941,-5.0141,-5.0692,-5.0875,-5.0949,-5.0949,-5.0875,-5.1059,-5.1756,-5.1867,-5.1867,-5.1867,-5.1867,-5.216,-5.2858,-5.291,-5.291,-5.291,-5.291,-5.2968,-5.3078,-5.2983,-5.2234,-5.0729,-5.1353,-5.0618,-4.8343,-4.9077,-4.9848,-5.0655,-4.9958,-5.0839,-5.3078,-5.2417,-5.2527,-5.3203,-5.3203,-5.3203,-5.3203,-5.3203,-5.3203,-5.3203,-5.3203,-5.3203,-5.3203,-5.3203,-5.3203,-5.3203,-5.3203,-5.3203,-5.3203,-5.3203,-5.3203,-5.3482,-5.4987,-5.5537,-5.5904,-5.7446,-5.7886,-5.7886,-5.7886,-5.7886,-5.7886,-5.796,-5.7997,-5.7997,-5.7997,-5.7997,-5.7997,-5.7997,-5.7997,-5.7997,-5.7997,-5.7997,-5.7997,-5.7997,-5.7997,-5.7997,-5.7997,-5.7997,-5.7997,-5.7997,-5.7997,-5.7997,-5.7997,-5.7997,-5.7997,-5.7997,-5.7997,-5.7997,-5.7997,-5.7997,-5.7997,-5.7997,-5.7997,-5.7997,-5.7997,-5.7997,-5.7556,-5.6638,-5.6014,-5.5244,-5.517,-5.5354,-5.5354,-5.5354,-5.5354,0.0,-5.3959,-5.3702,-5.3298,-5.183,-5.205,-5.216,-5.1022,-5.1316,-5.1756,-5.1756,-5.1206,-5.0839,-5.1022,-5.1022,-5.1022,-5.1022,-5.1022,-5.1096,-5.1242,-5.1279,-5.1279,-5.1279,-5.1279,-5.1536,-5.2197,-5.161,-5.0839,-4.9867,-4.9978,-4.9481,-4.8306,-4.8489,-4.8967,-4.9831,-5.0325,-5.1132,-5.2234,-5.2747,-5.3078,-5.3203,-5.3203,-5.3203,-5.3203,-5.3203,-5.3203,-5.3203,-5.3203,-5.3203,-5.3203,-5.3203,-5.3203,-5.3203,-5.3203,-5.3203,-5.3203,-5.3203,-5.3203,-5.3408,-5.4326,-5.5097,-5.5794,-5.6748,-5.7042,-5.7042,-5.7042,-5.7042,-5.7189,-5.785,-5.7997,-5.7997,-5.7997,-5.7997,-5.7997,-5.7997,-5.7997,-5.7997,-5.7997,-5.7997,-5.7997,-5.7997,-5.7997,-5.7997,-5.7997,-5.7997,-5.7997,-5.7997,-5.7997,-5.7997,-5.7997,-5.7997,-5.7997,-5.7997,-5.7997,-5.7997,-5.7997,-5.7997,-5.7997,-5.7997,-5.7997,-5.7997,-5.7997,-5.7997,-5.7262,-5.5831,-5.6345,-5.5794,-5.5486,-5.5596,-5.5596,-5.5596,-5.5596,0.0,0.0,-5.4106,-5.3592,-5.2747,-5.227,-5.1903,-5.1463,-5.1389,-5.1389,-5.1389,-5.0729,-5.0472,-5.1279,-5.0692,-5.0178,-5.0178,-5.0178,-5.0362,-5.0765,-5.0802,-5.0802,-5.0802,-5.0802,-5.0986,-5.1389,-5.1022,-5.0435,-4.9647,-4.961,-4.9187,-4.8306,-4.871,-4.937,-5.0178,-5.0618,-5.1426,-5.2601,-5.2601,-5.2821,-5.3203,-5.3203,-5.3203,-5.3203,-5.3203,-5.3203,-5.3203,-5.3203,-5.3203,-5.3203,-5.3203,-5.3203,-5.3203,-5.3203,-5.3203,-5.3203,-5.3203,-5.3203,-5.3371,-5.4179,-5.495,-5.5684,-5.6088,-5.6492,-5.6822,-5.6822,-5.7116,-5.7483,-5.7886,-5.7997,-5.7997,-5.7997,-5.7997,-5.7997,-5.7997,-5.7997,-5.7997,-5.7997,-5.7997,-5.7997,-5.7997,-5.7997,-5.7997,-5.7997,-5.7997,-5.7997,-5.7997,-5.7997,-5.7997,-5.7997,-5.7997,-5.7997,-5.7997,-5.7997,-5.7997,-5.7997,-5.7997,-5.7997,-5.7997,-5.7997,-5.7997,-5.7997,-5.7997,-5.7152,-5.5596,-5.5611,-5.495,-5.6,-5.5941,-5.5868,-5.6014,-5.5941,-5.5611,0.0,0.0,0.0,-5.324,-5.2307,-5.1646,-5.2123,-5.183,-5.1389,-5.1096,-5.0618,-5.0692,-5.183,-5.0986,-5.0308,-5.0308,-4.9721,-4.9738,-5.0729,-5.0802,-5.0729,-5.0582,-5.0729,-5.0729,-5.0582,-5.0398,-5.0031,-4.939,-4.9353,-4.9003,-4.8306,-4.915,-4.9884,-5.0582,-5.0875,-5.172,-5.2968,-5.2454,-5.2601,-5.3203,-5.3203,-5.3203,-5.3203,-5.3203,-5.3203,-5.3203,-5.3203,-5.3203,-5.3203,-5.3203,-5.3203,-5.3203,-5.3203,-5.3203,-5.3203,-5.3203,-5.3203,-5.3371,-5.4179,-5.484,-5.5354,-5.5354,-5.5831,-5.6345,-5.6345,-5.6822,-5.7373,-5.7703,-5.7776,-5.7813,-5.796,-5.7997,-5.7997,-5.7997,-5.7997,-5.7997,-5.7997,-5.7997,-5.7997,-5.7997,-5.7997,-5.7997,-5.7997,-5.7997,-5.7997,-5.7997,-5.7997,-5.7997,-5.7997,-5.7997,-5.7997,-5.7997,-5.7997,-5.7997,-5.7997,-5.7997,-5.7997,-5.7997,-5.7997,-5.7997,-5.7997,-5.785,-5.7079,-5.5794,-5.5023,-5.4216,-5.7336,-5.7226,-5.6822,-5.7556,-5.7189,-5.6455,-5.5647,0.0,-5.4913,-5.3482,0.0,-5.3812,-5.3188,0.0,0.0,-5.2087,-5.238,-5.2601,-5.205,-5.2454,-5.2784,-5.2784,-5.0215,-4.9077,-5.0655,-5.0802,-5.0508,-4.9794,-5.0398,-5.0472,-4.9757,-4.9003,-4.8526,-4.8453,-4.8453,-4.8416,-4.8306,-4.9114,-4.9591,-4.9757,-5.1169,-5.194,-5.216,-5.2784,-5.3115,-5.3203,-5.3203,-5.3203,-5.3203,-5.3203,-5.3203,-5.3203,-5.3203,-5.3203,-5.3203,-5.3203,-5.3203,-5.3203,-5.3203,-5.3203,-5.3203,-5.3203,-5.3203,-5.3371,-5.4179,-5.4473,-5.4546,-5.4546,-5.4583,-5.4656,-5.4656,-5.473,-5.517,-5.6602,-5.6932,-5.7152,-5.785,-5.7997,-5.7997,-5.7997,-5.7997,-5.7997,-5.7997,-5.7997,-5.7997,-5.7997,-5.7997,-5.7997,-5.7997,-5.7997,-5.7997,-5.7997,-5.7997,-5.7997,-5.7997,-5.7997,-5.7997,-5.7997,-5.7997,-5.7997,-5.7997,-5.7997,-5.7997,-5.7997,-5.7997,-5.7997,-5.7997,-5.7299,-5.6859,-5.6638,-5.5831,-5.5023,-5.7116,-5.6712,-5.6308,-5.7116,-5.6345,-5.5684,-5.6748,-5.5904,-5.4987,-5.5244,0.0,0.0,0.0,0.0,0.0,0.0,-5.3298,-5.3408,-5.3995,-5.2784,-5.1977,-5.2454,-5.1279,-5.0362,-5.0105,-5.0545,-5.0251,-4.893,-5.0068,-5.0215,-4.893,-4.8489,-4.8306,-4.8306,-4.8306,-4.8306,-4.8306,-4.915,-4.9574,-4.961,-5.0765,-5.1536,-5.2013,-5.2344,-5.2747,-5.3203,-5.3203,-5.3203,-5.3203,-5.3203,-5.3203,-5.3203,-5.3203,-5.3203,-5.3203,-5.3203,-5.3203,-5.3203,-5.3203,-5.3203,-5.3203,-5.3203,-5.3203,-5.324,-5.3592,-5.3702,-5.3702,-5.3702,-5.4032,-5.4399,-5.4399,-5.5097,-5.5978,-5.6638,-5.7152,-5.7593,-5.7923,-5.7997,-5.7997,-5.7997,-5.7997,-5.7997,-5.7997,-5.7997,-5.7997,-5.7997,-5.7997,-5.7997,-5.7997,-5.7997,-5.7997,-5.7997,-5.7997,-5.7997,-5.7997,-5.7997,-5.7997,-5.7997,-5.7997,-5.7997,-5.7997,-5.7997,-5.7997,-5.7997,-5.7997,-5.7997,-5.7997,-5.7666,-5.7483,-5.7446,-5.5721,-5.473,-5.6675,-5.6198,-5.5794,-5.6602,-5.5757,-5.5133,-5.6675,-5.5647,-5.473,-5.5904,-5.4766,0.0,0.0,0.0,-5.4656,-5.4436,0.0,-5.4509,-5.5464,-5.3775,-5.2564,-5.2931,-5.2784,-5.2087,-5.0692,-5.1499,-5.1169,-4.882,-5.0398,-5.0435,-4.8103,-4.8196,-4.8306,-4.8306,-4.8306,-4.8306,-4.8306,-4.915,-4.961,-4.961,-5.0398,-5.1206,-5.1977,-5.1977,-5.2454,-5.3203,-5.3203,-5.3203,-5.3203,-5.3203,-5.3203,-5.3203,-5.3203,-5.3203,-5.3203,-5.3203,-5.3203,-5.3203,-5.3203,-5.3203,-5.3203,-5.3203,-5.3203,-5.3203,-5.3203,-5.3203,-5.3203,-5.3203,-5.3628,-5.4069,-5.4069,-5.5097,-5.6198,-5.6418,-5.7079,-5.774,-5.796,-5.7997,-5.7997,-5.7997,-5.7997,-5.7997,-5.7997,-5.7997,-5.7997,-5.7997,-5.7997,-5.7997,-5.7997,-5.7997,-5.7997,-5.7997,-5.7997,-5.7997,-5.7997,-5.7997,-5.7997,-5.7997,-5.7997,-5.7997,-5.7997,-5.7997,-5.7997,-5.7997,-5.7997,-5.7997,-5.7997,-5.7997,-5.7997,-5.796,-5.5978,-5.495,-5.6381,-5.6198,-5.5794,-5.6602,-5.6161,-5.5354,-5.4693,-5.4473,-5.4399,-5.4473,-5.4436,-5.462,-5.539,-5.5537,-5.5317,-5.4509,-5.5684,0.0,0.0,-5.6198,-5.6345,-5.5574,-5.4803,-5.3995,-5.3188,-5.4509,-5.3775,-4.9774,-5.1756,-5.1369,-4.7333,-4.7883,-4.8306,-4.8306,-4.8306,-4.8306,-4.8306,-4.915,-4.961,-4.961,-5.0398,-5.1206,-5.1977,-5.1977,-5.2454,-5.3203,-5.3203,-5.3203,-5.3203,-5.3203,-5.3203,-5.3203,-5.3203,-5.3203,-5.3203,-5.3203,-5.3203,-5.3203,-5.3203,-5.3203,-5.3203,-5.3203,-5.3203,-5.3203,-5.3203,-5.3203,-5.3203,-5.3203,-5.3203,-5.3261,-5.3261,-5.3849,-5.4656,-5.5427,-5.6235,-5.7042,-5.7813,-5.7997,-5.7997,-5.7997,-5.7997,-5.7997,-5.7997,-5.7997,-5.7997,-5.7997,-5.7997,-5.7997,-5.7997,-5.7997,-5.7997,-5.7997,-5.7997,-5.7997,-5.7997,-5.7997,-5.7997,-5.7997,-5.7997,-5.7997,-5.7997,-5.7997,-5.7997,-5.7997,-5.7997,-5.7997,-5.7997,-5.7997,-5.7997,-5.796,-5.7116,-5.6308,-5.5868,-5.5427,-5.5133,-5.6492,-5.539,-5.4363,-5.5684,-5.4766,-5.3922,-5.495,-5.4766,-5.4656,-5.5427,-5.6051,-5.6308,-5.6051,-5.6455,-5.6528,0.0,-5.4913,-5.4509,-5.4766,-5.4106,-5.3702,-5.3959,-5.3518,-5.216,-4.9701,-4.9774,-4.9094,-4.7186,-4.7369,-4.7736,-4.8269,-4.8306,-4.8306,-4.8306,-4.86,-4.8746,-4.8746,-4.904,-4.9884,-5.1206,-5.1206,-5.194,-5.3203,-5.3203,-5.3203,-5.3203,-5.3203,-5.3203,-5.3203,-5.3203,-5.3203,-5.3203,-5.3203,-5.3203,-5.3203,-5.3203,-5.3203,-5.3203,-5.3203,-5.3203,-5.3203,-5.3203,-5.3203,-5.3203,-5.3203,-5.3203,-5.3203,-5.3203,-5.4179,-5.5244,-5.5559,-5.6602,-5.7666,-5.7923,-5.7997,-5.7997,-5.7997,-5.7997,-5.7997,-5.7997,-5.7997,-5.7997,-5.7997,-5.7997,-5.7997,-5.7997,-5.7997,-5.7997,-5.7997,-5.7997,-5.7997,-5.7997,-5.7997,-5.7997,-5.7997,-5.7997,-5.7997,-5.7997,-5.7997,-5.7997,-5.7997,-5.7997,-5.7997,-5.7997,-5.7997,-5.7997,-5.7997,-5.7703,-5.7152,-5.5097,-5.4803,-5.4656,-5.5684,-5.4803,-5.4032,-5.5611,-5.4766,-5.3995,-5.5317,-5.5427,-5.5244,-5.517,-5.6308,-5.7042,-5.6455,-5.6859,-5.6859,0.0,-5.4473,-5.3812,-5.4326,-5.4179,-5.4032,-5.3995,-5.3812,-5.2307,-4.8893,-4.8967,-4.8453,-4.6746,-4.6929,-4.748,-4.8269,-4.8306,-4.8306,-4.8306,-4.8306,-4.8453,-4.8746,-4.8746,-4.9627,-5.1242,-5.1242,-5.194,-5.3203,-5.3203,-5.3203,-5.3203,-5.3203,-5.3203,-5.3203,-5.3203,-5.3203,-5.3203,-5.3203,-5.3203,-5.3203,-5.3203,-5.3203,-5.3203,-5.3203,-5.3203,-5.3203,-5.3203,-5.3203,-5.3203,-5.3203,-5.3203,-5.3203,-5.3203,-5.4179,-5.517,-5.517,-5.6381,-5.7556,-5.7556,-5.7813,-5.7997,-5.7997,-5.7997,-5.7997,-5.7997,-5.7997,-5.7997,-5.7997,-5.7997,-5.7997,-5.7997,-5.7997,-5.7997,-5.7997,-5.7997,-5.7997,-5.7997,-5.7997,-5.7997,-5.7997,-5.7997,-5.7997,-5.7997,-5.7997,-5.8143,-5.8437,-5.8143,-5.8143,-5.8437,-5.8143,-5.7997,-5.7997,-5.7997,-5.7703]},{"header":{"parameterUnit":"m.s-1","parameterCategory":1,"la1":30.6,"la2":29.2853,"lo1":-89.7004,"lo2":-87.6739,"dy":0.0162,"dx":0.0183,"nx":112,"ny":82,"refTime":"2024-03-29T18:00:00:Z","depth":0,"parameterNumber":3,"parameterNumberName":"V-component_of_WINDS"},"data":[0.0,0.0,0.0,0.0,0.0,0.0,0.0,0.0,0.0,0.0,0.0,0.0,0.0,0.0,0.0,0.0,0.0,0.0,0.0,0.0,0.0,0.0,0.0,0.0,0.0,0.0,0.0,0.0,0.0,0.0,0.0,0.0,0.0,0.0,0.0,0.0,0.0,0.0,0.0,0.0,0.0,0.0,0.0,0.0,0.0,0.0,0.0,0.0,0.0,0.0,0.0,0.0,0.0,0.0,0.0,0.0,0.0,0.0,0.0,0.0,0.0,0.0,0.0,0.0,0.0,0.0,0.0,0.0,0.0,0.0,0.0,0.0,0.0,0.0,0.0,0.0,0.0,0.0,0.0,0.0,0.0,0.0,0.0,0.0,0.0,0.0,0.0,0.0,0.0,0.0,1.1301,1.2318,1.3675,1.4509,1.4509,1.4278,1.3661,1.2569,0.0,0.0,0.0,0.0,0.0,0.0,0.0,0.0,0.0,0.0,0.0,0.0,0.0,0.0,0.0,0.0,0.0,0.0,0.0,0.0,0.0,0.0,0.0,0.0,0.0,0.0,0.0,0.0,0.0,0.0,0.0,0.0,0.0,0.0,0.0,0.0,0.0,0.0,0.0,0.0,0.0,0.0,0.0,0.0,0.0,0.0,0.0,0.0,0.0,0.0,0.0,0.0,0.0,0.0,0.0,0.0,0.0,0.0,0.0,0.0,0.0,0.0,0.0,0.0,0.0,0.0,0.0,0.0,0.0,0.0,0.0,0.0,0.0,0.0,0.0,0.0,0.0,0.0,0.0,0.0,0.0,0.0,0.0,0.0,0.0,0.0,0.0,0.0,0.0,0.0,0.0,0.0,0.0,0.0,0.0,0.0,0.0,0.0,0.0,0.0,0.0,0.0,0.0,0.0,1.1341,1.2874,1.3926,1.4509,1.4509,1.3797,1.3105,1.2535,0.0,0.0,0.0,0.0,0.0,0.0,0.0,0.0,0.0,0.0,0.0,0.0,0.0,0.0,0.0,0.0,0.0,0.0,0.0,0.0,0.0,0.0,0.0,0.0,0.0,0.0,0.0,0.0,0.0,0.0,0.0,0.0,0.0,0.0,0.0,0.0,0.0,0.0,0.0,0.0,0.0,0.0,0.0,0.0,0.0,0.0,0.0,0.0,0.0,0.0,0.0,0.0,0.0,0.0,0.0,0.0,0.0,0.0,0.0,0.0,0.0,0.0,0.0,0.0,0.0,0.0,0.0,0.0,0.0,0.0,0.0,0.0,0.0,0.0,0.0,0.0,0.0,0.0,0.0,0.0,0.0,0.0,0.0,0.0,0.0,0.0,0.0,0.0,0.0,0.0,0.0,0.0,0.0,0.0,0.0,0.0,0.0,0.0,0.0,0.0,0.0,0.0,0.0,1.1165,1.1891,1.3051,1.3831,1.4272,1.4272,1.36,1.2915,1.2298,1.1755,0.0,0.0,0.0,0.0,0.0,0.0,0.0,0.0,0.0,0.0,0.0,0.0,0.0,0.0,0.0,0.0,0.0,0.0,0.0,0.0,0.0,0.0,0.0,0.0,0.0,0.0,0.0,0.0,0.0,0.0,0.0,0.0,0.0,0.0,0.0,0.0,0.0,0.0,0.0,0.0,0.0,0.0,0.0,0.0,0.0,0.0,0.0,0.0,0.0,0.0,0.0,0.0,0.0,0.0,0.0,0.0,0.0,0.0,0.0,0.0,0.0,0.0,0.0,0.0,0.0,0.0,0.0,0.0,0.0,0.0,0.0,0.0,0.0,0.0,0.0,0.0,0.0,0.0,0.0,0.0,0.0,0.0,0.0,0.0,0.0,0.0,0.0,0.0,0.0,0.0,0.0,0.0,0.0,0.0,0.0,0.0,0.0,0.0,0.0,0.0,0.0,0.0,1.176,1.2345,1.3091,1.3648,1.3966,1.3966,1.3349,1.2691,1.2047,1.1274,0.0,0.0,0.0,0.0,0.0,0.0,0.0,0.0,0.0,0.0,0.0,0.0,0.0,0.0,0.0,0.0,0.0,0.0,0.0,0.0,0.0,0.0,0.0,0.0,0.0,0.0,0.0,0.0,0.0,0.0,0.0,0.0,0.0,0.0,0.0,0.0,0.0,0.0,0.0,0.0,0.0,0.0,0.0,0.0,0.0,0.0,0.0,0.0,0.0,0.0,0.0,0.0,0.0,0.0,0.0,0.0,0.0,0.0,0.0,0.0,0.0,0.0,0.0,0.0,0.0,0.0,0.0,0.0,0.0,0.0,0.0,0.0,0.0,0.0,0.0,0.0,0.0,0.0,0.0,0.0,0.0,0.0,0.0,0.0,0.0,0.0,0.0,0.0,0.0,0.0,0.0,0.0,0.0,0.0,0.0,0.0,0.0,0.0,0.0,0.0,0.0,0.0,1.176,1.2345,1.3091,1.3464,1.3661,1.3661,1.2854,1.221,1.187,1.1016,0.0,0.0,0.0,0.0,0.0,0.0,0.0,0.0,0.0,0.0,0.0,0.0,0.0,0.0,0.0,0.0,0.0,0.0,0.0,0.0,0.0,0.0,0.0,0.0,0.0,0.0,0.0,0.0,0.0,0.0,0.0,0.0,0.0,0.0,0.0,0.0,0.0,0.0,0.0,0.0,0.0,0.0,0.0,0.0,0.0,0.0,0.0,0.0,0.0,0.0,0.0,0.0,0.0,0.0,0.0,0.0,0.0,0.0,0.0,0.0,0.0,0.0,0.0,0.0,0.0,0.0,0.0,0.0,0.0,0.0,0.0,0.0,0.0,0.0,0.0,0.0,0.0,0.0,0.0,0.0,0.0,0.0,0.0,0.0,0.0,0.0,0.0,0.0,0.0,0.0,0.0,0.0,0.0,0.0,0.0,0.0,0.0,0.0,0.0,0.0,0.0,0.0,1.4255,1.5588,1.6468,1.5723,1.5167,1.5139,1.3411,1.204,1.145,0.0,0.0,0.0,0.0,0.0,0.0,0.0,0.0,0.0,0.0,0.0,0.0,0.0,0.0,0.0,0.0,0.0,0.0,0.0,0.0,0.0,0.0,0.0,0.0,0.0,0.0,0.0,0.0,0.0,0.0,0.0,0.0,0.0,0.0,0.0,0.0,0.0,0.0,0.0,0.0,0.0,0.0,0.0,0.0,0.0,0.0,0.0,0.0,0.0,0.0,0.0,0.0,0.0,0.0,0.0,0.0,0.0,0.0,0.0,0.0,0.0,0.0,0.0,0.0,0.0,0.0,0.0,0.0,0.0,0.0,0.0,0.0,0.0,0.0,0.0,0.0,0.0,0.0,0.0,0.0,0.0,0.0,0.0,0.0,0.0,0.0,0.0,0.0,0.0,0.0,0.0,0.0,0.0,0.0,0.0,0.0,0.0,0.0,0.0,0.0,0.0,0.0,1.355,1.5037,1.6586,1.8095,1.6838,1.5789,1.5682,1.4314,1.2824,1.1125,0.0,0.0,0.0,0.0,0.0,0.0,0.0,0.0,0.0,0.0,0.0,0.0,0.0,0.0,0.0,0.0,0.0,0.0,0.0,0.0,0.0,0.0,0.0,0.0,0.0,0.0,0.0,0.0,0.0,0.0,0.0,0.0,0.0,0.0,0.0,0.0,0.0,0.0,0.0,0.0,0.0,0.0,0.0,0.0,0.0,0.0,0.0,0.0,0.0,0.0,0.0,0.0,0.0,0.0,0.0,0.0,0.0,0.0,0.0,0.0,0.0,0.0,0.0,0.0,0.0,0.0,0.0,0.0,0.0,0.0,0.0,0.0,0.0,0.0,0.0,0.0,0.0,0.0,0.0,0.0,0.0,0.0,0.0,0.0,0.0,0.0,0.0,0.0,0.0,0.0,0.0,0.0,0.0,0.0,0.0,0.0,0.0,0.0,0.0,0.0,0.0,0.0,1.3288,1.3511,1.464,1.7286,1.61,1.511,1.499,1.5643,1.4581,0.0,0.0,0.0,0.0,0.0,0.0,0.0,0.0,0.0,0.0,0.0,0.0,0.0,0.0,0.0,0.0,0.0,0.0,0.0,0.0,0.0,0.0,0.0,0.0,0.0,0.0,0.0,0.0,0.0,0.0,0.0,0.0,0.0,0.0,0.0,0.0,0.0,0.0,0.0,0.0,0.0,0.0,0.0,0.0,0.0,0.0,0.0,0.0,0.0,0.0,0.0,0.0,0.0,0.0,0.0,0.0,0.0,0.0,0.0,0.0,0.0,0.0,0.0,0.0,0.0,0.0,0.0,0.0,0.0,0.0,0.0,0.0,0.0,0.0,0.0,0.0,0.0,0.0,0.0,0.0,0.0,0.0,0.0,0.0,0.0,0.0,0.0,0.0,0.0,0.0,0.0,0.0,0.0,0.0,0.0,0.0,0.0,0.0,0.0,0.0,0.0,0.0,0.0,1.6603,1.8384,1.9939,2.1192,1.9787,1.8699,1.8595,1.6974,1.5429,1.4171,0.0,0.0,0.0,0.0,0.0,0.0,0.0,0.0,0.0,0.0,0.0,0.0,0.0,0.0,0.0,0.0,0.0,0.0,0.0,0.0,0.0,0.0,0.0,0.0,0.0,0.0,0.0,0.0,0.0,0.0,0.0,0.0,0.0,0.0,0.0,0.0,0.0,0.0,0.0,0.0,0.0,0.0,0.0,0.0,0.0,0.0,0.0,0.0,0.0,0.0,0.0,0.0,0.0,0.0,0.0,0.0,0.0,0.0,0.0,0.0,0.0,0.0,0.0,0.0,0.0,0.0,0.0,0.0,0.0,0.0,0.0,0.0,0.0,0.0,0.0,0.0,0.0,0.0,0.0,0.0,0.0,0.0,0.0,0.0,0.0,0.0,0.0,0.0,0.0,0.0,0.0,0.0,0.0,0.0,0.0,0.0,0.0,0.0,0.0,0.0,0.0,0.0,1.7928,1.9433,2.0889,2.2205,2.0866,1.9806,1.9684,1.851,1.7074,1.5347,0.0,0.0,0.0,0.0,0.0,0.0,0.0,0.0,0.0,0.0,0.0,0.0,0.0,0.0,0.0,0.0,0.0,0.0,0.0,0.0,0.0,0.0,0.0,0.0,0.0,0.0,0.0,0.0,0.0,0.0,0.0,0.0,0.0,0.0,0.0,0.0,0.0,0.0,0.0,0.0,0.0,0.0,0.0,0.0,0.0,0.0,0.0,0.0,0.0,0.0,0.0,0.0,0.0,0.0,0.0,0.0,0.0,0.0,0.0,0.0,0.0,0.0,0.0,0.0,0.0,0.0,0.0,0.0,0.0,0.0,0.0,0.0,0.0,0.0,0.0,0.0,0.0,0.0,0.0,0.0,0.0,0.0,0.0,0.0,0.0,0.0,0.0,0.0,0.0,0.0,0.0,0.0,0.0,0.0,0.0,0.0,0.0,0.0,0.0,0.0,0.0,0.0,1.8009,1.8158,1.9045,2.1354,2.031,1.9357,1.925,2.008,1.9136,1.5489,0.0,0.0,0.0,0.0,0.0,0.0,0.0,0.0,0.0,0.0,0.0,0.0,0.0,0.0,0.0,0.0,0.0,0.0,0.0,0.0,0.0,0.0,0.0,0.0,0.0,0.0,0.0,0.0,0.0,0.0,0.0,0.0,0.0,0.0,0.0,0.0,0.0,0.0,0.0,0.0,0.0,0.0,0.0,0.0,0.0,0.0,0.0,0.0,0.0,0.0,0.0,0.0,0.0,0.0,0.0,0.0,0.0,0.0,0.0,0.0,2.0654,2.0322,0.0,0.0,0.0,0.0,0.0,0.0,0.0,0.0,0.0,0.0,0.0,0.0,0.0,0.0,0.0,0.0,0.0,0.0,0.0,0.0,0.0,0.0,0.0,0.0,0.0,0.0,0.0,0.0,0.0,0.0,0.0,0.0,0.0,0.0,0.0,0.0,0.0,0.0,0.0,0.0,1.943,1.9928,2.0519,2.1483,2.1279,2.1085,2.1032,2.0601,1.9871,1.8775,1.7256,0.0,0.0,0.0,0.0,0.0,0.0,0.0,0.0,0.0,0.0,0.0,0.0,0.0,0.0,0.0,0.0,0.0,0.0,0.0,0.0,0.0,0.0,0.0,0.0,0.0,0.0,0.0,0.0,0.0,0.0,0.0,0.0,0.0,0.0,0.0,0.0,0.0,0.0,0.0,0.0,0.0,0.0,0.0,0.0,0.0,0.0,0.0,0.0,0.0,0.0,0.0,0.0,0.0,0.0,0.0,0.0,0.0,0.0,0.0,2.1964,2.1456,0.0,0.0,0.0,0.0,0.0,0.0,0.0,0.0,0.0,0.0,0.0,0.0,0.0,0.0,0.0,0.0,0.0,0.0,0.0,0.0,0.0,0.0,0.0,0.0,0.0,0.0,0.0,0.0,0.0,0.0,0.0,0.0,0.0,0.0,0.0,0.0,0.0,0.0,0.0,0.0,1.9787,2.016,2.0481,2.1132,2.1256,2.1336,2.1336,2.0655,2.0054,1.9626,1.8184,0.0,0.0,0.0,0.0,0.0,0.0,0.0,0.0,0.0,0.0,0.0,0.0,0.0,0.0,0.0,0.0,0.0,0.0,0.0,0.0,0.0,0.0,0.0,0.0,0.0,0.0,0.0,0.0,0.0,0.0,0.0,0.0,0.0,0.0,0.0,0.0,0.0,0.0,0.0,0.0,0.0,0.0,0.0,0.0,0.0,0.0,0.0,0.0,0.0,0.0,0.0,0.0,0.0,2.5037,2.5197,2.509,2.5037,2.4949,2.493,2.3354,2.2365,2.1936,2.2058,0.0,0.0,0.0,0.0,0.0,0.0,0.0,0.0,0.0,0.0,0.0,0.0,0.0,0.0,0.0,0.0,0.0,0.0,0.0,0.0,0.0,0.0,2.1042,2.1096,2.0895,2.0655,2.0615,0.0,0.0,0.0,0.0,0.0,0.0,0.0,0.0,0.0,0.0,0.0,1.9706,1.984,2.0107,2.0695,2.0962,2.1109,2.1109,2.0575,2.0,1.9479,1.8851,1.8263,0.0,0.0,0.0,0.0,0.0,0.0,0.0,0.0,0.0,0.0,0.0,0.0,0.0,0.0,0.0,0.0,0.0,0.0,0.0,0.0,0.0,0.0,0.0,0.0,0.0,0.0,0.0,0.0,0.0,0.0,0.0,0.0,2.1708,2.1897,0.0,0.0,0.0,0.0,0.0,0.0,0.0,0.0,0.0,0.0,0.0,0.0,0.0,2.4209,2.4836,2.5892,2.6319,2.6106,2.7175,2.7415,2.6907,2.6653,2.6533,2.6493,2.5758,0.0,2.3073,2.2846,0.0,0.0,0.0,0.0,0.0,0.0,0.0,0.0,0.0,0.0,0.0,0.0,0.0,0.0,0.0,0.0,0.0,0.0,0.0,0.0,0.0,0.0,2.0802,2.1042,2.0895,2.0601,2.0347,2.0067,1.9773,1.9479,1.9359,1.9225,0.0,0.0,0.0,0.0,0.0,0.0,1.976,2.0013,2.0401,2.0989,2.1082,2.1109,2.1109,2.0575,2.0094,1.976,1.8958,1.845,1.837,1.7903,0.0,0.0,0.0,0.0,0.0,0.0,0.0,0.0,0.0,0.0,0.0,0.0,0.0,0.0,0.0,0.0,0.0,0.0,0.0,0.0,0.0,0.0,0.0,0.0,0.0,0.0,0.0,0.0,0.0,2.2191,2.266,2.2058,2.2325,2.2285,0.0,0.0,0.0,0.0,0.0,0.0,0.0,0.0,0.0,2.4583,2.5625,2.6453,2.7054,2.7896,2.8337,2.8377,2.8724,2.8764,2.8497,2.8203,2.7976,2.7816,2.7562,2.6627,2.5211,2.4075,2.2993,2.1991,0.0,0.0,0.0,0.0,2.1216,2.1336,2.1162,2.1216,2.1336,2.1162,0.0,0.0,0.0,0.0,0.0,0.0,0.0,2.008,2.0508,2.0655,2.0708,2.0842,2.0895,2.0748,2.012,2.0013,1.9907,1.9452,1.9225,1.9132,1.9172,1.9011,0.0,0.0,0.0,1.8985,1.9265,1.9559,1.9907,2.0334,2.0521,2.0615,2.0615,2.0227,1.9867,1.9573,1.8891,1.8424,1.825,1.7983,1.7889,0.0,0.0,0.0,0.0,0.0,0.0,0.0,0.0,0.0,0.0,0.0,0.0,0.0,0.0,0.0,0.0,0.0,0.0,0.0,0.0,0.0,0.0,0.0,0.0,0.0,0.0,0.0,0.0,2.2901,2.3327,2.2124,2.3046,2.3247,0.0,0.0,0.0,0.0,0.0,0.0,2.3861,2.4997,2.5905,2.6573,2.7655,2.8524,2.9045,2.9566,2.9967,3.0247,3.0034,2.9927,2.9913,2.9539,2.9219,2.8925,2.8711,2.8056,2.7028,2.5344,2.3955,2.2806,2.2151,2.171,2.143,2.1363,2.147,2.1695,2.1416,2.143,2.1574,2.1296,2.0975,2.0601,2.0241,0.0,0.0,0.0,0.0,1.9907,2.0347,2.0561,2.0695,2.0775,2.0842,2.0708,2.0054,1.996,1.988,1.9511,1.9185,1.9078,1.9225,1.8891,0.0,1.8784,1.8691,1.8704,1.8998,1.9292,1.9586,1.988,2.0107,2.0167,2.0167,1.996,1.9706,1.9492,1.8851,1.8397,1.8115,1.7955,1.7862,1.7702,0.0,0.0,0.0,0.0,0.0,0.0,0.0,0.0,0.0,0.0,0.0,0.0,0.0,0.0,0.0,0.0,0.0,0.0,0.0,0.0,0.0,0.0,0.0,0.0,0.0,0.0,0.0,0.0,0.0,2.2124,2.3768,0.0,0.0,0.0,0.0,2.3674,2.4462,2.5077,2.5384,2.652,2.7511,2.81,2.9179,2.9953,3.0274,3.0581,3.0875,3.1156,3.1142,3.1142,3.1116,3.0555,3.0127,2.9806,2.8965,2.8404,2.8047,2.6559,2.517,2.4022,2.314,2.2619,2.2325,2.2044,2.1951,2.1964,2.1951,2.1777,2.1614,2.1601,2.1212,2.0575,2.0,1.98,0.0,0.0,2.0,2.0,2.0842,2.0869,2.0748,2.1029,2.0668,2.0207,2.0167,1.9786,1.9399,1.943,1.9417,1.9265,1.8998,0.0,1.8811,1.8557,1.8731,1.9011,1.9305,1.9599,1.9893,2.0174,2.0167,2.0167,2.0167,1.996,1.9786,1.9773,1.8971,1.8477,1.8464,1.7916,1.7729,1.7969,1.7742,0.0,0.0,0.0,0.0,0.0,0.0,0.0,0.0,0.0,0.0,0.0,0.0,0.0,0.0,0.0,0.0,0.0,0.0,0.0,0.0,0.0,0.0,0.0,0.0,0.0,0.0,0.0,0.0,2.4569,2.6104,0.0,2.5371,2.5464,2.5571,2.5464,2.6266,2.7068,2.7749,2.8724,2.9526,3.0114,3.0902,3.137,3.1476,3.1583,3.1597,3.1503,3.1129,3.0755,3.0368,2.998,2.9526,2.9058,2.8738,2.8323,2.7802,2.7094,2.5999,2.4676,2.3794,2.314,2.2672,2.2378,2.2378,2.2472,2.1976,2.1764,2.1737,2.1176,2.0918,2.0601,2.0201,2.008,2.0094,2.014,2.016,2.0201,2.0695,2.0615,2.0414,2.0521,2.0388,2.0134,1.976,1.9653,1.9586,1.9399,1.943,1.9332,1.9225,1.9052,1.8891,1.8784,1.8865,1.8958,1.9065,1.9345,1.9559,1.9666,1.9679,1.9679,1.9679,1.9412,1.9239,1.9239,1.8397,1.7903,1.7903,1.7328,1.7074,1.7181,1.7074,1.7208,0.0,0.0,0.0,0.0,0.0,0.0,0.0,0.0,0.0,0.0,0.0,0.0,0.0,0.0,0.0,0.0,0.0,0.0,0.0,0.0,0.0,0.0,0.0,0.0,0.0,2.4609,2.6066,2.605,2.7776,2.8577,2.7388,2.7455,2.7535,2.7442,2.815,2.8898,2.9593,3.0381,3.0982,3.1356,3.1851,3.2011,3.181,3.1904,3.1757,3.137,3.1076,3.0581,2.99,2.9619,2.9165,2.8591,2.839,2.807,2.7669,2.7281,2.6426,2.5304,2.4516,2.3781,2.314,2.2832,2.2779,2.282,2.2043,2.1817,2.1857,2.1082,2.0815,2.0762,2.0468,2.0307,2.0167,2.0167,2.016,2.016,2.0454,2.0374,2.0167,2.0167,2.016,1.9987,1.9599,1.9586,1.9599,1.9399,1.943,1.9332,1.9239,1.9052,1.8918,1.8918,1.8918,1.8958,1.9065,1.9239,1.943,1.943,1.943,1.9332,1.9225,1.9212,1.9092,1.8798,1.8223,1.7796,1.7595,1.7208,1.7007,1.7007,1.6901,1.6994,1.7288,0.0,0.0,0.0,0.0,0.0,0.0,0.0,0.0,0.0,0.0,0.0,0.0,0.0,0.0,0.0,0.0,0.0,0.0,0.0,0.0,0.0,0.0,0.0,2.3021,2.5464,2.7014,2.6291,2.8911,3.0167,2.8529,2.9312,2.986,2.9579,3.0074,3.0528,3.0822,3.137,3.1677,3.1677,3.1944,3.181,3.1249,3.1517,3.1356,3.0782,3.1049,3.0728,2.986,2.9579,2.9138,2.8551,2.7949,2.7682,2.7615,2.7041,2.6453,2.5865,2.5304,2.4543,2.3754,2.3447,2.3113,2.282,2.2178,2.1977,2.1871,2.1296,2.1109,2.1056,2.0775,2.0494,2.0254,2.0254,2.004,1.9893,2.016,2.0167,2.0214,2.0214,2.0,1.9786,1.9786,1.9559,1.943,1.943,1.943,1.9279,1.8985,1.8945,1.8945,1.8945,1.8945,0.0,1.939,1.943,1.943,1.943,1.943,1.9265,1.8958,1.9439,1.9386,1.8531,1.8437,1.8156,1.7569,1.7528,1.7528,1.7528,1.7326,1.7045,1.6687,0.0,0.0,0.0,0.0,0.0,0.0,0.0,0.0,0.0,0.0,0.0,0.0,0.0,0.0,0.0,0.0,0.0,0.0,0.0,0.0,0.0,2.3487,2.4369,2.501,2.6921,2.8617,2.9659,3.1129,3.1973,3.1477,3.1436,3.1383,3.1089,3.1223,3.1436,3.173,3.1704,3.177,3.1971,3.1851,3.1717,3.1543,3.141,3.1049,3.0474,3.0341,2.982,2.8965,2.8885,2.8524,2.7936,2.7776,2.7335,2.6734,2.6573,2.5905,2.4997,2.5064,2.4676,2.4022,2.3514,2.2859,2.2205,2.2044,2.171,2.1323,2.1162,2.1109,2.1096,2.1015,2.0935,2.0828,2.0615,2.0494,2.0401,2.0267,2.008,1.992,1.992,1.9693,1.9492,1.9492,1.9426,1.943,1.943,1.943,1.9345,1.9265,1.9239,1.9239,1.9239,1.9239,1.9279,1.9417,1.943,1.943,1.943,1.9559,1.9559,1.9265,1.8998,1.8651,1.817,1.7355,1.6807,1.6633,1.642,1.6313,1.6313,1.6647,1.6687,0.0,0.0,0.0,0.0,0.0,0.0,0.0,0.0,0.0,0.0,0.0,0.0,0.0,0.0,0.0,0.0,0.0,0.0,0.0,0.0,0.0,0.0,2.4516,2.5812,2.7068,2.835,2.9673,3.1062,3.2011,3.2643,3.2643,3.2385,3.2171,3.1877,3.1851,3.1877,3.1917,3.1757,3.1744,3.1917,3.1637,3.1423,3.1303,3.1009,3.0568,2.9993,2.982,2.9339,2.8604,2.847,2.815,2.7682,2.7442,2.6974,2.6373,2.6266,2.5585,2.4649,0.0,0.0,0.0,0.0,2.2539,2.1964,2.1844,2.1577,2.1269,2.1149,2.1109,2.1109,2.1109,2.1029,2.0869,2.0575,2.0401,2.0241,1.9947,1.9746,1.9626,1.9626,1.9492,1.943,1.943,1.943,1.943,1.943,1.943,0.0,1.943,1.943,1.943,1.943,1.943,1.943,1.943,1.943,1.943,1.943,1.9519,1.9506,1.9212,1.8985,0.0,0.0,0.0,1.6714,1.646,1.6286,0.0,0.0,0.0,1.65,1.6086,1.6603,0.0,0.0,1.7139,1.7353,0.0,0.0,0.0,0.0,0.0,0.0,0.0,0.0,0.0,0.0,0.0,0.0,0.0,0.0,0.0,0.0,2.5625,2.7161,2.8938,2.9659,3.0341,3.1223,3.2051,3.2643,3.2643,3.2616,3.2398,3.2171,3.2091,3.1957,3.173,3.169,0.0,0.0,0.0,3.1089,3.0795,3.0474,3.0034,2.9486,2.9419,2.9072,2.8497,2.8217,2.7909,2.7562,2.7014,2.6587,2.6266,2.5945,2.5291,2.4416,2.4416,2.3968,2.3153,2.2619,2.2218,2.1897,2.1708,0.0,0.0,2.1189,2.1109,2.1096,2.1069,2.0882,2.0601,2.0281,2.0,1.9733,1.9439,1.943,1.943,1.943,1.943,1.943,1.943,1.943,1.943,1.943,1.943,1.943,1.943,1.943,1.943,1.943,1.943,1.943,1.943,1.943,1.943,1.943,1.9457,0.0,1.8998,1.9158,1.8798,1.7702,1.7515,1.7194,1.6673,1.662,1.6607,1.6607,1.6607,1.6353,1.5784,1.6099,1.638,1.666,1.7045,1.7353,0.0,0.0,0.0,0.0,0.0,0.0,0.0,0.0,0.0,0.0,0.0,0.0,0.0,0.0,0.0,2.5692,2.68,2.807,2.986,3.0408,3.0942,3.1824,3.2291,3.2643,3.2643,3.2332,3.2265,3.2452,3.2024,3.1837,3.2011,3.1797,3.1557,3.1316,3.1249,3.1089,3.0795,3.0274,2.9833,2.9472,2.9005,0.0,2.7869,2.7816,2.7495,2.6974,2.6627,2.6172,2.5638,2.5117,2.4369,2.3581,2.3581,2.318,2.2579,2.2458,2.2084,2.1695,2.1641,2.1403,2.1189,2.1122,2.1109,2.1069,2.0828,2.0722,0.0,2.0027,1.984,1.9733,1.9439,1.943,1.943,1.943,1.943,1.943,1.943,1.943,1.943,1.943,1.943,1.943,1.943,1.943,1.943,1.943,1.943,1.943,1.943,1.943,1.943,1.943,1.9573,1.9599,1.9305,1.8905,1.8464,1.7929,1.7061,1.6473,1.6366,1.6126,1.5944,1.5944,1.5944,1.5939,1.5784,1.5885,1.6072,1.6366,1.6951,1.7353,0.0,0.0,0.0,0.0,0.0,0.0,0.0,0.0,0.0,0.0,0.0,2.2619,2.3207,0.0,2.5251,2.6413,2.7482,2.8564,2.9753,3.0301,3.0849,3.1583,3.1931,3.2051,3.1904,3.2158,3.2265,3.2118,3.2104,3.1984,3.1677,3.153,3.1316,3.1022,3.0728,3.0501,3.0354,2.9633,2.9192,2.9032,2.8591,2.8136,2.7696,2.7549,2.7241,2.68,2.636,2.5838,2.5224,2.4342,2.3728,2.3313,2.3153,2.2726,2.2178,2.2044,2.171,2.1336,2.1336,2.1229,2.1109,2.1109,2.1109,2.1082,2.0935,2.0788,2.0588,2.0147,1.9907,1.9733,1.9439,1.943,1.943,1.943,1.943,1.943,1.943,1.943,1.943,1.943,1.943,1.943,1.943,1.943,1.943,1.943,1.943,1.943,1.943,1.943,1.943,1.943,1.9492,1.9533,1.943,1.8691,1.8143,1.7836,1.6981,1.6486,1.6486,1.6206,1.6046,1.6046,1.5912,1.5784,1.5784,1.5784,1.6059,1.65,1.6794,1.7007,0.0,0.0,0.0,0.0,0.0,0.0,0.0,2.1643,2.1991,2.2352,2.3086,2.3848,2.4436,2.5411,2.6333,2.6974,2.7989,2.8871,2.9406,2.994,3.0448,3.0915,3.133,3.149,3.1249,3.1917,3.2198,3.1784,3.2144,3.2091,3.1436,3.1343,3.1129,3.0715,3.0247,2.9927,2.9753,2.8991,2.8604,2.8604,2.823,2.7896,2.7602,2.7308,2.6987,2.6613,2.6039,2.5424,2.4756,2.3808,2.3313,2.3126,2.2806,2.2365,2.1884,2.1762,2.1416,2.1109,2.1109,2.1109,2.1109,2.1109,2.1069,2.1015,2.0949,2.0735,2.0441,2.0147,1.9893,1.9666,1.9484,1.943,1.943,1.943,1.943,1.943,1.943,1.943,1.943,1.943,1.943,1.943,1.943,1.943,1.943,1.943,1.943,1.943,1.943,1.943,1.943,1.943,1.943,1.9345,1.9292,1.8571,1.7996,1.7689,1.7114,1.6794,1.6794,1.6513,1.6326,1.6321,1.6032,1.5885,1.5784,1.5784,1.6072,1.654,1.654,1.666,2.0679,2.1363,2.1189,2.1122,2.1309,2.1643,0.0,2.2712,2.3287,2.3834,2.4449,2.5064,2.5651,2.6293,2.7001,2.7939,2.8551,2.9112,2.9432,2.9766,2.9993,3.006,3.0782,3.1263,3.1223,3.1557,3.1851,3.2038,3.1877,3.1837,3.1998,3.1757,3.1249,3.0434,3.0341,2.994,2.9152,2.8791,2.8604,2.8604,2.803,2.7589,2.7308,2.7001,2.6573,2.6026,2.5438,2.4703,2.3901,2.3768,2.3247,2.2485,2.2205,2.1884,2.1695,2.1857,2.159,2.1109,2.1109,2.1109,2.1109,2.1109,2.0935,2.0681,2.0414,2.0134,1.984,1.9546,1.9497,1.947,1.943,1.943,1.943,1.943,1.943,1.943,1.943,1.943,1.943,1.943,1.943,1.943,1.943,1.943,1.943,1.943,1.943,1.943,1.943,1.943,1.943,1.943,1.943,1.9265,1.8998,1.8651,1.8303,1.7983,1.7422,1.7152,1.7152,1.682,1.654,1.6273,1.6246,1.6086,1.5784,1.5784,1.5811,1.5878,1.5878,1.6486,2.0987,2.159,2.1443,2.179,2.2231,2.2739,2.3327,2.3915,2.4462,2.4877,2.5571,2.6226,2.664,2.7201,2.7709,2.8167,2.8511,2.8831,2.8951,2.9219,2.9339,2.9179,2.978,3.0341,3.0688,3.1142,3.1396,3.1343,3.1543,3.1503,3.1102,3.0969,3.0581,2.9873,2.9686,2.9339,2.8791,2.8484,2.8337,2.8337,2.7909,2.7549,2.7255,2.6787,2.6159,2.5411,2.4823,2.4262,2.3741,2.3394,2.2913,2.2405,2.2285,2.1951,2.1614,2.1496,2.1323,2.1109,2.1109,2.1109,2.1109,2.1109,2.1029,2.0869,2.0575,2.0281,1.9987,1.9693,1.9492,1.943,1.943,1.943,1.943,1.943,1.943,1.943,1.943,1.943,1.943,1.943,1.943,1.943,1.943,1.943,1.943,1.943,1.943,1.943,1.943,1.943,1.943,1.943,1.943,1.9319,1.9199,1.8918,1.8691,1.8557,1.7996,1.7675,1.7675,1.7221,1.6951,1.6831,1.662,1.638,1.6086,1.6086,1.6086,1.6086,1.6086,1.6446,2.1238,2.183,2.1937,2.2525,2.318,2.3861,2.4529,2.5144,2.5665,2.6039,2.668,2.7255,2.7468,2.7939,2.8221,2.8221,2.8404,2.8577,2.8497,2.8657,2.8684,2.839,2.8591,2.9018,2.9775,3.0421,3.0782,3.0568,3.1022,3.0996,3.0274,3.0314,3.0047,2.9379,2.9152,2.8858,2.8484,2.8341,2.8181,2.81,2.7722,2.7428,2.7121,2.6453,2.5758,2.505,2.4462,2.4035,2.3728,2.3207,2.2766,2.2405,2.2338,2.1991,2.1574,2.1216,2.1109,2.1109,2.1109,2.1109,2.1096,2.1015,2.0935,2.0815,2.0521,2.0227,1.9947,1.9733,1.9533,1.943,1.943,1.943,1.943,1.943,1.943,1.943,1.943,1.943,1.943,1.943,1.943,1.943,1.943,1.9439,1.9492,1.9492,1.9492,1.9452,1.943,1.943,1.943,1.943,1.943,1.943,1.943,1.9092,1.8918,1.8918,1.8315,1.7995,1.7995,1.7542,1.7286,1.7206,1.686,1.6607,1.6393,1.6233,1.6192,1.6321,1.6192,1.6259,2.1577,2.1977,2.2539,2.3153,2.3955,2.4823,2.5705,2.6346,2.6934,2.7509,2.7883,2.8194,2.8194,2.8221,2.8221,2.8221,2.8404,2.8497,2.8288,2.8248,2.8056,2.7762,2.7241,2.7241,2.8207,2.9272,2.9953,2.994,3.0221,3.0261,2.994,3.0207,2.9953,2.9085,2.9045,2.8751,2.8248,2.8234,2.8003,2.7709,2.7415,2.7121,2.6814,2.5932,2.5371,2.505,2.4462,2.4035,2.3754,2.3434,2.2966,2.2392,2.2111,2.1817,2.1574,2.1216,2.1109,2.1109,2.1109,2.1109,2.1069,2.0775,2.0494,2.0201,1.992,1.9626,1.9399,1.9386,1.943,1.943,1.943,1.943,1.943,1.943,1.943,1.943,1.943,1.943,1.943,1.943,1.943,1.943,1.943,1.9599,1.9786,1.9786,1.9786,1.9679,1.9399,1.943,1.943,1.943,1.943,1.943,1.943,1.9092,1.8918,1.8918,1.8315,1.7995,1.7995,1.7742,1.7487,1.7206,1.686,1.67,1.6687,1.6126,1.5992,1.6308,1.5979,1.5798,2.0662,2.2151,2.3834,2.4823,2.5585,2.6266,2.6961,2.7415,2.7696,2.7696,2.7308,2.6921,2.6814,2.6774,2.6841,2.6947,2.7562,2.8043,2.8221,2.8221,2.7883,2.7201,2.7281,2.7295,2.7001,2.8043,2.8911,2.9299,2.9606,2.9646,2.9352,2.9432,2.9259,2.8764,2.8751,2.8564,2.8234,2.8221,2.7989,2.7696,2.7014,2.6426,2.5932,2.5451,2.5064,2.4756,2.4168,2.3861,2.3714,2.302,2.2485,2.2098,2.1817,2.1523,2.1243,2.1149,2.1109,2.1109,2.1109,2.1109,2.1069,2.0775,2.0615,2.0441,1.9947,1.9867,1.9867,1.9479,1.9506,1.9613,1.947,1.9506,1.9599,1.9412,1.9519,1.9599,1.947,1.943,1.943,1.943,1.9519,1.9653,1.9653,1.9893,2.0094,2.0094,2.0094,1.9907,1.9484,1.9533,1.9586,1.9444,1.943,1.943,1.943,1.9279,1.9225,1.9225,1.8851,1.8544,1.8343,1.805,1.7742,1.7487,1.7341,1.7194,1.7045,1.6607,1.6366,1.6308,1.5965,1.5784,2.0157,2.1993,2.3931,2.5843,2.6707,2.7255,2.7749,2.7923,2.7869,2.7468,2.6774,2.6119,2.5718,2.5558,2.5545,2.5732,2.6239,2.6814,2.7428,2.7511,2.735,2.7014,2.7215,2.7201,2.6747,2.7295,2.7923,2.8511,2.8938,2.9032,2.8738,2.8818,2.8751,2.8457,2.8444,2.835,2.8234,2.8221,2.7936,2.7535,2.6653,2.5985,2.5504,2.5211,2.4863,2.4449,2.3981,2.3714,2.3554,2.2752,2.2311,2.2098,2.171,2.1494,2.1256,2.1149,2.1109,2.1109,2.1109,2.1109,2.1069,2.0775,2.0681,2.0561,1.9973,1.9933,1.9987,1.9506,1.9506,1.9626,1.9546,1.9586,1.9626,1.9546,1.9586,1.9626,1.9546,1.9497,1.9484,1.9639,1.9746,1.9826,1.9933,2.0201,2.0388,2.0388,2.0481,2.0294,1.9613,1.9679,1.9693,1.9457,1.943,1.943,1.943,1.943,1.943,1.943,1.9092,1.8798,1.8504,1.8196,1.7889,1.7595,1.7527,1.7434,1.7353,1.6794,1.6513,1.642,1.6019,1.5784,2.0052,2.1597,2.3116,2.6094,2.7308,2.7789,2.814,2.7883,2.7482,2.6881,2.6253,2.5638,2.505,2.473,2.4569,2.4623,2.469,2.513,2.6306,2.6239,2.6452,2.7175,2.7028,2.6961,2.7215,2.7014,2.7094,2.7655,2.823,2.8444,2.8248,2.8417,2.8444,2.8234,2.8221,2.8221,2.8221,2.8194,2.7886,2.7215,2.6346,2.5772,2.5451,2.517,2.4716,2.4168,2.3861,2.3567,2.326,2.2632,2.2378,2.2311,2.175,2.1601,2.1561,2.1216,2.1109,2.1109,2.1109,2.1109,2.1069,2.0775,2.0681,2.0561,1.9973,1.9813,1.976,1.9452,1.9444,1.9466,1.9733,1.9613,1.9506,1.976,1.9626,1.9506,1.9773,1.9599,1.9573,2.012,2.0027,1.9933,2.0227,2.0508,2.0695,2.0695,2.0935,2.0802,1.9933,1.984,1.9733,1.9426,1.9444,1.9386,1.943,1.943,1.943,1.943,1.9105,1.8811,1.8517,1.821,1.7903,1.7609,1.7367,1.7367,1.7582,1.6777,1.646,1.6714,1.6126,1.5845,1.9454,2.1839,2.416,2.7131,2.7923,2.7989,2.7843,2.7415,2.6814,2.6012,2.4863,2.3808,2.3207,2.322,2.3607,2.4489,2.5371,2.6346,2.7535,2.7712,2.7591,2.7295,2.7388,2.7335,2.6974,2.7255,2.7535,2.7682,2.7843,2.7989,2.8221,2.8301,2.8315,2.8234,2.8221,2.8221,2.8221,2.7792,2.7188,2.66,2.5945,2.5358,2.485,2.4556,2.4222,2.3848,2.3327,2.3046,2.2913,2.2111,2.1777,2.1802,2.1363,2.1229,2.1216,2.1136,2.1109,2.1109,2.1109,2.1109,2.1069,2.0775,2.0681,2.0561,1.9973,1.9947,2.0013,1.9506,1.9679,1.9987,1.984,2.0067,2.0307,2.016,2.0241,2.0307,2.016,2.0067,2.0054,2.014,2.0347,2.0548,2.0842,2.0949,2.1002,2.1002,2.1069,2.0869,2.0214,2.0321,2.0254,1.9746,1.9693,1.9599,1.9444,1.943,1.943,1.943,1.9292,1.9118,1.8824,1.8531,1.8237,1.7876,1.7622,1.7515,1.7582,1.7192,1.7018,1.7072,1.6433,1.6152,1.9273,2.1434,2.3492,2.7246,2.8127,2.7802,2.7255,2.6667,2.5919,2.4783,2.3688,2.2752,2.2151,2.2178,2.2592,2.3514,2.4436,2.5545,2.7055,2.7377,2.7442,2.7712,2.7789,2.7762,2.7428,2.7589,2.7749,2.7883,2.7896,2.7963,2.8221,2.8221,2.8221,2.8221,2.8221,2.8167,2.7949,2.7362,2.6841,2.6386,2.5798,2.5211,2.4623,2.4342,2.3968,2.3554,2.3073,2.2792,2.2605,2.1923,2.1614,2.1588,2.1229,2.1109,2.1109,2.1109,2.1109,2.1109,2.1109,2.1109,2.1082,2.0922,2.0869,2.0775,2.0321,2.0294,2.0334,1.988,1.9987,2.0227,2.0187,2.0334,2.0468,2.0441,2.0454,2.0468,2.0441,2.0321,2.0267,2.0401,2.0668,2.0922,2.1082,2.1109,2.1109,2.1109,2.1109,2.0989,2.0655,2.0655,2.0454,1.9867,1.98,1.9679,1.9399,1.943,1.943,1.943,1.943,1.9239,1.8931,1.8651,1.8343,1.7995,1.7742,1.7582,1.7582,1.734,1.7206,1.7192,1.6673,1.646,1.8973,2.0635,2.2118,2.6609,2.7689,2.7362,2.652,2.5785,2.489,2.35,2.2726,2.2138,2.1655,2.1588,2.1856,2.2539,2.3126,2.4128,2.5932,2.64,2.6961,2.81,2.8221,2.8221,2.8221,2.7909,2.7869,2.8207,2.8194,2.8181,2.8221,2.8221,2.8207,2.8167,2.8127,2.7883,2.7589,2.7041,2.66,2.6266,2.5678,2.509,2.4516,2.4222,2.3768,2.3193,2.2886,2.2579,2.2258,2.1724,2.1561,2.1534,2.1203,2.1109,2.1109,2.1109,2.1109,2.1109,2.1109,2.1109,2.1109,2.1109,2.1109,2.1056,2.0762,2.0681,2.0615,2.0321,2.0207,2.0347,2.0615,2.0508,2.0414,2.0668,2.0535,2.0414,2.0681,2.0535,2.0428,2.0681,2.0935,2.1109,2.1109,2.1109,2.1109,2.1109,2.1109,2.1109,2.1109,2.0895,2.0508,1.992,1.9853,1.972,1.9457,1.943,1.943,1.943,1.943,1.9252,1.8998,1.8664,1.837,1.8049,1.7756,1.7582,1.7582,1.738,1.7259,1.7246,1.6901,1.6767,1.7247,1.9645,2.1925,2.464,2.6115,2.6814,2.6172,2.501,2.3781,2.2779,2.2111,2.1603,2.1243,2.139,2.2071,2.3634,2.4182,2.5104,2.7108,2.7442,2.7642,2.8167,2.8221,2.8221,2.8221,2.8181,2.8167,2.8221,2.7909,2.7883,2.8207,2.8221,2.803,2.7789,2.7535,2.7281,2.6974,2.664,2.6199,2.5665,2.5064,2.4489,2.3915,2.3607,2.3153,2.2565,2.2271,2.1977,2.1735,2.1336,2.1189,2.1176,2.1122,2.1109,2.1109,2.1109,2.1109,2.1109,2.1109,2.1109,2.1109,2.1109,2.1109,2.1056,2.0762,2.0681,2.0615,2.0321,2.0414,2.0615,2.0655,2.0815,2.0975,2.1029,2.1002,2.0975,2.1029,2.0989,2.0975,2.1029,2.1069,2.1109,2.1109,2.1109,2.1109,2.1109,2.1109,2.1109,2.1109,2.1069,2.0815,2.0214,2.016,1.9947,1.947,1.943,1.943,1.943,1.943,1.9345,1.9292,1.8771,1.8464,1.841,1.7862,1.7582,1.7582,1.7528,1.7502,1.7502,1.7259,1.7125,1.7151,1.8699,2.0129,2.2392,2.3841,2.4564,2.3664,2.3422,2.3006,2.1951,2.151,2.1283,2.1136,2.1349,2.2003,2.3086,2.3527,2.4382,2.6293,2.6694,2.7068,2.7816,2.8043,2.8221,2.8221,2.8221,2.8167,2.7923,2.7776,2.7762,2.7896,2.7762,2.7615,2.7482,2.7188,2.6894,2.66,2.6306,2.5865,2.5277,2.485,2.4329,2.3754,2.346,2.3073,2.2632,2.2178,2.1911,2.1737,2.1296,2.1109,2.1109,2.1109,2.1109,2.1109,2.1109,2.1109,2.1109,2.1109,2.1109,2.1109,2.1109,2.1109,2.1082,2.0949,2.0895,2.0869,2.0735,2.0788,2.0895,2.0895,2.1002,2.1109,2.1109,2.1109,2.1109,2.1109,2.1109,2.1109,2.1109,2.1109,2.1109,2.1109,2.1109,2.1109,2.1109,2.1109,2.1109,2.1109,2.1109,2.0949,2.0508,2.0321,2.0054,1.9626,1.9452,1.943,1.943,1.943,1.943,1.943,1.8945,1.8718,1.8718,1.8277,1.7983,1.7822,1.7822,1.7742,1.7582,1.7487,1.742,1.6669,1.7573,1.8389,2.0188,2.1327,2.1941,2.1337,2.1672,2.1883,2.1246,2.1109,2.1109,2.1109,2.1296,2.167,2.2311,2.2619,2.3394,2.517,2.5678,2.6293,2.7468,2.7869,2.8154,2.8221,2.8221,2.8016,2.7722,2.7575,2.7535,2.7602,2.7268,2.7081,2.7081,2.6734,2.644,2.6199,2.5919,2.5531,2.5077,2.4649,2.4209,2.3754,2.3394,2.302,2.2645,2.2191,2.1911,2.1764,2.1296,2.1109,2.1109,2.1109,2.1109,2.1109,2.1109,2.1109,2.1109,2.1109,2.1109,2.1109,2.1109,2.1109,2.1109,2.1109,2.1109,2.1109,2.1109,2.1109,2.1109,2.1109,2.1109,2.1109,2.1109,2.1109,2.1109,2.1109,2.1109,2.1109,2.1109,2.1109,2.1109,2.1109,2.1109,2.1109,2.1109,2.1109,2.1109,2.1109,2.1109,2.1029,2.0788,2.0441,2.0107,1.9826,1.9533,1.943,1.943,1.943,1.943,1.943,1.9078,1.8918,1.8918,1.8637,1.837,1.8089,1.8022,1.7862,1.7675,1.7609,1.7582,1.4578,1.626,1.8,1.8094,1.8714,1.9685,2.091,2.0251,1.9707,2.0858,2.1109,2.1109,2.1109,2.1136,2.143,2.2285,2.2445,2.3086,2.4863,2.5371,2.5985,2.7161,2.7562,2.7843,2.8207,2.8221,2.8016,2.7722,2.7201,2.7028,2.7295,2.6774,2.6466,2.6466,2.5919,2.5625,2.5598,2.5304,2.513,2.5064,2.4249,2.3821,2.3754,2.3166,2.2592,2.2058,2.2004,2.1683,2.1189,2.1136,2.1109,2.1109,2.1109,2.1109,2.1109,2.1109,2.1109,2.1109,2.1109,2.1109,2.1109,2.1109,2.1109,2.1109,2.1109,2.1109,2.1109,2.1109,2.1109,2.1109,2.1109,2.1109,2.1109,2.1109,2.1109,2.1109,2.1109,2.1109,2.1109,2.1109,2.1109,2.1109,2.1109,2.1109,2.1109,2.1109,2.1109,2.1109,2.1109,2.1109,2.1096,2.1069,2.0575,2.0107,1.9826,1.9533,1.943,1.943,1.943,1.943,1.943,1.9078,1.8918,1.8918,1.8637,1.8477,1.845,1.8129,1.7982,1.7942,1.7716,1.7582,1.4224,1.5106,1.5891,1.5727,1.7113,1.8575,1.8901,1.9808,2.067,2.1036,2.1109,2.1109,2.1109,2.1109,2.1216,2.1577,2.1483,2.1871,2.3273,2.3581,2.4289,2.6012,2.6466,2.6974,2.7802,2.7722,2.7415,2.6947,2.6533,2.636,2.6466,2.6413,2.6306,2.6132,2.5905,2.5611,2.5251,2.4957,2.481,2.4796,2.3928,2.3594,2.3754,2.3209,2.2632,2.2231,2.2058,2.175,2.1363,2.1189,2.1109,2.1109,2.1109,2.1109,2.1109,2.1109,2.1109,2.1109,2.1109,2.1109,2.1109,2.1109,2.1109,2.1109,2.1109,2.1109,2.1109,2.1109,2.1109,2.1109,2.1109,2.1109,2.1109,2.1109,2.1109,2.1109,2.1109,2.1109,2.1109,2.1109,2.1109,2.1109,2.1109,2.1109,2.1109,2.1109,2.1109,2.1109,2.1109,2.1109,2.1109,2.1109,2.0748,2.0454,2.0334,1.9893,1.9626,1.9626,1.9466,1.943,1.943,1.9252,1.9185,1.9185,1.9078,1.8931,1.8744,1.845,1.8223,1.7982,1.7729,1.7582,1.3926,1.4204,1.436,1.4258,1.5727,1.7253,1.7433,1.9185,2.0773,2.1022,2.1109,2.1109,2.1109,2.1109,2.1109,2.1109,2.0935,2.1149,2.2151,2.2365,2.306,2.4796,2.5264,2.5892,2.7068,2.7148,2.6961,2.6547,2.6172,2.6037,2.6037,2.6066,2.6039,2.5825,2.5651,2.5371,2.4957,2.4663,2.4516,2.4502,2.3701,2.3434,2.3621,2.3006,2.2565,2.2271,2.1977,2.1697,2.1403,2.1189,2.1109,2.1109,2.1109,2.1109,2.1109,2.1109,2.1109,2.1109,2.1109,2.1109,2.1109,2.1109,2.1109,2.1109,2.1109,2.1109,2.1109,2.1109,2.1109,2.1109,2.1109,2.1109,2.1109,2.1109,2.1109,2.1109,2.1109,2.1109,2.1109,2.1109,2.1109,2.1109,2.1109,2.1109,2.1109,2.1109,2.1109,2.1109,2.1109,2.1109,2.1109,2.1109,2.0922,2.0775,2.0681,2.0134,1.98,1.98,1.9533,1.943,1.943,1.943,1.943,1.943,1.943,1.9265,1.9052,1.8758,1.8464,1.8115,1.7862,1.7675,1.3329,1.3736,1.4075,1.4075,1.4653,1.5565,1.7105,1.8004,1.9024,2.0716,2.1109,2.1109,2.1109,2.1109,2.1109,2.1109,2.1109,2.1309,2.1911,2.2231,2.2752,2.3674,2.4048,2.4676,2.5865,2.6493,2.6827,2.6814,2.6279,2.6037,2.6037,2.5678,2.5518,2.5518,2.4957,2.4649,2.4636,2.4356,2.4209,2.4195,2.3607,2.3327,2.3313,2.2699,2.2258,2.1977,2.1748,2.139,2.1109,2.1109,2.1109,2.1109,2.1109,2.1109,2.1109,2.1109,2.1109,2.1109,2.1109,2.1109,2.1109,2.1109,2.1109,2.1109,2.1109,2.1109,2.1109,2.1109,2.1109,2.1109,2.1109,2.1109,2.1109,2.1109,2.1109,2.1109,2.1109,2.1109,2.1109,2.1109,2.1109,2.1109,2.1109,2.1109,2.1109,2.1109,2.1109,2.1109,2.1109,2.1109,2.1109,2.1109,2.1109,2.0989,2.0695,2.0134,1.98,1.98,1.9533,1.943,1.943,1.943,1.943,1.943,1.943,1.943,1.9359,1.9065,1.8771,1.8477,1.8129,1.7876,1.2535,1.2813,1.2976,1.2874,1.4554,1.639,1.6822,1.8619,2.0462,2.0982,2.1109,2.1109,2.1109,2.1109,2.1109,2.1109,2.1109,2.1176,2.1363,2.1817,2.2525,2.3634,2.509,2.6066,2.6239,2.66,2.6573,2.5972,2.5758,2.5571,2.5371,2.5077,2.501,2.5211,2.5037,2.4743,2.4342,2.4048,2.3915,2.3901,2.33,2.3006,2.2993,2.2592,2.2151,2.1748,2.1655,2.139,2.1109,2.1109,2.1109,2.1109,2.1109,2.1109,2.1109,2.1109,2.1109,2.1109,2.1109,2.1109,2.1109,2.1109,2.1109,2.1109,2.1109,2.1109,2.1109,2.1109,2.1109,2.1109,2.1109,2.1109,2.1109,2.1109,2.1109,2.1109,2.1109,2.1109,2.1109,2.1109,2.1109,2.1109,2.1109,2.1109,2.1109,2.1109,2.1109,2.1109,2.1109,2.1109,2.1109,2.1109,2.1109,2.1069,2.0975,2.0441,2.0094,2.0094,1.9639,1.943,1.943,1.943,1.943,1.943,1.943,1.943,1.943,1.9065,1.8664,1.8129,1.7876,1.7675,1.1898,1.2745,1.3381,1.3286,1.5576,1.7746,1.7585,1.9406,2.1109,2.1109,2.1109,2.1109,2.1109,2.1109,2.1109,2.1109,2.1109,2.1109,2.1109,2.1617,2.2338,2.3313,2.4957,2.5932,2.5745,2.6092,2.6146,2.5718,2.5478,2.5224,2.493,2.473,2.4623,2.4583,2.469,2.4516,2.4048,2.3754,2.3541,2.349,2.3115,2.2807,2.2525,2.2338,2.1991,2.1614,2.1494,2.1283,0.0,2.1109,2.1109,2.1109,2.1109,2.1109,2.1109,2.1109,2.1109,2.1109,2.1109,2.1109,2.1109,2.1109,2.1109,2.1109,2.1109,2.1109,2.1109,2.1109,2.1109,2.1109,2.1109,2.1109,2.1109,2.1109,2.1109,2.1109,2.1109,2.1109,2.1109,2.1109,2.1109,2.1109,2.1109,2.1109,2.1109,2.1109,2.1109,2.1109,2.1109,2.1109,2.1109,2.1109,2.1109,2.1109,2.1109,2.0575,2.0281,2.0388,1.9746,1.947,1.9533,1.9426,1.943,1.943,1.943,1.943,1.943,1.9065,1.8731,1.8315,1.7956,1.7756,0.0,1.316,1.477,1.477,1.7109,1.9324,1.9152,2.0157,0.0,2.1109,2.1109,2.1109,2.1109,2.1109,2.1109,2.1109,2.1109,2.1109,2.1109,2.167,2.2298,2.2859,2.3968,2.469,2.4562,2.517,2.5625,2.5879,2.5371,2.4917,2.4623,2.4583,2.4315,2.3754,2.3995,2.4008,2.3741,2.3447,2.314,2.2832,2.2832,2.2525,2.1951,2.1977,2.1817,2.1574,2.1229,2.1109,2.1109,2.1109,2.1109,2.1109,2.1109,2.1109,2.1109,2.1109,2.1109,2.1109,2.1109,2.1109,2.1109,2.1109,2.1109,2.1109,2.1109,2.1109,2.1109,2.1109,2.1109,2.1109,2.1109,2.1109,2.1109,2.1109,2.1109,2.1109,2.1109,2.1109,2.1109,2.1109,2.1109,2.1109,2.1109,2.1109,2.1109,2.1109,2.1109,2.1109,2.1109,2.1109,2.1109,2.1109,2.1109,2.1109,2.1109,2.0588,2.0374,2.0628,1.9867,1.9519,1.9786,1.9519,1.943,1.9457,1.943,1.943,1.943,1.9065,1.8918,1.8905,1.8262,1.7995,1.0894,0.0,1.3645,1.3645,1.6215,1.8722,0.0,1.9952,2.1109,2.1109,2.1109,2.1109,2.1109,2.1109,2.1109,2.1109,2.1109,2.1109,2.1109,2.2205,2.3153,2.3514,2.4596,2.513,2.4602,2.517,2.5451,2.5304,2.4943,2.4609,2.4315,2.4102,2.3808,2.3447,2.35,2.35,2.3434,2.3126,2.2819,2.2525,2.2525,2.2218,2.1722,2.1884,2.171,2.1203,2.1136,2.1109,2.1109,2.1109,2.1109,2.1109,2.1109,2.1109,2.1109,2.1109,2.1109,2.1109,2.1109,2.1109,2.1109,2.1109,2.1109,2.1109,2.1109,2.1109,2.1109,2.1109,2.1109,2.1109,2.1109,2.1109,2.1109,2.1109,2.1109,2.1109,2.1109,2.1109,2.1109,2.1109,2.1109,2.1109,2.1109,2.1109,2.1109,2.1109,2.1109,2.1109,2.1109,2.1109,2.1109,2.1109,2.1109,2.1109,2.1109,2.0775,2.0508,2.0347,1.9933,1.9733,1.98,1.9519,1.9466,1.9693,1.9479,1.943,1.943,1.9065,1.8918,1.8905,1.8262,1.7995,1.0717,1.2545,1.4493,1.4493,1.7076,1.9674,1.9674,2.0386,2.1109,2.1109,2.1109,2.1069,2.0935,2.0909,2.0909,2.0909,2.0909,2.1056,2.1456,2.2205,2.2979,2.3688,2.4449,2.489,2.4836,2.4877,2.4903,2.4877,2.4476,2.4115,2.3821,2.3781,2.3567,2.3126,2.3247,2.326,2.3113,2.2806,2.2512,2.2218,2.2218,2.1911,2.1363,2.1657,2.1537,2.1109,2.1109,2.1109,2.1109,2.1109,2.1109,2.1109,2.1109,2.1109,2.1109,2.1109,2.1109,2.1109,2.1109,2.1109,2.1109,2.1109,2.1109,2.1109,2.1109,2.1109,2.1109,2.1109,2.1109,2.1109,2.1109,2.1109,2.1109,2.1109,2.1109,2.1109,2.1109,2.1109,2.1109,2.1109,2.1109,2.1109,2.1109,2.1109,2.1109,2.1109,2.1109,2.1109,2.1109,2.1109,2.1109,2.1109,2.1109,2.1109,2.1109,2.0962,2.0802,2.0641,2.0241,2.0067,2.0201,1.992,1.9773,1.98,1.9519,1.943,1.943,1.9199,1.9132,1.9118,1.8664,1.8384,1.1049,1.3456,1.5913,1.5913,1.85,2.1109,2.1109,2.1109,2.1109,2.1109,2.1109,2.1015,2.0735,2.0681,2.0681,2.0681,2.0748,2.1122,2.1991,2.2124,2.2512,2.3581,2.3995,2.4369,2.477,2.4449,2.4289,2.4489,2.4008,2.3594,2.334,2.3527,2.3394,2.2941,2.3073,2.306,2.2792,2.2498,2.2205,2.1924,2.1924,2.163,2.1122,2.148,2.139,2.1109,2.1109,2.1109,2.1109,2.1109,2.1109,2.1109,2.1109,2.1109,2.1109,2.1109,2.1109,2.1109,2.1109,2.1109,2.1109,2.1109,2.1109,2.1109,2.1109,2.1109,2.1109,2.1109,2.1109,2.1109,2.1109,2.1109,2.1109,2.1109,2.1109,2.1109,2.1109,2.1109,2.1109,2.1109,2.1109,2.1109,2.1109,2.1109,2.1109,2.1109,2.1109,2.1109,2.1109,2.1109,2.1109,2.1109,2.1109,2.1109,2.1109,2.1109,2.1109,2.1109,2.0601,2.0388,2.0601,2.0361,2.0094,1.9813,1.9519,1.943,1.943,1.943,1.943,1.9417,1.9065,1.8784,1.2479,1.4362,1.5913,1.5913,1.85,2.1109,2.1109,2.1109,2.1109,2.1109,2.1109,2.1015,2.0735,2.0681,2.0681,2.0681,2.1159,2.1789,2.2673,2.2726,2.2886,2.334,2.3875,2.4048,2.3634,2.3968,2.4115,2.3915,2.3594,2.338,2.3327,2.3126,2.3035,2.2928,2.2659,2.2539,2.2485,2.2205,2.1911,2.1681,2.1681,2.1443,2.1122,2.148,2.139,2.1109,2.1109,2.1109,2.1109,2.1109,2.1109,2.1109,2.1109,2.1109,2.1109,2.1109,2.1109,2.1109,2.1109,2.1109,2.1109,2.1109,2.1109,2.1109,2.1109,2.1109,2.1109,2.1109,2.1109,2.1109,2.1109,2.1109,2.1109,2.1109,2.1109,2.1109,2.1109,2.1109,2.1109,2.1109,2.1109,2.1109,2.1109,2.1109,2.1109,2.1109,2.1109,2.1109,2.1109,2.1109,2.1109,2.1109,2.1109,2.1109,2.1109,2.1109,2.1109,2.1109,2.0788,2.0521,2.0307,2.0254,2.0094,1.9813,1.9519,1.943,1.943,1.943,1.943,1.9417,1.9065,1.8905,1.4456,1.5978,1.7269,1.7269,1.9228,2.1109,2.1109,2.1109,2.1109,2.1109,2.1109,2.1015,2.0735,2.0681,2.0722,2.0882,2.1403,2.1977,2.2539,2.2485,2.2686,2.3474,2.3514,2.3567,2.3781,2.3754,2.3674,2.3541,2.3247,2.3006,2.2846,2.2846,2.2792,2.2632,2.2485,2.2338,2.2191,2.1897,2.1748,2.1614,2.139,2.1243,2.1109,2.1256,2.1243,2.1109,2.1109,2.1109,2.1109,2.1109,2.1109,2.1109,2.1109,2.1109,2.1109,2.1109,2.1109,2.1109,2.1109,2.1109,2.1109,2.1109,2.1109,2.1109,2.1109,2.1109,2.1109,2.1109,2.1109,2.1109,2.1109,2.1109,2.1109,2.1109,2.1109,2.1109,2.1109,2.1109,2.1109,2.1109,2.1109,2.1109,2.1109,2.1109,2.1109,2.1109,2.1109,2.1109,2.1109,2.1109,2.1109,2.1109,2.1109,2.1109,2.1109,2.1109,2.1109,2.1109,2.0989,2.0842,2.0708,2.0401,2.0113,2.004,1.9599,1.943,1.943,1.943,1.943,1.9417,1.9225,1.9078,1.6304,1.7474,1.8512,1.8512,1.9801,2.1122,2.1203,2.1216,2.1216,2.1216,2.1216,2.1082,2.0655,2.0628,2.0775,2.1069,2.1724,2.2311,2.2686,2.2485,2.2686,2.3754,2.334,2.3247,2.3928,2.3594,2.33,2.322,2.2926,2.2659,2.2432,2.2565,2.2552,2.2325,2.2258,2.2111,2.1884,2.159,2.1443,2.1507,2.1216,2.1109,2.1109,2.1109,2.1109,2.1109,2.1109,2.1109,2.1109,2.1109,2.1109,2.1109,2.1109,2.1109,2.1109,2.1109,2.1109,2.1109,2.1109,2.1109,2.1109,2.1109,2.1109,2.1109,2.1109,2.1109,2.1109,2.1109,2.1109,2.1109,2.1109,2.1109,2.1109,2.1109,2.1109,2.1109,2.1109,2.1109,2.1109,2.1109,2.1109,2.1109,2.1109,2.1109,2.1109,2.1109,2.1109,2.1109,2.1109,2.1109,2.1109,2.1109,2.1109,2.1109,2.1109,2.1109,2.1109,2.1109,2.1109,2.1082,2.1015,2.0508,2.0201,2.0134,1.9626,1.943,1.943,1.943,1.943,1.943,1.943,1.9239,1.7791,1.8384,1.8512,1.8512,1.9801,2.1189,2.1521,2.1588,2.1588,2.1588,2.1588,2.1269,2.0414,2.0494,2.0775,2.1069,2.2058,2.3075,2.3594,2.342,2.346,2.4102,2.3647,2.3327,2.338,2.3354,2.3207,2.2913,2.2619,2.2445,2.2418,2.2191,2.2044,2.2017,2.1815,2.1668,2.1655,2.1296,2.1149,2.1149,2.1122,2.1109,2.1109,2.1109,2.1109,2.1109,2.1109,2.1109,2.1109,2.1109,2.1109,2.1109,2.1109,2.1109,2.1109,2.1109,2.1109,2.1109,2.1109,2.1109,2.1109,2.1109,2.1109,2.1109,2.1109,2.1109,2.1109,2.1109,2.1109,2.1109,2.1109,2.1109,2.1109,2.1109,2.1109,2.1109,2.1109,2.1109,2.1109,2.1109,2.1109,2.1109,2.1109,2.1109,2.1109,2.1109,2.1109,2.1109,2.1109,2.1109,2.1109,2.1109,2.1109,2.1109,2.1109,2.1109,2.1109,2.1109,2.1109,2.0989,2.0722,2.0401,2.0107,1.984,1.9533,1.943,1.943,1.943,1.943,1.943,1.943,1.9417,1.9562,1.9877,1.9877,1.9877,2.0522,2.1189,2.1547,2.1762,2.1764,2.1655,2.1844,2.1817,2.0935,2.1015,2.132,2.1363,2.2218,2.3006,2.3434,2.3394,2.3474,2.3888,2.3407,2.3113,2.3313,2.3153,2.2913,2.2605,2.2485,2.2258,2.1897,2.1951,2.1897,2.1789,2.1681,2.1614,2.1614,2.1256,2.1109,2.1109,2.1109,2.1109,2.1109,2.1109,2.1109,2.1109,2.1109,2.1109,2.1109,2.1109,2.1109,2.1109,2.1109,2.1109,2.1109,2.1109,2.1109,2.1109,2.1109,2.1109,2.1109,2.1109,2.1109,2.1109,2.1109,2.1109,2.1109,2.1109,2.1109,2.1109,2.1109,2.1109,2.1109,2.1109,2.1109,2.1109,2.1109,2.1109,2.1109,2.1109,2.1109,2.1109,2.1109,2.1109,2.1109,2.1109,2.1109,2.1109,2.1109,2.1109,2.1109,2.1109,2.1109,2.1109,2.1109,2.1109,2.1109,2.1109,2.1109,2.1056,2.0949,2.0481,2.0127,2.0067,1.9599,1.943,1.943,1.943,1.943,1.943,1.943,1.943,2.0428,2.0601,2.0681,2.0681,2.0828,2.1096,2.1577,2.1844,2.1977,2.2043,2.1991,2.1857,2.1349,2.1269,2.14,2.1588,2.2351,2.2966,2.3287,2.3247,2.33,2.3594,2.3006,2.2712,2.3006,2.2766,2.2498,2.2298,2.2205,2.1977,2.1641,2.1657,2.1617,2.1416,2.1416,2.1416,2.1416,2.1216,2.1109,2.1109,2.1109,2.1109,2.1109,2.1109,2.1109,2.1109,2.1109,2.1109,2.1109,2.1109,2.1109,2.1109,2.1109,2.1109,2.1109,2.1109,2.1109,2.1109,2.1109,2.1109,2.1109,2.1109,2.1109,2.1109,2.1109,2.1109,2.1109,2.1109,2.1109,2.1109,2.1109,2.1109,2.1109,2.1109,2.1109,2.1109,2.1109,2.1109,2.1109,2.1109,2.1109,2.1109,2.1109,2.1109,2.1109,2.1109,2.1109,2.1109,2.1109,2.1109,2.1109,2.1109,2.1109,2.1109,2.1109,2.1109,2.1109,2.1109,2.1109,2.1069,2.0975,2.0588,2.0281,2.0094,1.9706,1.9452,1.943,1.943,1.943,1.943,1.943,1.943,2.0227,2.0441,2.0668,2.0668,2.0681,2.0909,2.1777,2.1977,2.2151,2.2739,2.1924,2.1216,2.1574,2.1145,2.0882,2.1521,2.2351,2.2966,2.3273,2.3046,2.2966,2.3273,2.2525,2.2098,2.2392,2.2151,2.1991,2.1977,2.1775,2.1614,2.1614,2.1269,2.1109,2.1109,2.1109,2.1109,2.1109,2.1109,2.1109,2.1109,2.1109,2.1109,2.1109,2.1109,2.1109,2.1109,2.1109,2.1109,2.1109,2.1109,2.1109,2.1109,2.1109,2.1109,2.1109,2.1109,2.1109,2.1109,2.1109,2.1109,2.1109,2.1109,2.1109,2.1109,2.1109,2.1109,2.1109,2.1109,2.1109,2.1109,2.1109,2.1109,2.1109,2.1109,2.1109,2.1109,2.1109,2.1109,2.1109,2.1109,2.1109,2.1109,2.1109,2.1109,2.1109,2.1109,2.1109,2.1109,2.1109,2.1109,2.1109,2.1109,2.1109,2.1109,2.1109,2.1109,2.1109,2.1109,2.1109,2.0975,2.0695,2.0681,2.0401,1.9813,1.98,1.9653,1.943,1.943,1.943,1.943,1.943,1.943,1.9867,1.9987,2.0107,2.0307,2.0681,2.1109,2.1641,2.1748,2.1909,2.2432,2.2271,2.1991,2.1884,2.171,2.1657,2.183,2.2071,2.2352,2.2645,2.2432,2.2285,2.2378,2.2151,2.2017,2.2111,2.2031,2.1897,2.1762,2.1668,2.1521,2.1256,2.1162,2.1109,2.1109,2.1109,2.1109,2.1109,2.1109,2.1109,2.1109,2.1109,2.1109,2.1109,2.1109,2.1109,2.1109,2.1109,2.1109,2.1109,2.1109,2.1109,2.1082,2.0882,2.0922,2.1082,2.0882,2.0935,2.1109,2.1109,2.1109,2.1109,2.1109,2.1109,2.1109,2.1109,2.1109,2.1109,2.1109,2.1109,2.1109,2.1109,2.1109,2.1109,2.1109,2.1109,2.1109,2.1109,2.1109,2.1109,2.1109,2.1109,2.1109,2.1109,2.1109,2.1109,2.1109,2.1109,2.1109,2.1109,2.1109,2.1109,2.1109,2.1109,2.1109,2.1109,2.1109,2.1109,2.1109,2.1109,2.1069,2.0989,2.0788,2.0494,2.0107,1.9907,1.9653,1.943,1.943,1.943,1.943,1.943,1.943,1.9786,1.988,2.004,2.0334,2.0588,2.0869,2.1283,2.183,2.2352,2.2712,2.2592,2.2405,2.2338,2.1951,2.175,2.2098,2.1964,2.1951,2.2365,2.2071,2.1857,2.1977,2.1777,2.1683,2.1804,2.171,2.1563,2.139,2.1376,2.1296,2.1122,2.1109,2.1056,2.0935,2.1042,2.1056,2.0935,2.1056,2.1109,2.1109,2.1109,2.1042,2.0935,2.1056,2.1109,2.1109,2.1109,2.1042,2.0935,2.0935,2.0869,2.0748,2.0561,2.0681,2.0909,2.0735,2.0855,2.1109,2.1109,2.1109,2.1109,2.1109,2.1109,2.1109,2.1109,2.1109,2.1109,2.1109,2.1109,2.1109,2.1109,2.1109,2.1109,2.1109,2.1109,2.1109,2.1109,2.1109,2.1109,2.1109,2.1109,2.1109,2.1109,2.1109,2.1109,2.1109,2.1109,2.1109,2.1109,2.1109,2.1109,2.1109,2.1109,2.1109,2.1109,2.1109,2.1109,2.1109,2.1109,2.1109,2.1109,2.0935,2.0708,2.0414,2.0241,1.9947,1.9546,1.9546,1.9479,1.943,1.943,1.943,1.9867,2.0013,2.0307,2.0601,2.0508,2.0494,2.1056,2.2231,2.3207,2.3207,2.2832,2.2565,2.2779,2.1951,2.1483,2.2258,2.1911,2.1802,2.2271,2.1857,2.1603,2.1871,2.143,2.1216,2.1547,2.1269,2.1109,2.1109,2.1109,2.1096,2.1069,2.1069,2.0935,2.0641,2.0895,2.0909,2.0641,2.0895,2.1029,2.1029,2.1029,2.0895,2.0641,2.0935,2.1056,2.1029,2.1029,2.0882,2.0641,2.0641,2.0481,2.0227,2.014,2.0374,2.0628,2.0601,2.0775,2.1029,2.1056,2.1069,2.1069,2.1096,2.1109,2.1109,2.1109,2.1109,2.1109,2.1109,2.1109,2.1109,2.1109,2.1109,2.1109,2.1109,2.1109,2.1109,2.1109,2.1109,2.1109,2.1109,2.1109,2.1109,2.1109,2.1109,2.1109,2.1109,2.1109,2.1109,2.1109,2.1109,2.1109,2.1109,2.1109,2.1109,2.1109,2.1109,2.1109,2.1109,2.1109,2.1109,2.1109,2.1109,2.0975,2.0681,2.0681,2.0401,1.984,1.9813,1.9666,1.947,1.943,1.943,1.9813,2.0013,2.0307,2.0601,2.0975,2.1363,2.171,2.2044,2.2271,2.2271,2.2726,2.3006,2.2592,2.2311,2.2124,2.2084,2.1777,2.1655,2.1789,2.143,2.1229,2.1296,2.1189,2.1136,2.1203,2.1149,2.1109,2.1109,2.1109,2.1002,2.0775,2.0775,2.0628,2.0334,2.0388,2.0388,2.0334,2.0388,2.0366,2.0366,2.0366,2.0388,2.0334,2.0628,2.0641,2.0366,2.0366,2.0388,2.0334,2.0334,2.0294,2.0153,1.9987,2.0067,2.0294,2.0067,2.0174,2.0454,2.0695,2.0775,2.0802,2.1029,2.1109,2.1109,2.1109,2.1109,2.1109,2.1109,2.1109,2.1109,2.1109,2.1109,2.1109,2.1109,2.1109,2.1109,2.1109,2.1109,2.1109,2.1109,2.1109,2.1109,2.1109,2.1109,2.1109,2.1109,2.1109,2.1109,2.1109,2.1109,2.1109,2.1109,2.1109,2.1109,2.1109,2.1109,2.1109,2.1109,2.1109,2.1109,2.1109,2.1109,2.0975,2.0681,2.0681,2.0494,2.0134,1.9907,1.9773,1.9706,1.9466,1.943,1.98,2.0013,2.0307,2.0601,2.1186,2.1655,2.1815,2.1884,2.1991,2.1991,2.2365,2.2632,2.2445,2.2191,2.2004,2.1991,2.1617,2.139,2.1601,2.1296,2.1109,2.1109,2.1109,2.1109,2.1109,2.0989,2.0909,2.0909,2.0775,2.0628,2.0468,2.0468,2.0334,2.004,2.016,2.0174,2.0027,2.016,2.0167,2.0167,2.0167,2.016,2.004,2.0334,2.0374,2.0167,2.0167,2.0147,2.0027,2.0027,1.9947,1.98,1.9653,1.9773,2.0,1.9853,1.9987,2.0193,2.0414,2.0468,2.0508,2.0802,2.0909,2.0922,2.1069,2.1109,2.1109,2.1109,2.1109,2.1109,2.1109,2.1109,2.1109,2.1109,2.1109,2.1109,2.1109,2.1109,2.1109,2.1109,2.1109,2.1109,2.1109,2.1109,2.1109,2.1109,2.1109,2.1109,2.1109,2.1109,2.1109,2.1109,2.1109,2.1109,2.1109,2.1109,2.1109,2.1109,2.1109,2.1109,2.1109,2.1109,2.1042,2.0882,2.0882,2.0735,2.0441,2.0294,2.008,1.98,1.9639,1.9506,1.98,2.0013,2.0307,2.0601,2.1105,2.148,2.1534,2.1657,2.1844,2.1897,2.1951,2.2044,2.2231,2.1884,2.1681,2.1804,2.143,2.1189,2.1443,2.1269,2.1096,2.1042,2.1082,2.1069,2.0962,2.0788,2.0655,2.0601,2.0374,2.0153,2.016,2.016,2.0027,1.9733,1.996,1.9973,1.9733,1.996,2.008,2.008,2.008,1.996,1.9733,1.9973,2.008,2.008,2.008,1.9947,1.972,1.972,1.9586,1.943,1.943,1.9519,1.972,1.972,1.988,2.0094,2.0134,2.016,2.0214,2.0508,2.0601,2.0655,2.0949,2.1029,2.1042,2.1096,2.1109,2.1109,2.1109,2.1109,2.1109,2.1109,2.1109,2.1109,2.1109,2.1109,2.1109,2.1109,2.1109,2.1109,2.1109,2.1109,2.1109,2.1109,2.1109,2.1109,2.1109,2.1109,2.1109,2.1109,2.1109,2.1109,2.1109,2.1109,2.1109,2.1109,2.1109,2.1109,2.1109,2.1109,2.1109,2.1109,2.1109,2.0989,2.0748,2.0655,2.0347,1.9867,1.9773,1.9599,1.98,2.0013,2.0307,2.0601,2.0735,2.0855,2.1109,2.1203,2.1296,2.1563,2.1804,2.1924,2.171,2.1668,2.1547,2.1269,2.1162,2.1122,2.1162,2.1136,2.1015,2.0762,2.0962,2.0909,2.0401,2.0548,2.0575,2.0307,2.0254,2.012,1.9867,1.9853,1.972,1.9439,1.9466,1.9466,1.9426,1.9466,1.9479,1.9479,1.9479,1.9466,1.9426,1.9466,1.9479,1.9479,1.9479,1.9466,1.9426,1.9426,1.9399,1.943,1.943,1.9399,1.9426,1.9426,1.9511,1.9519,1.9773,1.9853,1.9907,2.0201,2.0294,2.0347,2.0641,2.0735,2.0788,2.1042,2.1109,2.1109,2.1109,2.1109,2.1109,2.1109,2.1109,2.1109,2.1109,2.1109,2.1109,2.1109,2.1109,2.1109,2.1109,2.1109,2.1109,2.1109,2.1109,2.1109,2.1109,2.1109,2.1109,2.1109,2.1109,2.1109,2.1109,2.1109,2.1109,2.1109,2.1109,2.1109,2.1109,2.1109,2.1109,2.1109,2.1109,2.1096,2.1056,2.0535,2.0254,2.016,1.9653,1.9399,1.976,1.9893,2.0067,2.0361,2.0548,2.0708,2.0842,2.0989,2.1149,2.1269,2.1403,2.151,2.1614,2.148,2.1256,2.1136,2.1109,2.1056,2.0895,2.0869,2.0762,2.0468,2.0535,2.0521,2.0254,2.0201,2.0134,2.0,1.984,1.9693,1.9559,1.9559,1.9506,1.943,1.943,1.943,1.943,1.943,1.943,1.943,1.943,1.943,1.943,1.943,1.943,1.943,1.943,1.943,1.943,1.943,1.943,1.943,1.943,1.943,1.943,1.943,1.943,1.9444,1.9506,1.9559,1.9599,1.9893,1.9987,2.004,2.0334,2.0548,2.0695,2.0828,2.0989,2.1109,2.1109,2.1109,2.1109,2.1109,2.1109,2.1109,2.1109,2.1109,2.1109,2.1109,2.1109,2.1109,2.1109,2.1109,2.1109,2.1109,2.1109,2.1109,2.1109,2.1109,2.1109,2.1109,2.1109,2.1109,2.1109,2.1109,2.1109,2.1109,2.1109,2.1109,2.1109,2.1109,2.1109,2.1109,2.1109,2.1109,2.1109,2.0855,2.0548,2.0167,1.9973,1.9679,1.9626,1.9693,1.976,2.0054,2.0294,2.0494,2.0641,2.0788,2.0909,2.0989,2.1002,2.1069,2.136,2.1216,2.1082,2.1015,2.1069,2.0989,2.0615,2.0628,2.0535,2.016,2.0187,2.0174,2.0027,1.988,1.9773,1.9693,1.9492,1.943,1.943,1.943,1.943,1.943,1.943,1.943,1.943,1.943,1.943,1.943,1.943,1.943,1.943,1.943,1.943,1.943,1.943,1.943,1.943,1.943,1.943,1.943,1.943,1.943,1.943,1.943,1.943,1.943,1.943,1.943,1.9399,1.9626,1.9693,1.9746,2.004,2.0334,2.0575,2.0655,2.0882,2.1109,2.1109,2.1109,2.1109,2.1109,2.1109,2.1109,2.1109,2.1109,2.1109,2.1109,2.1109,2.1109,2.1109,2.1109,2.1109,2.1109,2.1109,2.1109,2.1109,2.1109,2.1109,2.1109,2.1109,2.1109,2.1109,2.1109,2.1109,2.1109,2.1109,2.1109,2.1109,2.1109,2.1109,2.1109,2.1109,2.1109,2.1109,2.1029,2.0735,2.0167,2.016,1.9853,1.9444,1.9444,1.9466,1.9746,1.9826,1.9987,2.0548,2.0468,2.0361,2.0641,2.0695,2.0708,2.0722,2.0935,2.1015,2.0748,2.0922,2.0909,2.0334,2.0494,2.0468,1.9893,2.0067,2.0013,1.9466,1.9653,1.9679,1.947,1.943,1.943,1.943,1.943,1.943,1.943,1.943,1.943,1.943,1.943,1.943,1.943,1.943,1.943,1.943,1.943,1.943,1.943,1.943,1.943,1.943,1.943,1.943,1.943,1.943,1.943,1.943,1.943,1.943,1.943,1.943,1.943,1.943,1.9444,1.9444,1.9439,1.9733,2.0027,2.0307,2.0601,2.0882,2.1109,2.1109,2.1109,2.1109,2.1109,2.1109,2.1109,2.1109,2.1109,2.1109,2.1109,2.1109,2.1109,2.1109,2.1109,2.1109,2.1109,2.1109,2.1109,2.1109,2.1109,2.1109,2.1109,2.1109,2.1109,2.1109,2.1109,2.1109,2.1109,2.1109,2.1109,2.1109,2.1109,2.1109,2.1109,2.1109,2.1109,2.1109,2.0828,2.0535,2.0167,1.9947,1.9653,1.943,1.943,1.9439,1.9733,1.9653,1.9626,2.0027,2.0027,1.9987,2.0094,2.0267,2.0388,2.0388,2.0628,2.0802,2.0695,2.0601,2.0414,2.0013,2.0054,1.996,1.9573,1.9613,1.9599,1.9444,1.9466,1.9479,1.943,1.943,1.943,1.943,1.943,1.943,1.943,1.943,1.943,1.943,1.943,1.943,1.943,1.943,1.943,1.943,1.943,1.943,1.943,1.943,1.943,1.943,1.943,1.943,1.943,1.943,1.943,1.943,1.943,1.943,1.943,1.943,1.943,1.943,1.943,1.943,1.9444,1.9492,1.9853,2.0254,2.0361,2.0735,2.1109,2.1109,2.1109,2.1109,2.1109,2.1109,2.1109,2.1109,2.1109,2.1109,2.1109,2.1109,2.1109,2.1109,2.1109,2.1109,2.1109,2.1109,2.1109,2.1109,2.1109,2.1109,2.1109,2.1109,2.1109,2.1109,2.1109,2.1109,2.1109,2.1109,2.1109,2.1109,2.1109,2.1109,2.1109,2.1109,2.1109,2.1109,2.1002,2.0802,2.0508,2.0214,1.992,1.943,1.943,1.9412,1.9599,1.9506,1.947,1.9613,1.9573,1.9533,1.9639,1.9813,1.9973,2.0067,2.0254,2.0388,2.0388,2.0294,2.0094,1.9706,1.9733,1.9693,1.9399,1.943,1.943,1.943,1.943,1.943,1.943,1.943,1.943,1.943,1.943,1.9319,1.9225,1.9319,1.9279,1.9078,1.9172,1.9225,1.9225,1.9225,1.9265,1.943,1.943,1.943,1.943,1.943,1.943,1.943,1.943,1.943,1.943,1.943,1.943,1.943,1.943,1.943,1.943,1.943,1.943,1.943,1.943,1.943,1.9444,1.9479,1.9853,2.0193,2.0361,2.0735,2.1109,2.1109,2.1109,2.1109,2.1109,2.1109,2.1109,2.1109,2.1109,2.1109,2.1109,2.1109,2.1109,2.1109,2.1109,2.1109,2.1109,2.1109,2.1109,2.1109,2.1109,2.1109,2.1109,2.1109,2.1109,2.1109,2.1109,2.1109,2.1109,2.1109,2.1109,2.1109,2.1109,2.1109,2.1109,2.1109,2.1109,2.1109,2.1109,2.0909,2.0521,2.0428,2.0174,0.0,0.0,0.0,1.943,1.943,1.9417,1.9417,1.9132,1.8998,1.9279,1.9403,1.9439,1.9706,1.976,1.976,1.9773,2.0013,2.0013,1.9452,1.9613,1.9679,1.9457,1.943,1.943,1.943,1.943,1.943,1.943,1.943,1.943,1.943,1.943,1.9225,1.8931,1.9199,1.9078,1.8504,1.8771,1.8918,1.8918,1.8918,1.9078,1.943,1.943,1.943,1.943,1.943,1.943,1.943,1.943,1.943,1.943,1.943,1.943,1.943,1.943,1.943,1.943,1.943,1.943,1.943,1.943,1.943,1.9426,1.972,2.0,2.0294,2.0588,2.0882,2.1109,2.1109,2.1109,2.1109,2.1109,2.1109,2.1109,2.1109,2.1109,2.1109,2.1109,2.1109,2.1109,2.1109,2.1109,2.1109,2.1109,2.1109,2.1109,2.1109,2.1109,2.1109,2.1109,2.1109,2.1109,2.1109,2.1109,2.1109,2.1109,2.1109,2.1109,2.1109,2.1109,2.1109,2.1109,2.1109,2.1109,2.1109,2.1109,2.0815,2.0207,2.0548,2.0361,1.943,0.0,0.0,0.0,0.0,0.0,1.9319,1.9132,1.8891,1.8758,1.8905,1.9011,1.8878,1.8851,1.8918,1.9132,1.9412,1.9546,1.9444,1.9439,1.9452,1.943,1.943,1.943,1.943,1.943,1.943,1.943,1.943,1.943,1.943,1.943,1.9225,1.8931,1.8998,1.8865,1.849,1.8571,1.8718,1.8918,1.8918,1.9078,1.943,1.943,1.943,1.943,1.943,1.943,1.943,1.943,1.943,1.943,1.943,1.943,1.943,1.943,1.943,1.943,1.943,1.943,1.943,1.943,1.943,1.9426,1.972,2.0,2.0294,2.0588,2.0882,2.1109,2.1109,2.1109,2.1109,2.1109,2.1109,2.1109,2.1109,2.1109,2.1109,2.1109,2.1109,2.1109,2.1109,2.1109,2.1109,2.1109,2.1109,2.1109,2.1109,2.1109,2.1109,2.1109,2.1109,2.1109,2.1109,2.1109,2.1109,2.1109,2.1109,2.1109,2.1109,2.1109,2.1109,2.1109,2.1109,2.1109,2.1109,2.1109,2.1029,2.0869,2.0735,2.0361,1.9546,1.9546,1.9586,1.976,0.0,0.0,1.9052,1.8865,1.8664,1.837,1.8437,1.8544,1.8504,1.849,1.8544,1.8718,1.8891,1.9052,1.9158,1.9185,1.9185,1.9185,1.9185,1.9225,1.9417,1.943,1.943,1.943,1.943,1.943,1.943,1.943,1.9172,1.8758,1.8865,1.8664,1.8116,1.8237,1.845,1.8744,1.8611,1.8838,1.9417,1.9239,1.9252,1.943,1.943,1.943,1.943,1.943,1.943,1.943,1.943,1.943,1.943,1.943,1.943,1.943,1.943,1.943,1.943,1.943,1.943,1.9439,1.9853,2.0094,2.0321,2.0735,2.0975,2.1109,2.1109,2.1109,2.1109,2.1109,2.1109,2.1109,2.1109,2.1109,2.1109,2.1109,2.1109,2.1109,2.1109,2.1109,2.1109,2.1109,2.1109,2.1109,2.1109,2.1109,2.1109,2.1109,2.1109,2.1109,2.1109,2.1109,2.1109,2.1109,2.1109,2.1109,2.1109,2.1109,2.1109,2.1109,2.1109,2.1109,2.1109,2.1109,2.1042,2.0922,2.0628,2.0241,1.984,1.984,1.984,1.984,1.984,0.0,1.8824,1.8637,1.8544,1.8155,1.8115,1.825,1.845,1.8517,1.8544,1.8544,1.8517,1.8584,1.8838,1.8878,1.8878,1.8878,1.8878,1.8985,1.9239,1.9323,1.9323,1.9323,1.9323,1.9279,1.9319,1.935,1.9011,1.8464,1.8691,1.8424,1.7595,1.7862,1.8143,1.8437,1.8183,1.8504,1.9319,1.9078,1.9118,1.943,1.943,1.943,1.943,1.943,1.943,1.943,1.943,1.943,1.943,1.943,1.943,1.943,1.943,1.943,1.943,1.943,1.943,1.9466,2.0013,2.0214,2.0347,2.0909,2.1069,2.1069,2.1069,2.1069,2.1069,2.1096,2.1109,2.1109,2.1109,2.1109,2.1109,2.1109,2.1109,2.1109,2.1109,2.1109,2.1109,2.1109,2.1109,2.1109,2.1109,2.1109,2.1109,2.1109,2.1109,2.1109,2.1109,2.1109,2.1109,2.1109,2.1109,2.1109,2.1109,2.1109,2.1109,2.1109,2.1109,2.1109,2.1109,2.1109,2.0949,2.0615,2.0388,2.0107,2.008,2.0147,2.0147,2.0147,2.0147,0.0,1.9639,1.9546,1.9399,1.8865,1.8945,1.8985,1.8571,1.8677,1.8838,1.8838,1.8637,1.8504,1.8571,1.8571,1.8571,1.8571,1.8571,1.8597,1.8651,1.8664,1.8664,1.8664,1.8664,1.8758,1.8998,1.8784,1.8504,1.8089,1.8129,1.8009,1.7582,1.7649,1.7822,1.8075,1.8317,1.8611,1.9011,1.9199,1.9319,1.943,1.943,1.943,1.943,1.943,1.943,1.943,1.943,1.943,1.943,1.943,1.943,1.943,1.943,1.943,1.943,1.943,1.943,1.9439,1.9773,2.0054,2.0307,2.0655,2.0762,2.0762,2.0762,2.0762,2.0815,2.1056,2.1109,2.1109,2.1109,2.1109,2.1109,2.1109,2.1109,2.1109,2.1109,2.1109,2.1109,2.1109,2.1109,2.1109,2.1109,2.1109,2.1109,2.1109,2.1109,2.1109,2.1109,2.1109,2.1109,2.1109,2.1109,2.1109,2.1109,2.1109,2.1109,2.1109,2.1109,2.1109,2.1109,2.1109,2.0842,2.0321,2.0508,2.0307,2.0127,2.0167,2.0167,2.0167,2.0167,0.0,0.0,1.9693,1.9506,1.9199,1.9025,1.8891,1.8731,1.8704,1.8704,1.8704,1.8464,1.837,1.8664,1.845,1.8263,1.8263,1.8263,1.833,1.8477,1.849,1.849,1.849,1.849,1.8557,1.8704,1.8571,1.8357,1.8009,1.7995,1.7903,1.7582,1.7729,1.7969,1.8263,1.8424,1.8718,1.9145,1.9145,1.9225,1.943,1.943,1.943,1.943,1.943,1.943,1.943,1.943,1.943,1.943,1.943,1.943,1.943,1.943,1.943,1.943,1.943,1.943,1.9426,1.972,2.0,2.0267,2.0414,2.0561,2.0681,2.0681,2.0788,2.0922,2.1069,2.1109,2.1109,2.1109,2.1109,2.1109,2.1109,2.1109,2.1109,2.1109,2.1109,2.1109,2.1109,2.1109,2.1109,2.1109,2.1109,2.1109,2.1109,2.1109,2.1109,2.1109,2.1109,2.1109,2.1109,2.1109,2.1109,2.1109,2.1109,2.1109,2.1109,2.1109,2.1109,2.1109,2.1109,2.0802,2.0167,2.0241,2.0,2.0313,2.0361,2.0334,2.0388,2.0361,2.0241,0.0,0.0,0.0,1.9444,1.9038,1.8798,1.8971,1.8865,1.8704,1.8597,1.8424,1.845,1.8865,1.8557,1.8249,1.8249,1.8035,1.8103,1.8464,1.849,1.8464,1.841,1.8464,1.8464,1.841,1.8343,1.821,1.7916,1.7902,1.7836,1.7582,1.7889,1.8156,1.841,1.8517,1.8824,1.9279,1.9092,1.9145,1.943,1.943,1.943,1.943,1.943,1.943,1.943,1.943,1.943,1.943,1.943,1.943,1.943,1.943,1.943,1.943,1.943,1.943,1.9426,1.972,1.996,2.0147,2.0147,2.0321,2.0508,2.0508,2.0681,2.0882,2.1002,2.1029,2.1042,2.1096,2.1109,2.1109,2.1109,2.1109,2.1109,2.1109,2.1109,2.1109,2.1109,2.1109,2.1109,2.1109,2.1109,2.1109,2.1109,2.1109,2.1109,2.1109,2.1109,2.1109,2.1109,2.1109,2.1109,2.1109,2.1109,2.1109,2.1109,2.1109,2.1109,2.1109,2.1056,2.0775,2.0307,2.0027,1.9733,2.0869,2.0828,2.0681,2.0949,2.0815,2.0548,2.0254,0.0,1.9987,1.9466,0.0,1.9586,1.9359,0.0,0.0,1.8958,1.9065,1.9145,1.8945,1.9092,1.9212,1.9212,1.8277,1.7862,1.8437,1.849,1.8384,1.8062,1.8343,1.837,1.8049,1.7836,1.7662,1.7635,1.7635,1.7622,1.7582,1.7876,1.805,1.8049,1.8624,1.8905,1.8985,1.9212,1.9332,1.943,1.943,1.943,1.943,1.943,1.943,1.943,1.943,1.943,1.943,1.943,1.943,1.943,1.943,1.943,1.943,1.943,1.943,1.9426,1.972,1.9826,1.9853,1.9853,1.9867,1.9893,1.9893,1.992,2.008,2.0601,2.0722,2.0802,2.1056,2.1109,2.1109,2.1109,2.1109,2.1109,2.1109,2.1109,2.1109,2.1109,2.1109,2.1109,2.1109,2.1109,2.1109,2.1109,2.1109,2.1109,2.1109,2.1109,2.1109,2.1109,2.1109,2.1109,2.1109,2.1109,2.1109,2.1109,2.1109,2.1109,2.1109,2.0855,2.0695,2.0615,2.0321,2.0027,2.0788,2.0641,2.0494,2.0788,2.0508,2.0267,2.0655,2.0347,2.0013,2.0107,0.0,0.0,0.0,0.0,0.0,0.0,1.9399,1.9439,1.9653,1.9212,1.8918,1.9092,1.8664,1.833,1.8237,1.8397,1.829,1.7809,1.8223,1.8277,1.7809,1.7649,1.7582,1.7582,1.7582,1.7582,1.7582,1.7889,1.7982,1.7995,1.8477,1.8758,1.8931,1.9052,1.9199,1.943,1.943,1.943,1.943,1.943,1.943,1.943,1.943,1.943,1.943,1.943,1.943,1.943,1.943,1.943,1.943,1.943,1.943,1.9444,1.9506,1.9546,1.9546,1.9546,1.9666,1.98,1.98,2.0054,2.0374,2.0615,2.0802,2.0962,2.1082,2.1109,2.1109,2.1109,2.1109,2.1109,2.1109,2.1109,2.1109,2.1109,2.1109,2.1109,2.1109,2.1109,2.1109,2.1109,2.1109,2.1109,2.1109,2.1109,2.1109,2.1109,2.1109,2.1109,2.1109,2.1109,2.1109,2.1109,2.1109,2.1109,2.1109,2.0989,2.0922,2.0909,2.0281,1.992,2.0628,2.0454,2.0307,2.0601,2.0294,2.0067,2.0628,2.0254,1.992,2.0347,1.9933,0.0,0.0,0.0,1.9893,1.9813,0.0,1.984,2.0187,1.9573,1.9132,1.9265,1.9212,1.8958,1.845,1.8744,1.8624,1.7769,1.8343,1.8357,1.7568,1.7542,1.7582,1.7582,1.7582,1.7582,1.7582,1.7889,1.7995,1.7995,1.8343,1.8637,1.8918,1.8918,1.9092,1.943,1.943,1.943,1.943,1.943,1.943,1.943,1.943,1.943,1.943,1.943,1.943,1.943,1.943,1.943,1.943,1.943,1.943,1.943,1.943,1.943,1.943,1.943,1.9519,1.9679,1.9679,2.0054,2.0454,2.0535,2.0775,2.1015,2.1096,2.1109,2.1109,2.1109,2.1109,2.1109,2.1109,2.1109,2.1109,2.1109,2.1109,2.1109,2.1109,2.1109,2.1109,2.1109,2.1109,2.1109,2.1109,2.1109,2.1109,2.1109,2.1109,2.1109,2.1109,2.1109,2.1109,2.1109,2.1109,2.1109,2.1109,2.1109,2.1109,2.1096,2.0374,2.0,2.0521,2.0454,2.0307,2.0601,2.0441,2.0147,1.9907,1.9826,1.98,1.9826,1.9813,1.988,2.016,2.0214,2.0134,1.984,2.0267,0.0,0.0,2.0454,2.0508,2.0227,1.9947,1.9653,1.9359,1.984,1.9573,1.8116,1.8838,1.876,1.7286,1.7487,1.7582,1.7582,1.7582,1.7582,1.7582,1.7889,1.7995,1.7995,1.8343,1.8637,1.8918,1.8918,1.9092,1.943,1.943,1.943,1.943,1.943,1.943,1.943,1.943,1.943,1.943,1.943,1.943,1.943,1.943,1.943,1.943,1.943,1.943,1.943,1.943,1.943,1.943,1.943,1.943,1.9386,1.9386,1.9599,1.9893,2.0174,2.0468,2.0762,2.1042,2.1109,2.1109,2.1109,2.1109,2.1109,2.1109,2.1109,2.1109,2.1109,2.1109,2.1109,2.1109,2.1109,2.1109,2.1109,2.1109,2.1109,2.1109,2.1109,2.1109,2.1109,2.1109,2.1109,2.1109,2.1109,2.1109,2.1109,2.1109,2.1109,2.1109,2.1109,2.1109,2.1096,2.0788,2.0494,2.0334,2.0174,2.0067,2.0561,2.016,1.9786,2.0267,1.9933,1.9626,2.0,1.9933,1.9893,2.0174,2.0401,2.0494,2.0401,2.0548,2.0575,0.0,1.9987,1.984,1.9933,1.9693,1.9546,1.9639,1.9479,1.8985,1.809,1.8116,1.7929,1.7233,1.73,1.7434,1.7569,1.7582,1.7582,1.7582,1.7689,1.7742,1.7742,1.7849,1.8156,1.8637,1.8637,1.8905,1.943,1.943,1.943,1.943,1.943,1.943,1.943,1.943,1.943,1.943,1.943,1.943,1.943,1.943,1.943,1.943,1.943,1.943,1.943,1.943,1.943,1.943,1.943,1.943,1.943,1.943,1.972,2.0107,2.0153,2.0601,2.0989,2.1082,2.1109,2.1109,2.1109,2.1109,2.1109,2.1109,2.1109,2.1109,2.1109,2.1109,2.1109,2.1109,2.1109,2.1109,2.1109,2.1109,2.1109,2.1109,2.1109,2.1109,2.1109,2.1109,2.1109,2.1109,2.1109,2.1109,2.1109,2.1109,2.1109,2.1109,2.1109,2.1109,2.1109,2.1002,2.0802,2.0054,1.9947,1.9893,2.0267,1.9947,1.9666,2.0241,1.9933,1.9653,2.0134,2.0174,2.0107,2.008,2.0494,2.0762,2.0548,2.0695,2.0695,0.0,1.9826,1.9586,1.9773,1.972,1.9666,1.9653,1.9586,1.9038,1.7796,1.7822,1.7635,1.7072,1.7139,1.734,1.7569,1.7582,1.7582,1.7582,1.7582,1.7635,1.7742,1.7742,1.8063,1.8651,1.8651,1.8905,1.943,1.943,1.943,1.943,1.943,1.943,1.943,1.943,1.943,1.943,1.943,1.943,1.943,1.943,1.943,1.943,1.943,1.943,1.943,1.943,1.943,1.943,1.943,1.943,1.943,1.943,1.972,2.008,2.008,2.0521,2.0949,2.0949,2.1042,2.1109,2.1109,2.1109,2.1109,2.1109,2.1109,2.1109,2.1109,2.1109,2.1109,2.1109,2.1109,2.1109,2.1109,2.1109,2.1109,2.1109,2.1109,2.1109,2.1109,2.1109,2.1109,2.1109,2.1109,2.1162,2.1269,2.1162,2.1162,2.1269,2.1162,2.1109,2.1109,2.1109,2.1002]}]]